[[{"header":{"parameterUnit":"m.s-1","parameterCategory":1,"la1":30.6,"la2":29.2853,"lo1":-89.7004,"lo2":-87.6739,"dy":0.0162,"dx":0.0183,"nx":112,"ny":82,"refTime":"2024-09-17T12:00:00:Z","depth":0,"parameterNumber":2,"parameterNumberName":"U-component_of_WINDS"},"data":[0.0,0.0,0.0,0.0,0.0,0.0,0.0,0.0,0.0,0.0,0.0,0.0,0.0,0.0,0.0,0.0,0.0,0.0,0.0,0.0,0.0,0.0,0.0,0.0,0.0,0.0,0.0,0.0,0.0,0.0,0.0,0.0,0.0,0.0,0.0,0.0,0.0,0.0,0.0,0.0,0.0,0.0,0.0,0.0,0.0,0.0,0.0,0.0,0.0,0.0,0.0,0.0,0.0,0.0,0.0,0.0,0.0,0.0,0.0,0.0,0.0,0.0,0.0,0.0,0.0,0.0,0.0,0.0,0.0,0.0,0.0,0.0,0.0,0.0,0.0,0.0,0.0,0.0,0.0,0.0,0.0,0.0,0.0,0.0,0.0,0.0,0.0,0.0,0.0,0.0,-1.1885,-1.3491,-1.5653,-1.6449,-1.5226,-1.577,-1.4771,-1.1544,0.0,0.0,0.0,0.0,0.0,0.0,0.0,0.0,0.0,0.0,0.0,0.0,0.0,0.0,0.0,0.0,0.0,0.0,0.0,0.0,0.0,0.0,0.0,0.0,0.0,0.0,0.0,0.0,0.0,0.0,0.0,0.0,0.0,0.0,0.0,0.0,0.0,0.0,0.0,0.0,0.0,0.0,0.0,0.0,0.0,0.0,0.0,0.0,0.0,0.0,0.0,0.0,0.0,0.0,0.0,0.0,0.0,0.0,0.0,0.0,0.0,0.0,0.0,0.0,0.0,0.0,0.0,0.0,0.0,0.0,0.0,0.0,0.0,0.0,0.0,0.0,0.0,0.0,0.0,0.0,0.0,0.0,0.0,0.0,0.0,0.0,0.0,0.0,0.0,0.0,0.0,0.0,0.0,0.0,0.0,0.0,0.0,0.0,0.0,0.0,0.0,0.0,0.0,0.0,-1.219,-1.4508,-1.5446,-1.5842,-1.5614,-1.5003,-1.376,-1.1673,0.0,0.0,0.0,0.0,0.0,0.0,0.0,0.0,0.0,0.0,0.0,0.0,0.0,0.0,0.0,0.0,0.0,0.0,0.0,0.0,0.0,0.0,0.0,0.0,0.0,0.0,0.0,0.0,0.0,0.0,0.0,0.0,0.0,0.0,0.0,0.0,0.0,0.0,0.0,0.0,0.0,0.0,0.0,0.0,0.0,0.0,0.0,0.0,0.0,0.0,0.0,0.0,0.0,0.0,0.0,0.0,0.0,0.0,0.0,0.0,0.0,0.0,0.0,0.0,0.0,0.0,0.0,0.0,0.0,0.0,0.0,0.0,0.0,0.0,0.0,0.0,0.0,0.0,0.0,0.0,0.0,0.0,0.0,0.0,0.0,0.0,0.0,0.0,0.0,0.0,0.0,0.0,0.0,0.0,0.0,0.0,0.0,0.0,0.0,0.0,0.0,0.0,0.0,-1.1384,-1.2247,-1.4084,-1.4506,-1.466,-1.4631,-1.3851,-1.2659,-1.1005,-1.0387,0.0,0.0,0.0,0.0,0.0,0.0,0.0,0.0,0.0,0.0,0.0,0.0,0.0,0.0,0.0,0.0,0.0,0.0,0.0,0.0,0.0,0.0,0.0,0.0,0.0,0.0,0.0,0.0,0.0,0.0,0.0,0.0,0.0,0.0,0.0,0.0,0.0,0.0,0.0,0.0,0.0,0.0,0.0,0.0,0.0,0.0,0.0,0.0,0.0,0.0,0.0,0.0,0.0,0.0,0.0,0.0,0.0,0.0,0.0,0.0,0.0,0.0,0.0,0.0,0.0,0.0,0.0,0.0,0.0,0.0,0.0,0.0,0.0,0.0,0.0,0.0,0.0,0.0,0.0,0.0,0.0,0.0,0.0,0.0,0.0,0.0,0.0,0.0,0.0,0.0,0.0,0.0,0.0,0.0,0.0,0.0,0.0,0.0,0.0,0.0,0.0,0.0,-1.1587,-1.2191,-1.3435,-1.3613,-1.3619,-1.3547,-1.2788,-1.1714,-1.0371,-0.9614,0.0,0.0,0.0,0.0,0.0,0.0,0.0,0.0,0.0,0.0,0.0,0.0,0.0,0.0,0.0,0.0,0.0,0.0,0.0,0.0,0.0,0.0,0.0,0.0,0.0,0.0,0.0,0.0,0.0,0.0,0.0,0.0,0.0,0.0,0.0,0.0,0.0,0.0,0.0,0.0,0.0,0.0,0.0,0.0,0.0,0.0,0.0,0.0,0.0,0.0,0.0,0.0,0.0,0.0,0.0,0.0,0.0,0.0,0.0,0.0,0.0,0.0,0.0,0.0,0.0,0.0,0.0,0.0,0.0,0.0,0.0,0.0,0.0,0.0,0.0,0.0,0.0,0.0,0.0,0.0,0.0,0.0,0.0,0.0,0.0,0.0,0.0,0.0,0.0,0.0,0.0,0.0,0.0,0.0,0.0,0.0,0.0,0.0,0.0,0.0,0.0,0.0,-1.1274,-1.2216,-1.3042,-1.3157,-1.315,-1.3138,-1.2058,-1.1077,-1.0352,-0.9087,0.0,0.0,0.0,0.0,0.0,0.0,0.0,0.0,0.0,0.0,0.0,0.0,0.0,0.0,0.0,0.0,0.0,0.0,0.0,0.0,0.0,0.0,0.0,0.0,0.0,0.0,0.0,0.0,0.0,0.0,0.0,0.0,0.0,0.0,0.0,0.0,0.0,0.0,0.0,0.0,0.0,0.0,0.0,0.0,0.0,0.0,0.0,0.0,0.0,0.0,0.0,0.0,0.0,0.0,0.0,0.0,0.0,0.0,0.0,0.0,0.0,0.0,0.0,0.0,0.0,0.0,0.0,0.0,0.0,0.0,0.0,0.0,0.0,0.0,0.0,0.0,0.0,0.0,0.0,0.0,0.0,0.0,0.0,0.0,0.0,0.0,0.0,0.0,0.0,0.0,0.0,0.0,0.0,0.0,0.0,0.0,0.0,0.0,0.0,0.0,0.0,0.0,-1.027,-1.109,0.0,-1.211,-1.1995,-1.1987,-1.1098,-1.0206,-0.9411,0.0,0.0,0.0,0.0,0.0,0.0,0.0,0.0,0.0,0.0,0.0,0.0,0.0,0.0,0.0,0.0,0.0,0.0,0.0,0.0,0.0,0.0,0.0,0.0,0.0,0.0,0.0,0.0,0.0,0.0,0.0,0.0,0.0,0.0,0.0,0.0,0.0,0.0,0.0,0.0,0.0,0.0,0.0,0.0,0.0,0.0,0.0,0.0,0.0,0.0,0.0,0.0,0.0,0.0,0.0,0.0,0.0,0.0,0.0,0.0,0.0,0.0,0.0,0.0,0.0,0.0,0.0,0.0,0.0,0.0,0.0,0.0,0.0,0.0,0.0,0.0,0.0,0.0,0.0,0.0,0.0,0.0,0.0,0.0,0.0,0.0,0.0,0.0,0.0,0.0,0.0,0.0,0.0,0.0,0.0,0.0,0.0,0.0,0.0,0.0,0.0,0.0,-0.9104,-0.9656,-1.0298,0.0,-1.12,-1.1064,-1.0924,-1.0204,-0.9412,-0.8619,0.0,0.0,0.0,0.0,0.0,0.0,0.0,0.0,0.0,0.0,0.0,0.0,0.0,0.0,0.0,0.0,0.0,0.0,0.0,0.0,0.0,0.0,0.0,0.0,0.0,0.0,0.0,0.0,0.0,0.0,0.0,0.0,0.0,0.0,0.0,0.0,0.0,0.0,0.0,0.0,0.0,0.0,0.0,0.0,0.0,0.0,0.0,0.0,0.0,0.0,0.0,0.0,0.0,0.0,0.0,0.0,0.0,0.0,0.0,0.0,0.0,0.0,0.0,0.0,0.0,0.0,0.0,0.0,0.0,0.0,0.0,0.0,0.0,0.0,0.0,0.0,0.0,0.0,0.0,0.0,0.0,0.0,0.0,0.0,0.0,0.0,0.0,0.0,0.0,0.0,0.0,0.0,0.0,0.0,0.0,0.0,0.0,0.0,0.0,0.0,0.0,0.0,-0.8745,-0.9562,-1.0092,-1.0109,-1.0473,-1.0518,-1.0126,-0.941,-0.8718,0.0,0.0,0.0,0.0,0.0,0.0,0.0,0.0,0.0,0.0,0.0,0.0,0.0,0.0,0.0,0.0,0.0,0.0,0.0,0.0,0.0,0.0,0.0,0.0,0.0,0.0,0.0,0.0,0.0,0.0,0.0,0.0,0.0,0.0,0.0,0.0,0.0,0.0,0.0,0.0,0.0,0.0,0.0,0.0,0.0,0.0,0.0,0.0,0.0,0.0,0.0,0.0,0.0,0.0,0.0,0.0,0.0,0.0,0.0,0.0,0.0,0.0,0.0,0.0,0.0,0.0,0.0,0.0,0.0,0.0,0.0,0.0,0.0,0.0,0.0,0.0,0.0,0.0,0.0,0.0,0.0,0.0,0.0,0.0,0.0,0.0,0.0,0.0,0.0,0.0,0.0,0.0,0.0,0.0,0.0,0.0,0.0,0.0,0.0,0.0,0.0,0.0,0.0,-0.8865,-0.9628,-1.032,-1.0891,-1.0498,-1.001,-0.9583,-0.8807,-0.8024,-0.723,0.0,0.0,0.0,0.0,0.0,0.0,0.0,0.0,0.0,0.0,0.0,0.0,0.0,0.0,0.0,0.0,0.0,0.0,0.0,0.0,0.0,0.0,0.0,0.0,0.0,0.0,0.0,0.0,0.0,0.0,0.0,0.0,0.0,0.0,0.0,0.0,0.0,0.0,0.0,0.0,0.0,0.0,0.0,0.0,0.0,0.0,0.0,0.0,0.0,0.0,0.0,0.0,0.0,0.0,0.0,0.0,0.0,0.0,0.0,0.0,0.0,0.0,0.0,0.0,0.0,0.0,0.0,0.0,0.0,0.0,0.0,0.0,0.0,0.0,0.0,0.0,0.0,0.0,0.0,0.0,0.0,0.0,0.0,0.0,0.0,0.0,0.0,0.0,0.0,0.0,0.0,0.0,0.0,0.0,0.0,0.0,0.0,0.0,0.0,0.0,0.0,0.0,-0.838,-0.9147,-0.9803,-1.014,-0.9824,-0.942,-0.8943,-0.8363,-0.7594,-0.6588,0.0,0.0,0.0,0.0,0.0,0.0,0.0,0.0,0.0,0.0,0.0,0.0,0.0,0.0,0.0,0.0,0.0,0.0,0.0,0.0,0.0,0.0,0.0,0.0,0.0,0.0,0.0,0.0,0.0,0.0,0.0,0.0,0.0,0.0,0.0,0.0,0.0,0.0,0.0,0.0,0.0,0.0,0.0,0.0,0.0,0.0,0.0,0.0,0.0,0.0,0.0,0.0,0.0,0.0,0.0,0.0,0.0,0.0,0.0,0.0,0.0,0.0,0.0,0.0,0.0,0.0,0.0,0.0,0.0,0.0,0.0,0.0,0.0,0.0,0.0,0.0,0.0,0.0,0.0,0.0,0.0,0.0,0.0,0.0,0.0,0.0,0.0,0.0,0.0,0.0,0.0,0.0,0.0,0.0,0.0,0.0,0.0,0.0,0.0,0.0,0.0,0.0,-0.764,-0.8446,-0.8907,-0.8666,-0.8815,-0.878,-0.8329,-0.7976,-0.7326,-0.6185,0.0,0.0,0.0,0.0,0.0,0.0,0.0,0.0,0.0,0.0,0.0,0.0,0.0,0.0,0.0,0.0,0.0,0.0,0.0,0.0,0.0,0.0,0.0,0.0,0.0,0.0,0.0,0.0,0.0,0.0,0.0,0.0,0.0,0.0,0.0,0.0,0.0,0.0,0.0,0.0,0.0,0.0,0.0,0.0,0.0,0.0,0.0,0.0,0.0,0.0,0.0,0.0,0.0,0.0,0.0,0.0,0.0,0.0,0.0,0.0,-0.8551,-0.7919,0.0,0.0,0.0,0.0,0.0,0.0,0.0,0.0,0.0,0.0,0.0,0.0,0.0,0.0,0.0,0.0,0.0,0.0,0.0,0.0,0.0,0.0,0.0,0.0,0.0,0.0,0.0,0.0,0.0,0.0,0.0,0.0,0.0,0.0,0.0,0.0,0.0,0.0,0.0,0.0,-0.8063,-0.8633,-0.9177,-0.9626,-0.8987,-0.8434,-0.8232,-0.7496,-0.6808,-0.6291,-0.5859,0.0,0.0,0.0,0.0,0.0,0.0,0.0,0.0,0.0,0.0,0.0,0.0,0.0,0.0,0.0,0.0,0.0,0.0,0.0,0.0,0.0,0.0,0.0,0.0,0.0,0.0,0.0,0.0,0.0,0.0,0.0,0.0,0.0,0.0,0.0,0.0,0.0,0.0,0.0,0.0,0.0,0.0,0.0,0.0,0.0,0.0,0.0,0.0,0.0,0.0,0.0,0.0,0.0,0.0,0.0,0.0,0.0,0.0,0.0,-1.0102,-0.9262,0.0,0.0,0.0,0.0,0.0,0.0,0.0,0.0,0.0,0.0,0.0,0.0,0.0,0.0,0.0,0.0,0.0,0.0,0.0,0.0,0.0,0.0,0.0,0.0,0.0,0.0,0.0,0.0,0.0,0.0,0.0,0.0,0.0,0.0,0.0,0.0,0.0,0.0,0.0,0.0,-0.8207,-0.8397,-0.8646,-0.9138,-0.8566,-0.8074,-0.7893,-0.732,-0.6808,-0.6384,-0.5991,0.0,0.0,0.0,0.0,0.0,0.0,0.0,0.0,0.0,0.0,0.0,0.0,0.0,0.0,0.0,0.0,0.0,0.0,0.0,0.0,0.0,0.0,0.0,0.0,0.0,0.0,0.0,0.0,0.0,0.0,0.0,0.0,0.0,0.0,0.0,0.0,0.0,0.0,0.0,0.0,0.0,0.0,0.0,0.0,0.0,0.0,0.0,0.0,0.0,0.0,0.0,0.0,0.0,-1.405,-1.4468,-1.5291,-1.4466,-1.4249,-1.435,-1.1884,-1.0982,-1.1224,-0.9754,0.0,0.0,0.0,0.0,0.0,0.0,0.0,0.0,0.0,0.0,0.0,0.0,0.0,0.0,0.0,0.0,0.0,0.0,0.0,0.0,0.0,0.0,-0.897,-0.8413,-0.8757,-0.8728,-0.6996,0.0,0.0,0.0,0.0,0.0,0.0,0.0,0.0,0.0,0.0,0.0,-0.8201,-0.8139,-0.8117,-0.8333,-0.8102,-0.7815,-0.7553,-0.7332,-0.7014,-0.6545,-0.6256,-0.6023,0.0,0.0,0.0,0.0,0.0,0.0,0.0,0.0,0.0,0.0,0.0,0.0,0.0,0.0,0.0,0.0,0.0,0.0,0.0,0.0,0.0,0.0,0.0,0.0,0.0,0.0,0.0,0.0,0.0,0.0,0.0,0.0,-0.9406,-1.0757,0.0,0.0,0.0,0.0,0.0,0.0,0.0,0.0,0.0,0.0,0.0,0.0,0.0,-1.3985,-1.509,-1.5106,-1.5495,-1.6306,-1.612,-1.6109,-1.6219,-1.6077,-1.6061,-1.6047,-1.5138,0.0,-1.2161,-1.1301,0.0,0.0,0.0,0.0,0.0,0.0,0.0,0.0,0.0,0.0,0.0,0.0,0.0,0.0,0.0,0.0,0.0,0.0,0.0,0.0,0.0,0.0,-0.9006,-0.8698,-0.8698,-0.8714,-0.8421,-0.7983,-0.7523,-0.71,-0.6918,-0.673,0.0,0.0,0.0,0.0,0.0,0.0,-0.8165,-0.8444,-0.8614,-0.865,-0.8308,-0.796,-0.7687,-0.7439,-0.7182,-0.6937,-0.673,-0.6428,-0.5966,-0.5523,0.0,0.0,0.0,0.0,0.0,0.0,0.0,0.0,0.0,0.0,0.0,0.0,0.0,0.0,0.0,0.0,0.0,0.0,0.0,0.0,0.0,0.0,0.0,0.0,0.0,0.0,0.0,0.0,0.0,-0.9874,-1.1348,-1.1715,-1.1978,-1.2128,0.0,0.0,0.0,0.0,0.0,0.0,0.0,0.0,0.0,-1.4554,-1.5396,-1.6134,-1.6701,-1.6875,-1.709,-1.7316,-1.7243,-1.7134,-1.708,-1.708,-1.708,-1.7025,-1.6632,-1.5531,-1.3966,-1.2953,-1.2209,-1.1626,0.0,0.0,0.0,0.0,-0.9931,-0.9946,-1.0143,-1.0135,-0.9903,-0.9101,0.0,0.0,0.0,0.0,0.0,0.0,0.0,-0.927,-0.9026,-0.9279,-0.9536,-0.9217,-0.9167,-0.9167,-0.9167,-0.8837,-0.8396,-0.7965,-0.8211,-0.8137,-0.7036,-0.696,0.0,0.0,0.0,-0.8059,-0.8779,-0.8767,-0.8758,-0.8915,-0.8639,-0.835,-0.8175,-0.7977,-0.7734,-0.7421,-0.722,-0.6897,-0.6414,-0.6094,-0.575,0.0,0.0,0.0,0.0,0.0,0.0,0.0,0.0,0.0,0.0,0.0,0.0,0.0,0.0,0.0,0.0,0.0,0.0,0.0,0.0,0.0,0.0,0.0,0.0,0.0,0.0,0.0,0.0,-1.1158,-1.2523,-1.2282,-1.3057,-1.3526,0.0,0.0,0.0,0.0,0.0,0.0,-1.4223,-1.5833,-1.6674,-1.6468,-1.744,-1.8009,-1.8119,-1.8393,-1.8556,-1.8493,-1.8493,-1.8416,-1.8318,-1.8228,-1.8059,-1.781,-1.7353,-1.6527,-1.5343,-1.4213,-1.3385,-1.2696,-1.1687,-1.1145,-1.0874,-1.0668,-1.0463,-1.0379,-1.0904,-1.1031,-1.0859,-1.007,-0.9769,-0.9563,-0.8755,0.0,0.0,0.0,0.0,-0.9797,-0.9512,-0.9654,-0.9811,-0.9564,-0.9516,-0.9516,-0.9516,-0.9474,-0.9271,-0.8686,-0.9093,-0.9126,-0.7812,-0.7752,0.0,-0.8028,0.0,-0.8481,-0.9237,-0.9075,-0.8963,-0.9083,-0.8896,-0.8693,-0.8516,-0.8369,-0.8171,-0.7834,-0.7597,-0.7289,-0.6908,-0.6607,-0.6363,-0.6092,0.0,0.0,0.0,0.0,0.0,0.0,0.0,0.0,0.0,0.0,0.0,0.0,0.0,0.0,0.0,0.0,0.0,0.0,0.0,0.0,0.0,0.0,0.0,0.0,0.0,0.0,0.0,0.0,0.0,-1.2639,-1.373,0.0,0.0,0.0,0.0,-1.4909,-1.5007,-1.5675,-1.72,-1.7734,-1.8174,-1.854,-1.8981,-1.9402,-1.9765,-1.9783,-1.9985,-2.0351,-2.0351,-2.0351,-2.0351,-1.9966,-1.9334,-1.8501,-1.7525,-1.6616,-1.5732,-1.482,-1.3604,-1.2208,-1.1746,-1.1432,-1.1222,-1.16,-1.17,-1.1664,-1.137,-1.1136,-1.0797,-1.0126,-0.9675,-0.9417,-0.9349,-0.9519,0.0,0.0,-0.9672,-0.9914,-0.9586,-0.9512,-0.9524,-0.9516,-0.9516,-0.9516,-0.9516,-0.997,-1.0152,-0.9248,-0.8902,-0.878,-0.889,0.0,-0.8933,-0.8933,-0.9167,-0.9262,-0.9126,-0.9312,-0.9372,-0.9119,-0.8972,-0.8774,-0.8528,-0.8387,-0.8228,-0.808,-0.7828,-0.7581,-0.7362,-0.6913,-0.6586,-0.6385,-0.5465,0.0,0.0,0.0,0.0,0.0,0.0,0.0,0.0,0.0,0.0,0.0,0.0,0.0,0.0,0.0,0.0,0.0,0.0,0.0,0.0,0.0,0.0,0.0,0.0,0.0,0.0,0.0,0.0,-1.4554,-1.5488,0.0,-1.6024,-1.6122,-1.6452,-1.7,-1.7513,-1.8045,-1.8632,-1.9292,-1.9842,-2.0246,-2.0393,-2.0668,-2.1046,-2.0814,-2.0759,-2.0888,-2.0649,-2.0183,-1.9571,-1.9449,-1.8854,-1.7926,-1.7231,-1.6303,-1.53,-1.4684,-1.4171,-1.3689,-1.2871,-1.2308,-1.1852,-1.1501,-1.1131,-1.0836,-1.0698,-1.0604,-1.0461,-1.0256,-0.994,-0.976,-0.9933,-0.9925,-0.985,-0.9762,-0.9829,-0.9859,-0.9572,-0.9516,-0.9516,-0.9516,-0.9516,-0.9516,-0.9516,-0.9708,-0.9767,-0.9415,-0.9631,-0.9619,-0.8928,-0.8961,-0.9023,-0.885,-0.9048,-0.923,-0.9336,-0.9456,-0.9436,-0.9245,-0.9202,-0.9072,-0.8853,-0.855,-0.8289,-0.8103,-0.7724,-0.7403,-0.7225,-0.7052,-0.6923,-0.6837,-0.5843,-0.5256,0.0,0.0,0.0,0.0,0.0,0.0,0.0,0.0,0.0,0.0,0.0,0.0,0.0,0.0,0.0,0.0,0.0,0.0,0.0,0.0,0.0,0.0,0.0,0.0,0.0,-1.4168,-1.5387,-1.5566,-1.6845,-1.7496,-1.6976,-1.734,-1.7776,-1.8187,-1.8554,-1.9059,-1.9857,-2.0244,-2.0743,-2.1467,-2.1511,-2.1713,-2.2089,-2.1731,-2.1335,-2.1024,-2.063,-2.0087,-1.9477,-1.901,-1.8464,-1.7802,-1.6909,-1.5893,-1.4909,-1.4408,-1.4226,-1.4156,-1.3199,-1.2557,-1.2094,-1.1476,-1.0996,-1.0683,-1.0587,-1.0503,-1.0418,-1.0418,-1.025,-1.0069,-1.0238,-1.0178,-1.0033,-1.0033,-1.0033,-0.9973,-0.9709,-0.9648,-0.9624,-0.954,-0.9516,-0.9516,-0.9516,-0.9516,-0.9516,-0.9516,-0.9856,-0.9901,-0.9096,-0.9119,-0.9179,-0.9011,-0.9131,-0.9312,-0.9492,-0.9516,-0.9452,-0.9312,-0.93,-0.9215,-0.9011,-0.87,-0.8404,-0.8195,-0.7768,-0.7403,-0.7214,-0.7052,-0.6999,-0.7112,-0.5971,-0.5229,-0.4861,0.0,0.0,0.0,0.0,0.0,0.0,0.0,0.0,0.0,0.0,0.0,0.0,0.0,0.0,0.0,0.0,0.0,0.0,0.0,0.0,0.0,0.0,0.0,-1.2344,-1.4982,-1.6509,-1.5572,-1.7693,-1.8333,-1.6126,-1.7041,-1.8033,-1.8506,-1.8008,-1.8655,-2.0927,-2.0534,-2.0874,-2.2199,-2.2199,-2.2399,-2.28,-2.2399,-2.1785,-2.0903,-2.0463,-2.0275,-2.0212,-1.8807,-1.8198,-1.8121,-1.658,-1.5383,-1.4578,-1.4027,-1.3692,-1.3411,-1.2656,-1.2168,-1.1862,-1.1609,-1.1513,-1.1465,-1.1226,-1.096,-1.0707,-1.0731,-1.0515,-1.031,-1.0322,-1.031,-1.031,-1.031,-1.031,-1.025,-0.9985,-0.9913,-0.9853,-0.9588,-0.9496,-0.9528,-0.9484,-0.9516,-0.9516,-0.9516,-0.9516,-0.9516,-0.9516,-0.9516,-0.9516,-0.9516,-0.9516,0.0,-0.9516,-0.9516,-0.9452,-0.9312,-0.93,-0.9204,-0.9022,-0.8794,-0.8595,-0.8398,-0.7944,-0.7592,-0.7394,-0.6945,-0.6791,-0.7014,-0.5826,-0.4551,-0.3229,0.0,0.0,0.0,0.0,0.0,0.0,0.0,0.0,0.0,0.0,0.0,0.0,0.0,0.0,0.0,0.0,0.0,0.0,0.0,0.0,0.0,-1.3427,-1.4668,-1.4518,-1.5465,-1.627,-1.6525,-1.7439,-1.7991,-1.7856,-1.816,-1.8643,-1.9299,-1.9209,-1.9383,-2.0046,-1.9971,-2.0021,-2.0406,-2.0406,-2.0456,-2.0554,-2.0456,-2.071,-2.1186,-2.0044,-1.9536,-1.9613,-1.821,-1.7147,-1.6467,-1.5805,-1.5316,-1.4924,-1.4308,-1.3982,-1.3709,-1.312,-1.2612,-1.2192,-1.2119,-1.1974,-1.1742,-1.1465,-1.1333,-1.1236,-1.1032,-1.0828,-1.0611,-1.084,-1.0731,-1.0575,-1.0575,-1.0575,-1.0515,-1.025,-1.019,-1.0118,-0.9865,-0.9793,-0.9745,-0.9552,-0.9516,-0.9516,-0.9516,-0.9516,-0.9516,-0.9516,-0.9516,-0.9516,-0.9516,-0.9516,-0.9516,-0.9516,-0.9516,-0.9452,-0.9312,-0.9172,-0.9022,-0.8861,-0.8543,-0.8229,-0.7974,-0.767,-0.7451,-0.7394,-0.6809,-0.6163,-0.5445,-0.5194,-0.4646,0.0,0.0,0.0,0.0,0.0,0.0,0.0,0.0,0.0,0.0,0.0,0.0,0.0,0.0,0.0,0.0,0.0,0.0,0.0,0.0,0.0,0.0,-1.3983,-1.5174,-1.5311,-1.6213,-1.6869,-1.6883,-1.7697,-1.8102,-1.766,-1.8108,-1.8588,-1.9033,-1.8656,-1.8803,-1.9634,-1.9308,-1.9354,-1.9937,-1.9952,-2.0016,-2.0224,-2.0016,-2.0051,-2.0247,-1.9266,-1.8806,-1.8839,-1.7471,-1.677,-1.6566,-1.5792,-1.5391,-1.5224,-1.474,-1.4363,-1.4018,0.0,0.0,0.0,0.0,-1.2143,-1.1902,-1.1706,-1.1657,-1.1609,-1.1333,-1.1152,-1.1032,-1.1105,-1.1009,-1.0888,-1.0888,-1.0888,-1.0828,-1.0527,-1.0539,-1.0551,-1.0298,-1.0238,-1.019,-1.0033,-0.9913,-0.9841,-0.9841,-0.9757,0.0,-0.9672,-0.9588,-0.9516,-0.9516,-0.9516,-0.9516,-0.9516,-0.9516,-0.9452,-0.9312,-0.9204,-0.9055,-0.8894,-0.8511,0.0,0.0,0.0,-0.7519,-0.7394,-0.6837,0.0,0.0,0.0,0.0,0.0,0.0,0.0,0.0,-0.3736,-0.3725,0.0,0.0,0.0,0.0,0.0,0.0,0.0,0.0,0.0,0.0,0.0,0.0,0.0,0.0,0.0,0.0,-1.4241,-1.4576,-1.5431,-1.7004,-1.7675,-1.6762,-1.7974,-1.8237,-1.6562,-1.7436,-1.8116,-1.8145,-1.7296,-1.7596,-1.9367,-1.8627,0.0,0.0,0.0,-2.0155,-2.0518,-2.0155,-1.9598,-1.8854,-1.8346,-1.8151,-1.8236,-1.6938,-1.6849,-1.7611,-1.6224,-1.5625,-1.5525,-1.517,-1.4773,-1.4257,-1.372,-1.335,-1.3017,-1.2578,-1.224,-1.2011,-1.1974,0.0,0.0,-1.1621,-1.1537,-1.1489,-1.1236,-1.1178,-1.1166,-1.1166,-1.1141,-1.1057,-1.0828,-1.0936,-1.1045,-1.0743,-1.0707,-1.0755,-1.0731,-1.0527,-1.0382,-1.0382,-1.0166,-0.9997,-0.9997,-0.9733,-0.9516,-0.9516,-0.9516,-0.9516,-0.9516,-0.9516,-0.9452,-0.9344,-0.93,0.0,-0.9043,-0.8702,-0.8443,-0.8409,-0.8048,-0.7653,-0.725,-0.6874,-0.6324,-0.5586,-0.5171,-0.4791,-0.4525,-0.4525,-0.4586,-0.4695,-0.4142,-0.406,0.0,0.0,0.0,0.0,0.0,0.0,0.0,0.0,0.0,0.0,0.0,0.0,0.0,0.0,0.0,-1.4894,-1.5294,-1.5712,-1.6366,-1.6742,-1.6842,-1.6415,-1.6834,-1.715,-1.7056,-1.7238,-1.7463,-1.7707,-1.7513,-1.7617,-1.7967,-1.7825,-1.7852,-1.8116,-1.8116,-1.8144,-1.8251,-1.8144,-1.8466,-1.9125,-1.7965,0.0,-1.8657,-1.7255,-1.672,-1.6919,-1.6603,-1.6196,-1.5778,-1.5544,-1.4956,-1.4279,-1.3701,-1.335,-1.3109,-1.2969,-1.2795,-1.2518,-1.2312,-1.224,-1.2192,-1.1886,-1.1802,-1.1802,-1.1742,-1.1573,0.0,-1.1417,-1.1286,-1.1093,-1.1045,-1.1069,-1.1045,-1.0743,-1.0888,-1.0972,-1.0767,-1.0852,-1.096,-1.096,-1.0719,-1.0539,-1.0539,-0.9961,-0.9516,-0.9516,-0.9516,-0.9516,-0.9516,-0.9516,-0.9484,-0.9452,-0.9376,-0.928,-0.9236,-0.9009,-0.8736,-0.8421,-0.8231,-0.7562,-0.6313,-0.6396,-0.5902,-0.4766,-0.4659,-0.4613,-0.4651,-0.4651,-0.4717,-0.4795,-0.4613,-0.4553,0.0,0.0,0.0,0.0,0.0,0.0,0.0,0.0,0.0,0.0,0.0,-1.3035,-1.4276,0.0,-1.5,-1.5668,-1.6062,-1.6366,-1.666,-1.6834,-1.682,-1.6526,-1.6754,-1.7032,-1.7192,-1.7326,-1.7474,-1.7569,-1.7582,-1.7582,-1.7582,-1.7582,-1.7582,-1.7582,-1.7582,-1.7582,-1.7582,-1.7582,-1.7898,-1.8408,-1.7748,-1.7667,-1.817,-1.7316,-1.6927,-1.6914,-1.6767,-1.647,-1.609,-1.5492,-1.4984,-1.4472,-1.4061,-1.3749,-1.3483,-1.3218,-1.3037,-1.288,-1.2602,-1.2506,-1.2469,-1.2204,-1.2119,-1.2095,-1.1922,-1.179,-1.1682,-1.1682,-1.1489,-1.1285,-1.1285,-1.1285,-1.1248,-1.1116,-1.1188,-1.1248,-1.1116,-1.1188,-1.1285,-1.1285,-1.1176,-1.1092,-1.1092,-1.0647,-1.0202,-0.9949,-0.9793,-0.9709,-0.9709,-0.96,-0.9516,-0.9516,-0.944,-0.9408,-0.9408,-0.885,-0.8377,-0.808,-0.7658,-0.7064,-0.6334,-0.6139,-0.5748,-0.5121,-0.4773,-0.4657,-0.4746,-0.4746,-0.4806,-0.4887,-0.486,-0.4833,0.0,0.0,0.0,0.0,0.0,0.0,0.0,0.0,-1.2115,-1.3918,-1.374,-1.3764,-1.5302,-1.5407,-1.5531,-1.6362,-1.6633,-1.6807,-1.686,-1.7139,-1.7192,-1.6901,-1.7088,-1.7286,-1.7286,-1.7448,-1.7582,-1.7582,-1.7582,-1.7582,-1.7582,-1.7582,-1.7582,-1.7582,-1.7582,-1.7582,-1.7582,-1.7582,-1.7582,-1.7582,-1.7582,-1.7582,-1.7569,-1.7393,-1.7286,-1.7273,-1.6877,-1.6542,-1.6226,-1.5482,-1.501,-1.4678,-1.4473,-1.422,-1.393,-1.3447,-1.3197,-1.3157,-1.288,-1.2783,-1.2747,-1.2469,-1.2385,-1.2349,-1.2131,-1.2035,-1.1999,-1.1999,-1.1766,-1.1573,-1.1573,-1.1573,-1.1549,-1.1501,-1.1537,-1.1549,-1.1501,-1.1537,-1.1573,-1.1573,-1.1525,-1.1489,-1.1489,-1.1309,-1.0996,-1.0515,-1.0262,-1.013,-1.013,-0.9949,-0.9793,-0.9745,-0.9697,-0.9583,-0.9362,-0.857,-0.7956,-0.7626,-0.7018,-0.6587,-0.6448,-0.5944,-0.5633,-0.5515,-0.4977,-0.4746,-0.4833,-0.4833,-0.4893,-0.505,-0.505,-0.505,-0.9086,-0.9746,-1.042,-1.0653,-1.1203,-1.2078,0.0,0.0,-1.3964,-1.474,-1.503,-1.5263,-1.5698,-1.5973,-1.6375,-1.7005,-1.7125,-1.7246,-1.7448,-1.7515,-1.7515,-1.7488,-1.7515,-1.7542,-1.7542,-1.7569,-1.7582,-1.7582,-1.7582,-1.7582,-1.7582,-1.7582,-1.7582,-1.7582,-1.7582,-1.7582,-1.7582,-1.7582,-1.7582,-1.7582,-1.7582,-1.7582,-1.7582,-1.7555,-1.7542,-1.7515,-1.7028,-1.66,-1.6253,-1.572,-1.5145,-1.4715,-1.4666,-1.4497,-1.422,-1.393,-1.3676,-1.3435,-1.3169,-1.3073,-1.3025,-1.2747,-1.2662,-1.265,-1.2626,-1.2457,-1.2276,-1.2276,-1.2042,-1.1838,-1.1838,-1.1838,-1.1778,-1.1549,-1.167,-1.1778,-1.1537,-1.167,-1.1838,-1.1838,-1.1645,-1.1489,-1.1489,-1.1465,-1.1345,-1.1069,-1.0997,-1.0985,-1.0985,-1.096,-1.0852,-1.0575,-1.0346,-0.9833,-0.8863,-0.8579,-0.8125,-0.7399,-0.7001,-0.6485,-0.5844,-0.575,-0.5461,-0.4923,-0.4811,-0.4833,-0.4996,-0.4996,-0.5056,-0.517,-0.517,-0.517,-1.0087,-1.0902,-1.1631,-1.173,-1.2465,-1.332,-1.3948,-1.4349,-1.4754,-1.5124,-1.5578,-1.5992,-1.6286,-1.658,-1.6965,0.0,-1.7447,-1.7448,-1.7569,-1.7582,-1.7515,-1.7407,-1.7475,-1.7582,-1.7582,-1.7582,-1.7582,-1.7582,-1.7582,-1.7582,-1.7582,-1.7582,-1.7582,-1.7582,-1.7582,-1.7582,-1.7582,-1.7582,-1.7582,-1.7582,-1.7582,-1.7582,-1.7582,-1.7582,-1.7582,-1.7582,-1.72,-1.6743,-1.6252,-1.5894,-1.544,-1.4932,-1.4775,-1.4642,-1.4485,-1.4063,-1.3833,-1.3701,-1.3447,-1.3254,-1.3065,-1.2988,-1.2831,-1.2699,-1.2699,-1.2626,-1.2542,-1.2542,-1.2349,-1.2155,-1.2155,-1.2035,-1.185,-1.1742,-1.1802,-1.185,-1.1742,-1.1922,-1.2107,-1.191,-1.1548,-1.1364,-1.1663,-1.0954,-1.0473,-1.0807,-1.1135,-1.1321,-1.1321,-1.1214,-1.1009,-1.0719,-1.0055,-0.9406,-0.8952,-0.7873,-0.7078,-0.6722,-0.6026,-0.5488,-0.52,-0.5233,-0.5191,-0.4942,-0.4903,-0.4996,-0.5116,-0.5116,-0.5175,-0.5336,-0.5336,-0.5333,-1.0747,-1.1672,-1.2452,-1.2532,-1.3454,-1.4349,-1.4429,-1.4843,-1.5257,-1.5471,-1.5912,-1.6339,-1.654,-1.6901,-1.7273,-1.7474,-1.7528,-1.7582,-1.7582,-1.7515,-1.7474,-1.734,-1.7434,-1.7502,-1.7569,-1.7582,-1.7582,-1.7582,-1.7582,-1.7582,-1.7582,-1.7582,-1.7582,-1.7582,-1.7582,-1.7582,-1.7582,-1.7582,-1.7582,-1.7582,-1.7582,-1.7582,-1.7582,-1.7582,-1.7582,-1.7477,-1.7279,-1.6845,-1.6275,-1.6079,-1.567,-1.5197,-1.5004,-1.4896,-1.4775,-1.4304,-1.4087,-1.3978,-1.3713,-1.3495,-1.3326,-1.3209,-1.3049,-1.2819,-1.2819,-1.2771,-1.2699,-1.2699,-1.2566,-1.2421,-1.2421,-1.2276,-1.2079,-1.2047,-1.2035,-1.2011,-1.1938,-1.1856,-1.1735,-1.1548,-1.1002,-1.0687,-1.1053,-1.0223,-0.9681,-1.0295,-1.0748,-1.1039,-1.0942,-1.0654,-1.0357,-1.0011,-0.928,-0.8714,-0.8405,-0.7122,-0.6251,-0.6032,-0.5283,-0.4844,-0.4844,-0.493,-0.5018,-0.5018,-0.505,-0.5105,-0.5186,-0.5219,-0.5301,-0.542,-0.542,-0.5485,-1.068,-1.1672,-1.2851,-1.3106,-1.4068,-1.5062,-1.5297,-1.5591,-1.5758,-1.5771,-1.6059,-1.6273,-1.6335,-1.6804,-1.7206,-1.7206,-1.7447,-1.7582,-1.7582,-1.7393,-1.7313,-1.7542,-1.738,-1.7326,-1.7555,-1.7582,-1.7582,-1.7582,-1.7582,-1.7582,-1.7582,-1.7582,-1.7582,-1.7582,-1.7582,-1.7582,-1.7582,-1.7582,-1.7582,-1.7582,-1.7582,-1.7582,-1.7582,-1.7582,-1.7477,-1.7226,-1.7173,-1.6855,-1.6311,-1.6311,-1.5992,-1.5487,-1.5475,-1.5318,-1.5065,-1.4787,-1.4521,-1.4244,-1.3978,-1.3894,-1.3845,-1.3592,-1.3326,-1.3109,-1.3109,-1.2916,-1.2699,-1.2699,-1.2699,-1.2687,-1.2687,-1.2687,-1.2614,-1.2361,-1.23,-1.2228,-1.1974,-1.118,-1.0565,-1.0525,-0.9806,-0.9155,-0.9186,-0.9354,-0.9527,-0.9527,-0.9771,-0.9838,-0.9601,-0.915,-0.8707,-0.8246,-0.8143,-0.7723,-0.6685,-0.6518,-0.615,-0.5384,-0.5124,-0.5012,-0.5012,-0.5018,-0.5018,-0.5018,-0.5127,-0.5181,-0.5186,-0.5347,-0.5426,-0.5502,-0.5502,-0.5567,-1.1913,-1.2665,-1.3507,-1.4202,-1.4816,-1.5324,-1.5618,-1.5765,-1.5731,-1.5578,-1.5778,-1.5925,-1.5725,-1.6214,-1.6683,-1.682,-1.7152,-1.742,-1.7555,-1.7502,-1.7447,-1.7367,-1.7434,-1.7447,-1.7353,-1.7527,-1.7582,-1.7582,-1.7582,-1.7582,-1.7582,-1.7582,-1.7582,-1.7582,-1.7582,-1.7582,-1.7582,-1.7582,-1.7582,-1.7582,-1.7582,-1.7582,-1.7582,-1.7582,-1.7424,-1.7173,-1.7173,-1.6855,-1.6217,-1.55,-1.4973,-1.4562,-1.3551,-1.3121,-1.3028,-1.2741,-1.2608,-1.2685,-1.3775,-1.4051,-1.3894,-1.3797,-1.3592,-1.3387,-1.3387,-1.3314,-1.3206,-1.3037,-1.2988,-1.294,-1.2747,-1.2229,-1.1735,-1.1657,-1.1155,-1.0655,-1.0583,-1.0309,-1.0057,-0.9868,-0.9141,-0.868,-0.905,-0.8304,-0.7598,-0.7397,-0.8624,-0.954,-0.9442,-0.8963,-0.8536,-0.8395,-0.7738,-0.7141,-0.6783,-0.6098,-0.5589,-0.5318,-0.5129,-0.505,-0.5127,-0.5132,-0.517,-0.5252,-0.5331,-0.5349,-0.5389,-0.5427,-0.5508,-0.5626,-0.5626,-0.5648,-1.2799,-1.3427,-1.4015,-1.4897,-1.5337,-1.5605,-1.5744,-1.5752,-1.5591,-1.5297,-1.5311,-1.5265,-1.5124,-1.5471,-1.5965,-1.6473,-1.6794,-1.7179,-1.7528,-1.7541,-1.7447,-1.7367,-1.7434,-1.7447,-1.7367,-1.7475,-1.7582,-1.7582,-1.7582,-1.7635,-1.7742,-1.7742,-1.7796,-1.7903,-1.7409,-1.7303,-1.7756,-1.6827,-1.634,-1.634,-1.634,-1.634,-1.634,-1.634,-1.6127,-1.582,-1.582,-1.5446,-1.4857,-1.4148,-1.3717,-1.3437,-1.249,-1.2165,-1.2084,-1.1825,-1.1741,-1.1893,-1.2929,-1.3158,-1.3014,-1.2972,-1.2725,-1.2537,-1.2537,-1.247,-1.237,-1.217,-1.2126,-1.207,-1.186,-1.1358,-1.0901,-1.0819,-1.0356,-0.9879,-0.9879,-0.9618,-0.9365,-0.9154,-0.8451,-0.799,-0.8337,-0.7528,-0.6773,-0.6525,-0.7523,-0.8243,-0.8094,-0.7707,-0.7414,-0.7334,-0.6642,-0.6209,-0.6209,-0.5632,-0.5269,-0.5269,-0.5195,-0.5175,-0.5246,-0.5252,-0.5331,-0.5407,-0.5415,-0.5474,-0.5508,-0.5551,-0.561,-0.5691,-0.5691,-0.5712,-1.332,-1.3908,-1.4362,-1.5204,-1.5631,-1.5784,-1.5758,-1.5578,-1.5284,-1.5008,-1.4669,-1.4456,-1.4402,-1.4696,-1.5276,-1.6094,-1.6486,-1.6927,-1.7502,-1.7407,-1.7353,0.0,0.0,0.0,0.0,0.0,-1.7463,-1.7463,-1.7503,-1.7636,-1.7887,-1.7846,-1.7978,-1.8311,-1.6967,-1.672,-1.7792,-1.536,-1.4094,-1.4083,-1.4083,-1.4083,-1.4083,-1.4083,-1.3814,-1.3295,-1.3285,-1.296,-1.2417,-1.2363,-1.2309,-1.2309,-1.2254,-1.22,-1.2172,-1.1933,-1.1859,-1.1804,-1.1406,-1.1309,-1.1372,-1.1255,-1.1057,-1.0848,-1.0839,-1.0651,-1.0454,-1.0436,-1.0436,-1.0389,-1.0274,-1.0173,-1.0072,-0.992,-0.9811,-0.9767,-0.9767,-0.9069,-0.8412,-0.8412,-0.7709,-0.7098,-0.7098,-0.7098,-0.701,-0.6795,-0.6505,-0.616,-0.5775,-0.5606,-0.5404,-0.5238,-0.5099,-0.5034,-0.5034,-0.5132,-0.5197,-0.5197,-0.5347,-0.5413,-0.5418,-0.5418,-0.5424,-0.5429,-0.5459,-0.5518,-0.5518,-0.5632,-0.5691,-0.5691,-0.5696,-0.5801,-1.3828,-1.4509,-1.5164,-1.5605,-1.5731,-1.5765,-1.5551,-1.5284,-1.487,-1.4135,-1.388,-1.356,-1.2705,-1.3909,-1.5008,-1.4963,-1.6126,0.0,-1.7528,-1.7716,0.0,-1.7862,0.0,-1.6777,-1.6839,-1.5998,0.0,-1.5444,-1.6108,-1.6611,-1.6938,-1.6048,-1.5569,-1.5693,-1.5289,-1.5255,-1.5546,-1.4746,-1.4255,-1.4083,-1.4083,-1.4083,-1.4083,-1.3911,-1.3599,-1.3295,-1.3058,-1.2733,-1.2309,-1.1492,-1.1109,-1.1055,-1.0131,-0.9809,-0.9809,-0.9709,-0.9694,-0.9665,-0.9457,-1.0341,-1.1518,-1.1372,-1.1319,-1.1253,-1.1142,-1.1057,-1.0933,-1.0735,-1.0698,-1.0641,-1.0398,-0.9837,-0.9313,-0.9263,-0.8609,-0.8027,-0.8027,-0.7752,-0.7445,-0.7445,-0.7268,-0.7098,-0.7098,-0.6966,-0.6789,-0.6523,-0.6322,-0.6075,-0.586,-0.5608,-0.5405,-0.5364,-0.5336,-0.5279,-0.5279,-0.5347,-0.5364,-0.5364,-0.5396,-0.5409,-0.5459,-0.5464,-0.5502,-0.5638,-0.5626,-0.5642,-0.5642,-0.5675,-0.5691,-0.5691,-0.5817,-0.5877,-1.4469,-1.5017,-1.5471,-1.5704,-1.5725,-1.5498,-1.495,-1.4496,-1.3908,-1.2841,-1.2734,-1.2585,-1.165,-1.308,-1.4416,0.0,0.0,0.0,-1.7689,-1.7432,-1.7207,0.0,-1.6406,0.0,-1.5749,-1.513,-1.4778,-1.4884,-1.5233,-1.5602,-1.5909,-1.5238,-1.4938,-1.5102,-1.4479,-1.3814,-1.3146,-1.3506,-1.3281,-1.2495,-1.2455,-1.2363,-1.2191,-1.2082,-1.1819,-1.1555,-1.1383,-1.1164,-1.0789,-1.0186,-0.9911,-0.9864,-0.9154,-0.8885,-0.8885,-0.8885,-0.8885,-0.8871,-0.8838,-0.95,-1.0384,-1.0174,-1.0094,-1.0011,-0.9962,-0.9871,-0.978,-0.9632,-0.9559,-0.9518,-0.9337,-0.8863,-0.847,-0.8402,-0.7948,-0.7468,-0.7468,-0.7407,-0.7339,-0.7339,-0.7203,-0.7158,-0.7158,-0.693,-0.6703,-0.6424,-0.6292,-0.6098,-0.593,-0.5637,-0.5447,-0.5447,-0.5404,-0.5413,-0.5413,-0.542,-0.5447,-0.5447,-0.5502,-0.5561,-0.5583,-0.5588,-0.5621,-0.5686,-0.5691,-0.5691,-0.5691,-0.5739,-0.5806,-0.5812,-0.5926,-0.6013,-1.511,-1.5431,-1.5511,-1.5718,-1.5618,-1.5164,-1.4282,-1.3601,-1.2812,-1.161,-1.1543,-1.1564,-1.0982,-1.2331,-1.3652,-1.4147,0.0,-1.6437,-1.738,-1.6624,-1.6085,-1.6346,-1.532,-1.4593,-1.4593,-1.4432,-1.4401,-1.4665,-1.4432,-1.4515,-1.4898,-1.4744,-1.4779,-1.5095,-1.3839,-1.2539,-1.1199,-1.2069,-1.1803,-1.0488,-1.0341,-1.0145,-0.9846,-0.9791,-0.9618,-0.9382,-0.9382,-0.9161,-0.8885,-0.8885,-0.8885,-0.8885,-0.8885,-0.8885,-0.8885,-0.8885,-0.8885,-0.8885,-0.8885,-0.8885,-0.8838,-0.8608,-0.8431,-0.8323,-0.8354,-0.8194,-0.8022,-0.8022,-0.8008,-0.7961,-0.7875,-0.7841,-0.7814,-0.7685,-0.7645,-0.7631,-0.7631,-0.7611,-0.7597,-0.7597,-0.7402,-0.7214,-0.7214,-0.6932,-0.6649,-0.6455,-0.6322,-0.6207,-0.5972,-0.5675,-0.5529,-0.5529,-0.548,-0.5462,-0.5462,-0.5513,-0.5529,-0.5529,-0.5632,-0.5691,-0.5691,-0.5702,-0.5712,-0.5712,-0.5729,-0.5734,-0.5734,-0.5877,-0.5926,-0.5931,-0.6051,-0.6165,-1.5271,-1.5578,-1.5718,-1.5771,-1.5618,-1.5164,-1.4282,-1.3481,0.0,0.0,-1.0948,-1.072,-1.0327,-1.1752,-1.2896,-1.2778,-1.3938,-1.4951,-1.5029,-1.5066,-1.5163,0.0,-1.4504,-1.3848,-1.3848,-1.2916,0.0,-1.238,-1.2346,-1.2755,-1.3906,-1.297,-1.2397,-1.2492,-1.2217,-1.1749,-1.104,-1.1184,-1.098,-1.0321,-1.0291,-1.0209,-0.9969,-0.9736,-0.9552,-0.9375,-0.9106,-0.894,-0.8885,-0.8885,-0.8885,-0.8885,-0.8885,-0.8885,-0.8885,-0.8885,-0.8885,-0.8885,-0.8885,-0.8885,-0.8851,-0.873,-0.8655,-0.8608,-0.8486,-0.8343,-0.8228,-0.8228,-0.814,-0.7982,-0.7955,-0.7948,-0.7941,-0.7921,-0.7868,-0.7773,-0.7773,-0.7685,-0.7597,-0.7597,-0.7402,-0.7214,-0.7214,-0.6791,-0.6455,-0.6408,-0.6255,-0.6103,-0.6051,-0.585,-0.5659,-0.5659,-0.5637,-0.5626,-0.5626,-0.5648,-0.5659,-0.5659,-0.568,-0.5691,-0.5691,-0.5822,-0.5871,-0.5871,-0.5975,-0.6024,-0.6024,-0.6045,-0.6051,-0.6056,-0.6181,-0.6295,-1.5358,-1.5347,-1.5166,-1.5689,-1.5498,-1.4816,-1.3467,0.0,0.0,0.0,-0.9993,-0.9997,-0.9512,-1.1028,-1.2179,-1.1702,-1.2857,-1.393,-1.4298,-1.3923,-1.381,-1.4328,-1.337,-1.2724,-1.2724,-1.213,-1.1776,-1.1776,-1.1776,-1.2078,-1.2664,-1.1941,-1.1526,-1.1526,-1.1345,-1.1178,-1.0913,-1.077,-1.0576,-1.0201,-1.0113,-0.9918,-0.9674,-0.9559,-0.9418,-0.9273,-0.9105,-0.9008,-0.8885,-0.8885,-0.8885,-0.8885,-0.8885,-0.8885,-0.8885,-0.8885,-0.8885,-0.8885,-0.8885,-0.8885,-0.8871,-0.8797,-0.8777,-0.8696,-0.8621,-0.8499,-0.8377,-0.8377,-0.833,-0.8255,-0.818,-0.816,-0.814,-0.8008,-0.7934,-0.788,-0.788,-0.7875,-0.7779,-0.7641,-0.7392,-0.7143,-0.6997,-0.6657,-0.6409,-0.6409,-0.6262,-0.6181,-0.6181,-0.6029,-0.5915,-0.5915,-0.5915,-0.5915,-0.5915,-0.5915,-0.5915,-0.5915,-0.5915,-0.5915,-0.5915,-0.5969,-0.5996,-0.5996,-0.6056,-0.6083,-0.6083,-0.6149,-0.6181,-0.6187,-0.6301,-0.6059,-1.5123,-1.481,-1.4232,-1.5002,-1.482,-1.4007,-1.2415,-1.1498,0.0,-0.9023,-0.9039,-0.9249,-0.9025,-1.0438,-1.1469,0.0,-1.1903,-1.2881,-1.3372,-1.2698,-1.2376,0.0,-1.2397,0.0,-1.1825,-1.1732,-1.1732,-1.1704,-1.1611,-1.1595,-1.1708,-1.1458,-1.1277,-1.1209,-1.0967,-1.0793,-1.0664,-1.0546,-1.0309,-1.001,-0.9884,-0.969,-0.9429,-0.9429,-0.9347,-0.9262,-0.9262,-0.9137,-0.9028,-0.8994,-0.8988,-0.8981,-0.8898,-0.8885,-0.8885,-0.8885,-0.8885,-0.8885,-0.8885,-0.8885,-0.8885,-0.8885,-0.8804,-0.8757,-0.8757,-0.8655,-0.8533,-0.8533,-0.8506,-0.8459,-0.8343,-0.8368,-0.8275,-0.8126,-0.8042,-0.8029,-0.7995,-0.7939,-0.7846,-0.7646,-0.7341,-0.7042,-0.6842,-0.6592,-0.6387,-0.6387,-0.6361,-0.6306,-0.6306,-0.6219,-0.6159,-0.6159,-0.6116,-0.6083,-0.6083,-0.6083,-0.6083,-0.6083,-0.6083,-0.6083,-0.6083,-0.6111,-0.6127,-0.6127,-0.6149,-0.6159,-0.6159,-0.6257,-0.6306,-0.6306,-0.6145,-0.5596,-1.4231,-1.3952,-1.316,-1.3209,-1.2898,-1.2337,-1.1472,0.0,-0.9231,-0.857,-0.8245,-0.8364,-0.9439,-1.0238,-1.0767,-1.0949,-1.1194,-1.1248,-1.0826,-1.0957,-1.1257,-1.1652,0.0,0.0,-1.1996,-1.1614,-1.14,-1.1503,-1.1119,-1.1035,-1.1337,-1.1337,-1.1148,-1.0846,-1.0853,-1.0664,-1.0368,-1.0354,-1.0165,-0.9802,-0.9788,-0.9713,-0.9591,-0.9591,-0.9503,-0.9361,-0.9361,-0.9354,-0.9327,-0.9248,-0.9187,-0.918,-0.8988,-0.8885,-0.8885,-0.8885,-0.8885,-0.8885,-0.8885,-0.8885,-0.8885,-0.8885,-0.8871,-0.8865,-0.8865,-0.8811,-0.8689,-0.8689,-0.8587,-0.8479,-0.8465,-0.8465,-0.8425,-0.8282,-0.8248,-0.8208,-0.8022,-0.7796,-0.7646,-0.7596,-0.7197,-0.6842,-0.6792,-0.6592,-0.6387,-0.6387,-0.6376,-0.6371,-0.6371,-0.636,-0.6354,-0.6354,-0.6214,-0.6083,-0.6083,-0.6083,-0.6083,-0.6083,-0.6083,-0.6083,-0.6083,-0.624,-0.63,-0.63,-0.635,-0.6354,-0.6354,-0.6365,-0.6371,-0.6371,-0.5381,-0.4875,-1.2881,-1.272,-1.2164,-1.2664,-1.2582,-1.2002,-1.0961,-1.003,-0.9144,-0.8279,-0.7899,-0.7888,-0.8525,-0.8845,-0.9119,-0.934,-0.9504,-0.9619,-0.9764,-1.0087,-1.0566,-1.1248,-1.1419,-1.1577,0.0,-1.1502,-1.1245,-1.1313,-1.1128,-1.0984,-1.0819,-1.0723,-1.0664,-1.049,-1.0308,-1.0126,-1.0004,-1.0004,-0.9943,-0.9822,-0.9822,-0.9788,-0.9734,-0.9734,-0.9659,-0.9517,-0.9517,-0.9462,-0.9374,-0.9313,-0.9296,-0.9207,-0.9089,-0.9015,-0.8885,-0.8885,-0.8885,-0.8885,-0.8885,-0.8885,-0.8885,-0.8885,-0.8885,-0.8885,-0.8885,-0.8844,-0.8845,-0.8845,-0.8804,-0.8737,-0.8642,-0.8554,-0.8465,-0.8411,-0.8397,-0.8332,-0.8065,-0.7898,-0.7743,-0.7434,-0.7176,-0.697,-0.6815,-0.6646,-0.6495,-0.6495,-0.6435,-0.6387,-0.6387,-0.6387,-0.6387,-0.6387,-0.635,-0.6295,-0.6295,-0.6295,-0.6295,-0.6295,-0.6295,-0.6295,-0.6295,-0.6344,-0.6404,-0.648,-0.6524,-0.6584,-0.666,-0.5926,-0.5563,-0.5507,-0.4368,-0.3497,-1.1605,-1.1512,-1.1102,-1.1697,-1.1646,-1.1175,-1.012,-0.9316,-0.8588,-0.7734,-0.7441,-0.7441,-0.7828,-0.809,-0.8299,-0.8522,-0.8696,-0.8944,-0.9418,-0.9746,-1.0257,-1.1053,0.0,-1.1345,-1.1682,-1.137,-1.1082,-1.0919,-1.0912,-1.0776,-1.0363,-1.0251,-1.0175,-1.0126,-0.9943,-0.9822,-0.9822,-0.9822,-0.9822,-0.9822,-0.9822,-0.9822,-0.9822,-0.9822,-0.9768,-0.9673,-0.9673,-0.9612,-0.951,-0.9462,-0.9388,-0.9344,-0.9296,-0.913,-0.9001,-0.9001,-0.8974,-0.8885,-0.8885,-0.8885,-0.8885,-0.8885,-0.8885,-0.8885,-0.8885,-0.8885,-0.8885,-0.8885,-0.8885,-0.8858,-0.8804,-0.8696,-0.8608,-0.856,-0.8547,-0.8434,-0.8072,-0.796,-0.775,-0.727,-0.7112,-0.7006,-0.6854,-0.673,-0.6671,-0.6671,-0.66,-0.6495,-0.6495,-0.6495,-0.6495,-0.6495,-0.6495,-0.6462,-0.6392,-0.6387,-0.6403,-0.6435,-0.6441,-0.6305,-0.5981,-0.6337,-0.6379,-0.6147,-0.6463,-0.6505,-0.6268,-0.5417,-0.4831,-0.4461,-0.3257,-0.2155,-1.0464,-1.0444,-0.9935,-0.9935,-0.9665,-0.9304,-0.876,-0.7893,-0.7111,-0.6794,-0.6703,-0.6951,-0.7745,-0.8402,-0.8886,-0.9148,-0.9363,-0.9516,-0.9591,-0.9933,-1.0416,0.0,-1.1126,-1.1259,-1.1487,-1.1209,-1.0819,-1.0354,-1.0283,-1.0215,-0.9997,-0.9984,-0.9916,-0.9829,-0.9822,-0.9822,-0.9822,-0.9822,-0.9822,-0.9822,-0.9822,-0.9822,-0.9822,-0.9822,-0.9822,-0.9822,-0.9822,-0.9815,-0.9802,-0.9666,-0.9605,-0.9591,-0.9435,-0.9344,-0.9207,-0.9207,-0.9062,-0.8885,-0.8885,-0.8885,-0.8885,-0.8885,-0.8885,-0.8885,-0.8885,-0.8885,-0.8885,-0.8885,-0.8885,-0.8885,-0.8885,-0.8878,-0.8844,-0.8743,-0.871,-0.8562,-0.8098,-0.7802,-0.7539,-0.727,-0.7012,-0.6801,-0.6801,-0.6801,-0.6801,-0.6801,-0.6801,-0.6796,-0.6796,-0.6796,-0.6796,-0.6796,-0.6796,-0.6698,-0.6408,-0.6387,-0.6435,-0.6611,-0.6616,-0.6147,-0.5039,-0.6157,-0.6215,-0.5043,-0.6215,-0.6215,-0.5043,-0.499,-0.4404,-0.3186,-0.211,-0.1056,-0.8418,-0.8782,-0.8939,-0.8571,-0.8438,-0.8326,-0.7936,-0.7443,-0.6999,-0.6747,-0.6696,-0.6822,-0.7233,-0.7425,-0.7822,-0.864,-0.8717,-0.8909,-0.9502,-0.984,-1.0171,-1.0736,-1.105,-1.1119,-1.0948,-1.085,-1.0761,-1.0582,-1.0582,-1.0514,-1.0358,-1.0351,-1.0188,-0.9829,-0.9822,-0.9822,-0.9822,-0.9822,-0.9822,-0.9822,-0.9822,-0.9822,-0.9822,-0.9822,-0.9822,-0.9822,-0.9822,-0.9822,-0.9815,-0.9774,-0.97,-0.9605,-0.9557,-0.9442,-0.9306,-0.9306,-0.9279,-0.9239,-0.9239,-0.9171,-0.9083,-0.9083,-0.9022,-0.8885,-0.8885,-0.8885,-0.8885,-0.8885,-0.8885,-0.8885,-0.8885,-0.8885,-0.8871,-0.8824,-0.8701,-0.8462,-0.8089,-0.781,-0.7537,-0.7259,-0.7149,-0.71,-0.71,-0.698,-0.6926,-0.6926,-0.6855,-0.6801,-0.6801,-0.6801,-0.6801,-0.6801,-0.6056,-0.5869,-0.6588,-0.6687,-0.6334,-0.5579,-0.5527,-0.4962,-0.3822,-0.414,-0.4219,-0.3892,-0.427,-0.432,-0.4033,-0.3192,-0.2198,-0.1027,-0.0689,-0.0347,-0.7309,-0.7813,-0.8237,-0.7967,-0.7886,-0.7821,-0.7464,-0.72,-0.6922,-0.6643,-0.6595,-0.6668,-0.6947,-0.6916,-0.7149,-0.8127,-0.8239,-0.8424,-0.9202,-0.9628,-1.0076,-1.0646,-1.0893,-1.0939,-1.075,-1.0722,-1.0717,-1.0717,-1.0717,-1.0656,-1.05,-1.0493,-1.0337,-1.0005,-0.9992,-0.9964,-0.9849,-0.9849,-0.9876,-0.9822,-0.9822,-0.9822,-0.9822,-0.9822,-0.9822,-0.9822,-0.9822,-0.9822,0.0,-0.9822,-0.9768,-0.9686,-0.9686,-0.9598,-0.9469,-0.9469,-0.9429,-0.9381,-0.9381,-0.932,-0.9296,-0.9296,-0.9137,-0.9022,-0.9022,-0.8981,-0.8885,-0.8885,-0.8885,-0.8885,-0.8885,-0.8885,-0.8885,-0.8885,-0.8712,-0.8429,-0.8048,-0.7771,-0.7493,-0.7265,-0.721,-0.721,-0.721,-0.715,-0.7051,-0.7051,-0.6601,-0.6285,-0.6285,-0.5854,-0.558,-0.558,-0.4928,-0.4766,-0.5526,-0.551,-0.5165,-0.445,-0.4397,-0.3874,-0.2709,-0.3087,-0.3169,-0.2779,-0.3223,-0.3267,-0.2896,-0.168,-0.076,0.0,0.0,0.0,0.0,-0.7382,-0.7699,-0.7829,-0.7764,-0.7577,-0.7207,-0.7033,0.0,-0.6456,-0.6407,-0.6537,-0.6928,-0.6821,-0.688,-0.763,-0.792,-0.8236,-0.8765,-0.9489,-1.0125,-1.0642,-1.0698,-1.0686,-1.0686,-1.0685,-1.0717,-1.0717,-1.0717,-1.0656,-1.0514,-1.0507,-1.0446,-1.0317,-1.031,-1.0229,-1.0004,-1.0004,-0.993,-0.9856,-0.9856,-0.9849,-0.9836,-0.9836,-0.9829,-0.9822,-0.9822,-0.9822,-0.9822,-0.9822,-0.9822,-0.9822,-0.9822,-0.9741,-0.9625,-0.9625,-0.9537,-0.9415,-0.9415,-0.9408,-0.9395,-0.9388,-0.9344,-0.9228,-0.9228,-0.9062,-0.8885,-0.8885,-0.8885,-0.8885,-0.8885,-0.8885,-0.8885,-0.8885,-0.8657,-0.8374,-0.8042,-0.7771,-0.7493,-0.7265,-0.7154,-0.7099,-0.7099,-0.6988,-0.6932,-0.6932,-0.5982,-0.5258,-0.5258,-0.4306,-0.358,-0.358,-0.3525,-0.3469,-0.3469,-0.3314,-0.3219,-0.3273,-0.3278,-0.2808,-0.1738,-0.2744,-0.2819,-0.1722,-0.2754,-0.2774,-0.1644,-0.053,0.0,0.0,0.0,0.0,-0.5609,0.0,-0.6539,-0.6407,-0.6495,-0.6571,0.0,-0.6402,-0.6346,-0.6267,-0.6465,-0.673,-0.7031,-0.7134,-0.7448,-0.8246,-0.8426,-0.8698,-0.9347,-0.9863,-1.0297,-1.0531,-1.063,-1.0681,-1.0681,-1.0677,-1.0717,-1.0717,-1.0717,-1.0704,-1.067,-1.0663,-1.0649,-1.0616,-1.0616,-1.0493,-1.0229,-1.0222,-1.0209,-1.0175,-1.0175,-1.0114,-1.006,-0.9998,-0.9869,-0.9822,-0.9822,-0.9822,-0.9822,-0.9822,-0.9822,-0.9822,-0.9822,-0.9802,-0.9774,-0.9774,-0.9747,-0.972,-0.972,-0.9646,-0.9537,-0.9422,-0.9354,-0.9327,-0.9327,-0.9144,-0.8885,-0.8885,-0.8885,-0.8885,-0.8885,-0.8885,-0.883,-0.8657,-0.8374,-0.8042,-0.7771,-0.7493,-0.7265,-0.721,-0.6432,-0.5815,-0.5815,-0.5035,-0.4474,-0.4474,-0.4195,-0.4027,-0.4027,-0.3748,-0.358,-0.358,-0.2798,-0.2239,-0.2239,-0.2999,-0.31,-0.2225,-0.217,-0.1626,-0.0457,-0.0677,-0.0734,-0.0402,-0.0689,-0.0691,-0.0404,-0.0117,0.0,0.0,0.0,0.0,-0.4998,-0.5539,-0.6145,-0.6104,-0.624,-0.6398,-0.6398,-0.6222,-0.6076,-0.6153,-0.6287,-0.6539,-0.6912,-0.7106,-0.7434,-0.8097,-0.8357,-0.8809,-0.9676,-0.9999,-1.0281,-1.0541,-1.067,-1.0717,-1.0717,-1.0717,-1.0717,-1.0717,-1.0717,-1.0717,-1.0717,-1.0717,-1.0717,-1.0717,-1.0717,-1.0609,-1.0378,-1.0378,-1.0344,-1.0283,-1.0283,-1.0202,-1.0053,-1.012,-1.0032,-0.9822,-0.9897,-0.9883,-0.9822,-0.9822,-0.9822,-0.9822,-0.9822,-0.9822,-0.9822,-0.9822,-0.9822,-0.9822,-0.9822,-0.9344,-0.872,-0.8045,-0.7751,-0.7707,-0.7707,-0.7517,-0.7596,-0.8798,-0.9144,-0.8967,-0.8395,-0.8239,-0.7965,-0.7113,-0.6624,-0.6311,-0.6033,-0.5755,-0.5532,-0.5532,-0.5031,-0.4599,-0.4578,-0.4017,-0.3576,-0.3602,-0.3148,-0.2799,-0.2776,-0.2264,-0.1919,-0.1961,-0.1344,-0.0953,-0.0953,-0.1567,-0.1679,-0.1009,-0.0953,-0.0675,0.0,0.0,0.0,0.0,0.0,0.0,0.0,0.0,0.0,0.0,0.0,0.0,-0.4862,-0.5474,-0.6177,-0.6198,-0.639,-0.6581,-0.6559,-0.625,-0.6014,-0.6154,-0.617,-0.6339,-0.6852,-0.7037,-0.7268,-0.7766,-0.8238,-0.8892,-0.9891,-1.0033,-1.0179,-1.067,-1.0717,-1.0717,-1.0717,-1.0717,-1.0717,-1.0717,-1.0717,-1.0717,-1.0717,-1.0717,-1.0717,-1.0717,-1.0717,-1.0524,-1.0202,-1.0397,-1.0466,-1.0344,-1.0344,-1.0256,-1.0031,-1.0243,-1.0148,-0.9863,-0.993,-0.9848,-0.9544,-0.9707,-0.9572,-0.9207,-0.9451,-0.939,-0.9207,-0.9207,-0.9207,-0.9207,-0.9207,-0.8471,-0.7429,-0.6263,-0.5847,-0.573,-0.573,-0.5673,-0.6025,-0.8266,-0.8826,-0.8561,-0.7386,-0.7138,-0.6717,-0.5283,-0.4719,-0.4392,-0.3999,-0.3774,-0.3608,-0.3608,-0.3439,-0.3341,-0.3332,-0.3167,-0.3063,-0.3041,-0.2167,-0.1515,-0.1547,-0.0629,0.0,0.0,0.0,0.0,0.0,0.0,0.0,0.0,0.0,0.0,0.0,0.0,0.0,0.0,0.0,0.0,0.0,0.0,0.0,0.0,0.0,0.0,-0.5233,-0.5837,-0.6311,-0.5814,-0.6114,-0.6492,-0.6387,-0.6371,-0.6421,-0.6449,-0.6563,-0.6841,-0.7395,-0.7544,-0.7816,-0.8422,-0.8934,-0.9419,-0.9903,-1.0134,-1.0365,-1.0683,-1.0717,-1.0717,-1.0717,-1.0717,-1.0717,-1.0717,-1.0717,-1.0717,-1.0717,-1.0717,-1.0717,-1.0717,-1.0717,-1.0107,-0.8878,-1.0082,-1.0677,-1.0656,-1.0656,-1.0507,-1.0249,-1.0392,-1.0297,-0.9957,-0.9977,-0.9349,-0.8443,-0.9381,-0.8471,-0.663,-0.7734,-0.749,-0.6508,-0.6508,-0.6508,-0.6508,-0.6508,-0.6385,-0.6202,-0.5957,-0.5888,-0.5876,-0.5876,-0.5867,-0.5916,-0.6341,-0.6286,-0.604,-0.5864,-0.5798,-0.561,-0.4794,-0.4555,-0.4373,-0.3791,-0.3617,-0.3617,-0.3617,-0.2801,-0.2103,-0.205,-0.1231,-0.0526,-0.0578,-0.0404,-0.0287,-0.0282,-0.0113,0.0,0.0,0.0,0.0,0.0,0.0,0.0,0.0,0.0,0.0,0.0,0.0,0.0,0.0,0.0,0.0,0.0,0.0,0.0,0.0,0.0,0.0,-0.4986,-0.5576,-0.5918,-0.5162,-0.608,-0.7185,-0.7033,-0.6923,-0.684,-0.6964,-0.704,-0.7051,-0.6771,-0.7446,-0.827,-0.894,-0.9381,-0.9747,-1.012,-1.0304,-1.0473,-1.0697,-1.0717,-1.0717,-1.0717,-1.0717,-1.0717,-1.0717,-1.0717,-1.0717,-1.0717,-0.9981,-0.9576,-0.9576,-0.8773,-0.8035,-0.7436,-0.8035,-0.8374,-0.8374,-0.9178,-0.9013,-0.8065,-0.8241,-0.8096,-0.7817,-0.7949,-0.7529,-0.6964,-0.7475,-0.6996,-0.5957,-0.6569,-0.6446,-0.5896,-0.5896,-0.5896,-0.5774,-0.51,-0.4794,-0.4735,-0.4002,-0.3817,-0.3817,-0.3817,-0.3817,-0.3756,-0.3571,-0.4565,-0.5538,-0.4577,-0.4369,-0.4044,-0.268,-0.2308,-0.2175,-0.1765,-0.1647,-0.1647,-0.1647,-0.1236,-0.0824,-0.0824,-0.0353,0.0,0.0,0.0,0.0,0.0,0.0,0.0,0.0,0.0,0.0,0.0,0.0,0.0,0.0,0.0,0.0,0.0,0.0,0.0,0.0,0.0,0.0,0.0,0.0,0.0,0.0,0.0,0.0,-0.4648,-0.5025,-0.5254,-0.4794,-0.6171,-0.7503,-0.6938,-0.679,-0.6788,-0.6746,-0.6708,-0.6608,-0.624,-0.7244,-0.8278,-0.882,-0.896,-0.9069,-0.9285,-0.978,-0.9992,-0.9703,-1.0319,-1.0452,-0.9782,-0.9981,-1.0047,-0.9715,-0.9709,-0.9709,-0.9709,-0.864,-0.8107,-0.8107,-0.6969,-0.6231,-0.59,-0.6231,-0.6431,-0.6431,-0.7569,-0.745,-0.6177,-0.6328,-0.6283,-0.607,-0.6178,-0.5938,-0.5552,-0.5822,-0.5529,-0.5042,-0.5284,-0.5223,-0.4981,-0.4981,-0.4981,-0.4858,-0.3815,-0.3448,-0.3264,-0.2346,-0.1977,-0.1977,-0.1915,-0.1853,-0.1791,-0.1482,-0.3018,-0.4429,-0.3141,-0.281,-0.2423,-0.0849,-0.0481,-0.0357,-0.006,0.0,0.0,0.0,0.0,0.0,0.0,0.0,0.0,0.0,0.0,0.0,0.0,0.0,0.0,0.0,0.0,0.0,0.0,0.0,0.0,0.0,0.0,0.0,0.0,0.0,0.0,0.0,0.0,0.0,0.0,0.0,0.0,0.0,0.0,0.0,-0.44,-0.4364,-0.427,-0.5362,-0.6368,-0.6667,-0.4848,-0.5236,-0.5756,-0.4881,-0.4716,-0.5111,-0.6412,-0.7072,-0.7453,-0.7555,-0.6908,-0.6473,-0.649,-0.7762,-0.823,-0.6898,-0.9045,-0.9643,-0.6969,-0.7969,-0.8174,-0.6831,-0.6698,-0.6698,-0.6698,-0.6631,-0.6564,-0.6564,-0.6431,-0.5767,-0.4434,-0.5767,-0.6431,-0.6431,-0.6498,-0.6452,-0.6177,-0.6328,-0.6316,-0.6161,-0.6206,-0.5461,-0.4424,-0.5474,-0.449,-0.2407,-0.3571,-0.3325,-0.2284,-0.2284,-0.2284,-0.2284,-0.2162,-0.216,-0.2099,-0.2038,-0.1977,-0.1915,-0.1606,-0.1543,-0.1482,-0.1111,-0.1173,-0.1296,-0.1235,-0.1172,-0.1047,-0.0616,-0.0493,-0.0431,-0.0062,0.0,0.0,0.0,0.0,0.0,0.0,0.0,0.0,0.0,0.0,0.0,0.0,0.0,0.0,0.0,0.0,0.0,0.0,0.0,0.0,0.0,0.0,0.0,0.0,0.0,0.0,0.0,0.0,0.0,0.0,0.0,0.0,0.0,0.0,0.0,-0.3498,-0.3631,-0.3659,-0.3631,-0.4531,-0.5284,-0.4793,-0.569,-0.6308,-0.5281,-0.5095,-0.5262,-0.5793,-0.5504,-0.5475,-0.63,-0.6345,-0.6234,-0.6234,-0.6845,-0.7013,-0.6494,-0.7332,-0.7569,-0.6498,-0.6898,-0.7036,-0.6431,-0.6431,-0.6431,-0.6431,-0.5566,-0.5101,-0.5101,-0.423,-0.3562,-0.3026,-0.3495,-0.3763,-0.383,-0.4699,-0.462,-0.3734,-0.3754,-0.3751,-0.373,-0.3644,-0.3348,-0.2892,-0.3307,-0.2899,-0.2038,-0.2529,-0.2406,-0.1977,-0.1977,-0.1977,-0.1977,-0.1977,-0.1977,-0.1977,-0.1977,-0.1977,-0.1915,-0.1606,-0.1482,-0.1358,-0.0864,-0.0679,-0.0679,-0.0679,-0.0679,-0.0617,-0.0247,-0.0185,-0.0123,0.0,0.0,0.0,0.0,0.0,0.0,0.0,0.0,0.0,0.0,0.0,0.0,0.0,0.0,0.0,0.0,0.0,0.0,0.0,0.0,0.0,0.0,0.0,0.0,0.0,0.0,0.0,0.0,0.0,0.0,0.0,0.0,0.0,0.0,0.0,0.0,-0.2674,-0.2772,-0.2735,-0.2511,-0.3243,-0.3988,-0.3991,-0.4915,-0.5506,-0.4455,-0.4627,-0.4882,-0.4854,-0.4257,-0.4077,-0.504,-0.5043,-0.4919,-0.4919,-0.5411,-0.5547,-0.5063,-0.5829,-0.607,-0.5162,-0.5499,-0.5566,-0.5098,-0.5098,-0.5098,-0.5098,-0.4166,-0.3631,-0.3631,-0.2692,-0.2223,-0.2223,-0.2223,-0.2223,-0.2223,-0.3161,-0.3161,-0.2223,-0.2223,-0.2223,-0.2218,-0.2155,-0.2128,-0.2124,-0.2001,-0.1977,-0.1977,-0.1977,-0.1977,-0.1977,-0.1977,-0.1977,-0.1977,-0.1977,-0.1977,-0.1977,-0.1977,-0.1915,-0.1791,-0.142,-0.1296,-0.105,-0.0494,-0.037,-0.037,-0.037,-0.037,-0.0309,-0.0062,0.0,0.0,0.0,0.0,0.0,0.0,0.0,0.0,0.0,0.0,0.0,0.0,0.0,0.0,0.0,0.0,0.0,0.0,0.0,0.0,0.0,0.0,0.0,0.0,0.0,0.0,0.0,0.0,0.0,0.0,0.0,0.0,0.0,0.0,0.0,0.0,0.0,0.0,-0.1978,-0.1769,-0.1482,-0.2289,-0.2821,-0.2922,-0.1907,-0.2488,-0.293,-0.2007,-0.2758,-0.3577,-0.3694,-0.3704,-0.3664,-0.3662,-0.2719,-0.2019,-0.2018,-0.3254,-0.3689,-0.2236,-0.4601,-0.5287,-0.2486,-0.3427,-0.3696,-0.2289,-0.2221,-0.2221,-0.2221,-0.2223,-0.2223,-0.2223,-0.2223,-0.2223,-0.2223,-0.2223,-0.2223,-0.2223,-0.2223,-0.2223,-0.2223,-0.2223,-0.2223,-0.2218,-0.2157,-0.2128,-0.2124,-0.2001,-0.1977,-0.1977,-0.1977,-0.1977,-0.1977,-0.1977,-0.1977,-0.1977,-0.1977,-0.1977,-0.1977,-0.1977,-0.1791,-0.142,-0.1111,-0.0741,-0.0432,-0.0123,0.0,0.0,0.0,0.0,0.0,0.0,0.0,0.0,0.0,0.0,0.0,0.0,0.0,0.0,0.0,0.0,0.0,0.0,0.0,0.0,0.0,0.0,0.0,0.0,0.0,0.0,0.0,0.0,0.0,0.0,0.0,0.0,0.0,0.0,0.0,0.0,0.0,0.0,0.0,0.0,0.0,0.0,0.0,0.0,-0.1365,-0.1368,-0.1365,-0.1705,-0.2017,-0.2132,-0.1855,-0.2573,-0.3054,-0.2161,-0.2218,-0.2382,-0.2454,-0.2456,-0.2459,-0.2409,-0.2165,-0.2011,-0.1992,-0.2412,-0.2573,-0.211,-0.2836,-0.3053,-0.222,-0.2482,-0.2547,-0.2157,-0.211,-0.2123,-0.2123,-0.2143,-0.2223,-0.2223,-0.2223,-0.2223,-0.2223,-0.2223,-0.2223,-0.2223,-0.2223,-0.2223,-0.2223,-0.2223,-0.2223,-0.222,-0.2113,-0.2083,-0.2124,-0.2001,-0.1977,-0.1978,-0.1999,-0.2005,-0.2005,-0.2005,-0.2005,-0.2003,-0.1984,-0.1977,-0.1977,-0.173,-0.1606,-0.142,-0.0803,-0.0556,-0.0432,-0.0123,0.0,0.0,0.0,0.0,0.0,0.0,0.0,0.0,0.0,0.0,0.0,0.0,0.0,0.0,0.0,0.0,0.0,0.0,0.0,0.0,0.0,0.0,0.0,0.0,0.0,0.0,0.0,0.0,0.0,0.0,0.0,0.0,0.0,0.0,0.0,0.0,0.0,0.0,0.0,0.0,0.0,0.0,0.0,0.0,-0.1226,-0.1343,-0.1428,-0.155,-0.1712,-0.1822,-0.1834,-0.2327,-0.2662,-0.2084,-0.1952,-0.1934,-0.1947,-0.1939,-0.1934,-0.1947,-0.1978,-0.1996,-0.1979,-0.2007,-0.2026,-0.2019,-0.2034,-0.205,-0.2127,-0.2128,-0.2128,-0.2128,-0.208,-0.2097,-0.2109,-0.2127,-0.2142,-0.2221,-0.2223,-0.2223,-0.2223,-0.2223,-0.2223,-0.2223,-0.2223,-0.2223,-0.2223,-0.2223,-0.2223,-0.222,-0.2109,-0.2074,-0.2042,-0.1996,-0.1977,-0.1979,-0.2008,-0.2019,-0.202,-0.2033,-0.2037,-0.2034,-0.2018,-0.2011,-0.2009,-0.1623,-0.1433,-0.1183,-0.0681,-0.0432,-0.0247,-0.0062,0.0,0.0,0.0,0.0,0.0,0.0,0.0,0.0,0.0,0.0,0.0,0.0,0.0,0.0,0.0,0.0,0.0,0.0,0.0,0.0,0.0,0.0,0.0,0.0,0.0,0.0,0.0,0.0,0.0,0.0,0.0,0.0,0.0,0.0,0.0,0.0,0.0,0.0,0.0,0.0,0.0,0.0,0.0,0.0,-0.1427,-0.1536,-0.1628,-0.1689,-0.1733,-0.1847,-0.1906,-0.1933,-0.1943,-0.1971,-0.1955,-0.1944,-0.1971,-0.1954,-0.1944,-0.1973,-0.1977,-0.1977,-0.1977,-0.1977,-0.1986,-0.2011,-0.2015,-0.2026,-0.2053,-0.212,-0.212,-0.212,-0.2123,-0.2072,-0.2099,-0.2104,-0.2117,-0.2213,-0.2213,-0.2214,-0.2217,-0.2217,-0.2218,-0.2223,-0.2223,-0.2223,-0.2223,-0.2223,-0.2223,-0.2218,-0.2155,-0.2048,-0.202,-0.1989,-0.1977,-0.1979,-0.2011,-0.2023,-0.2026,-0.2057,-0.2068,-0.2068,-0.2065,-0.1999,-0.193,-0.1524,-0.1201,-0.0884,-0.056,-0.0248,0.0,0.0,0.0,0.0,0.0,0.0,0.0,0.0,0.0,0.0,0.0,0.0,0.0,0.0,0.0,0.0,0.0,0.0,0.0,0.0,0.0,0.0,0.0,0.0,0.0,0.0,0.0,0.0,0.0,0.0,0.0,0.0,0.0,0.0,0.0,0.0,0.0,0.0,0.0,0.0,0.0,0.0,0.0,0.0,0.0,0.0,-0.1332,-0.1459,-0.16,-0.1684,-0.178,-0.1869,-0.1919,-0.1949,-0.1969,-0.1975,-0.1971,-0.1969,-0.1975,-0.1971,-0.1969,-0.1975,-0.1977,-0.1977,-0.1977,-0.1977,-0.1978,-0.1985,-0.1986,-0.1988,-0.1994,-0.1996,-0.1996,-0.1996,-0.2016,-0.2031,-0.2038,-0.2061,-0.2076,-0.2148,-0.2148,-0.2095,-0.2119,-0.2119,-0.2131,-0.2223,-0.2223,-0.2223,-0.2223,-0.2223,-0.2223,-0.2218,-0.2155,-0.206,-0.205,-0.1997,-0.1977,-0.1982,-0.2034,-0.2054,-0.2059,-0.2089,-0.1903,-0.1703,-0.1619,-0.1483,-0.116,-0.0836,-0.0643,-0.0514,-0.0192,-0.0063,0.0,0.0,0.0,0.0,0.0,0.0,0.0,0.0,0.0,0.0,0.0,0.0,0.0,0.0,0.0,0.0,0.0,0.0,0.0,0.0,0.0,0.0,0.0,0.0,0.0,0.0,0.0,0.0,0.0,0.0,0.0,0.0,0.0,0.0,0.0,0.0,0.0,0.0,0.0,0.0,0.0,0.0,0.0,0.0,0.0,0.0,-0.1369,-0.1489,-0.1618,-0.1722,-0.1806,-0.1872,-0.1903,-0.1933,-0.1955,-0.1955,-0.1966,-0.1977,-0.1977,-0.1977,-0.1977,-0.1977,-0.1977,-0.1977,-0.1977,-0.1977,-0.1977,-0.1977,-0.1977,-0.1977,-0.1977,-0.1977,-0.1977,-0.1977,-0.199,-0.2004,-0.2018,-0.2034,-0.2049,-0.2128,-0.2128,-0.2072,-0.2087,-0.2102,-0.2117,-0.2133,-0.2214,-0.2223,-0.2223,-0.2223,-0.2214,-0.2131,-0.2084,-0.2056,-0.2038,-0.1994,-0.1977,-0.1982,-0.2105,-0.2128,-0.2134,-0.2114,-0.1931,-0.1596,-0.1584,-0.1317,-0.0986,-0.0588,-0.0522,-0.0456,-0.0129,0.0,0.0,0.0,0.0,0.0,0.0,0.0,0.0,0.0,0.0,0.0,0.0,0.0,0.0,0.0,0.0,0.0,0.0,0.0,0.0,0.0,0.0,0.0,0.0,0.0,0.0,0.0,0.0,0.0,0.0,0.0,0.0,0.0,0.0,0.0,0.0,0.0,0.0,0.0,0.0,0.0,0.0,0.0,0.0,0.0,0.0679,0.0987,-0.1397,-0.152,-0.1637,-0.1757,-0.1813,-0.179,-0.1872,-0.1902,-0.1925,-0.193,-0.1955,-0.1977,-0.1977,-0.1977,-0.1977,-0.1977,-0.1977,-0.1977,-0.1977,-0.1977,-0.1977,-0.1977,-0.1977,-0.1977,-0.1977,-0.1977,-0.1977,-0.1977,-0.1977,-0.1986,-0.2009,-0.2011,-0.2023,-0.2112,-0.2113,-0.2052,-0.2056,-0.208,-0.2097,-0.2102,-0.2127,-0.2209,-0.2214,-0.2214,-0.2133,-0.2108,-0.2078,-0.2046,-0.2016,-0.1988,-0.1977,-0.1982,-0.2105,-0.2128,-0.2071,-0.2066,-0.1818,-0.1481,-0.1414,-0.1212,-0.0874,-0.0531,-0.0397,-0.033,-0.0065,0.0,0.0,0.0,0.0,0.0,0.0,0.0,0.0,0.0,0.0,0.0,0.0,0.0,0.0,0.0,0.0,0.0,0.0,0.0,0.0,0.0,0.0,0.0,0.0,0.0,0.0,0.0,0.0,0.0,0.0,0.0,0.0,0.0,0.0,0.0129,0.0323,0.0387,0.051,0.0747,0.0504,0.0378,0.0373,0.063,0.0755,0.0746,0.186,0.2352,-0.1228,-0.141,-0.1656,-0.178,-0.1798,-0.1784,-0.1788,-0.187,-0.1899,-0.1925,-0.1955,-0.1977,-0.1977,-0.1977,-0.1977,-0.1977,-0.1977,-0.1977,-0.1977,-0.1977,-0.1977,-0.1977,-0.1977,-0.1977,-0.1977,-0.1977,-0.1977,-0.1977,-0.1977,-0.1978,-0.1982,-0.1982,-0.1984,-0.1988,-0.1988,-0.2,-0.2024,-0.2029,-0.2044,-0.2069,-0.2138,-0.209,-0.2116,-0.2116,-0.2113,-0.2108,-0.2078,-0.2046,-0.2016,-0.1988,-0.1977,-0.1982,-0.2105,-0.2128,-0.2071,-0.1799,-0.1481,-0.1144,-0.0741,-0.0404,-0.0135,-0.0067,-0.0067,-0.0067,0.0,0.0,0.0,0.0,0.0,0.0,0.0,0.0,0.0,0.0,0.0,0.0,0.0,0.0,0.0,0.0,0.0,0.0,0.0,0.0,0.0,0.0,0.0,0.0,0.0,0.0,0.0,0.0,0.0,0.0,0.0,0.0,0.0,0.0,0.0,0.0516,0.1739,0.1804,0.2443,0.3712,0.2502,0.1797,0.1793,0.3079,0.3719,0.371,0.3789,0.3828,-0.1324,-0.1464,-0.165,-0.1774,-0.1782,-0.1814,-0.1814,-0.1839,-0.1869,-0.1899,-0.193,-0.1956,-0.1974,-0.1977,-0.1977,-0.1977,-0.1977,-0.1977,-0.1977,-0.1977,-0.1977,-0.1977,-0.1977,-0.1977,-0.1977,-0.1977,-0.1977,-0.1977,-0.1977,-0.1977,-0.1977,-0.1977,-0.1977,-0.1977,-0.1977,-0.1982,-0.1994,-0.2011,-0.2034,-0.2128,-0.2128,-0.2071,-0.2083,-0.2083,-0.2075,-0.2059,-0.2063,-0.2038,-0.1994,-0.1982,-0.1977,-0.1982,-0.185,-0.1742,-0.1747,-0.1399,-0.1077,-0.0741,-0.0539,-0.0269,0.0,0.0,0.0,0.0,0.0,0.0,0.0,0.0,0.0,0.0,0.0,0.0,0.0,0.0,0.0,0.0,0.0,0.0,0.0,0.0,0.0,0.0,0.0,0.0,0.0,0.0,0.0,0.0,0.0,0.0,0.0,0.0,0.0,0.0,0.0,0.0,0.0,0.0,0.0,0.0264,0.0924,0.0924,0.1254,0.1848,0.2811,0.3308,0.3346,0.3956,0.4279,0.4313,0.4983,0.5351,-0.135,-0.1451,-0.1583,-0.1722,-0.1738,-0.1776,-0.1791,-0.1812,-0.1839,-0.1877,-0.1904,-0.1932,-0.197,-0.1977,-0.1977,-0.1977,-0.1977,-0.1977,-0.1977,-0.1977,-0.1977,-0.1977,-0.1977,-0.1977,-0.1977,-0.1977,-0.1977,-0.1977,-0.1977,-0.1977,-0.1977,-0.1977,-0.1977,-0.1977,-0.1977,-0.1977,-0.1977,-0.1997,-0.2023,-0.2052,-0.2045,-0.2045,-0.2052,-0.2052,-0.2035,-0.2009,-0.2039,-0.2023,-0.1977,-0.1977,-0.1977,-0.1858,-0.1594,-0.1418,-0.1359,-0.1066,-0.0741,-0.0471,-0.0404,-0.0202,0.0,0.0,0.0,0.0,0.0,0.0,0.0,0.0,0.0,0.0,0.0,0.0,0.0,0.0,0.0,0.0,0.0,0.0,0.0,0.0,0.0,0.0,0.0,0.0,0.0,0.0,0.0,0.0,0.0,0.0,0.0,0.0,0.0,0.0,0.0,0.0,0.0,0.0,0.0,0.0135,0.0538,0.0874,0.1277,0.1614,0.4118,0.5057,0.4293,0.506,0.5384,0.5397,0.6412,0.685,-0.1149,-0.1249,-0.1359,-0.1584,-0.1645,-0.1725,-0.1782,-0.1797,-0.1814,-0.1873,-0.1887,-0.1906,-0.1966,-0.1977,-0.1977,-0.1977,-0.1977,-0.1977,-0.1977,-0.1977,-0.1977,-0.1977,-0.1977,-0.1977,-0.1977,-0.1977,-0.1977,-0.1977,-0.1977,-0.1977,-0.1977,-0.1977,-0.1977,-0.1977,-0.1977,-0.1977,-0.1977,-0.1978,-0.1993,-0.202,-0.1993,-0.1994,-0.202,-0.202,-0.2005,-0.1981,-0.2008,-0.2004,-0.1977,-0.1977,-0.1791,-0.1549,-0.1531,-0.1289,-0.0971,-0.0666,-0.0539,-0.0471,-0.0135,0.0,0.0,0.0,0.0,0.0,0.0,0.0,0.0,0.0,0.0,0.0,0.0,0.0,0.0,0.0,0.0,0.0,0.0,0.0,0.0,0.0,0.0,0.0,0.0,0.0,0.0,0.0,0.0,0.0,0.0,0.0,0.0,0.0,0.0,0.0,0.0,0.0,0.0,0.0,0.0,0.0606,0.195,0.3356,0.4696,0.6038,0.7574,0.7031,0.4283,0.7031,0.8374,0.8363,0.8328,0.828,-0.1039,-0.1171,-0.1352,-0.1518,-0.1581,-0.1659,-0.17,-0.1755,-0.1806,-0.1849,-0.1872,-0.1898,-0.194,-0.1963,-0.1977,-0.1977,-0.1977,-0.1977,-0.1977,-0.1977,-0.1977,-0.1977,-0.1977,-0.1977,-0.1977,-0.1977,-0.1977,-0.1977,-0.1977,-0.1977,-0.1977,-0.1977,-0.1977,-0.1977,-0.1977,-0.1977,-0.1977,-0.1544,-0.1486,-0.1681,-0.1671,-0.1671,-0.1681,-0.1681,-0.1676,-0.1668,-0.1428,-0.1489,-0.1668,-0.142,-0.1296,-0.1177,-0.0957,-0.0775,-0.0648,-0.0333,-0.0202,-0.0135,-0.0067,0.0,0.0,0.0,0.0,0.0,0.0,0.0,0.0,0.0,0.0,0.0,0.0,0.0,0.0,0.0,0.0,0.0,0.0,0.0,0.0,0.0,0.0,0.0,0.0,0.0,0.0,0.0,0.0,0.0,0.0,0.0,0.0,0.0,0.0,0.0,0.0,0.0807,0.1345,0.1345,0.2217,0.2954,0.349,0.4026,0.4562,0.5031,0.6439,0.7178,0.704,0.8117,0.859,0.8584,0.8546,0.8524,-0.0802,-0.0947,-0.1107,-0.1337,-0.141,-0.1472,-0.1681,-0.173,-0.1767,-0.1771,-0.1857,-0.188,-0.191,-0.1933,-0.1952,-0.1973,-0.1977,-0.1977,-0.1977,-0.1977,-0.1977,-0.1977,-0.1977,-0.1977,-0.1977,-0.1977,-0.1977,-0.1977,-0.1977,-0.1977,-0.1977,-0.1977,-0.1977,-0.1853,-0.173,-0.1668,-0.1668,-0.1235,-0.1111,-0.1358,-0.1358,-0.1358,-0.1358,-0.1358,-0.1358,-0.1296,-0.0988,-0.105,-0.1297,-0.1117,-0.0933,-0.0811,-0.0579,-0.0455,-0.0326,-0.0067,0.0,0.0,0.0,0.0,0.0,0.0,0.0,0.0,0.0,0.0,0.0,0.0,0.0,0.0,0.0,0.0,0.0,0.0,0.0,0.0,0.0,0.0,0.0,0.0,0.0404,0.0673,0.0673,0.1143,0.1411,0.1411,0.1411,0.1411,0.1411,0.1411,0.1411,0.1411,0.1411,0.1411,0.1411,0.2284,0.2821,0.2821,0.3758,0.4294,0.4294,0.4763,0.5031,0.5031,0.6439,0.765,0.859,0.859,0.859,0.859,0.859,0.859,0.0,0.0,0.0,-0.1037,-0.1099,-0.1231,-0.1669,-0.1718,-0.169,-0.1755,-0.1779,-0.1788,-0.1879,-0.1885,-0.1906,-0.1966,-0.1975,-0.1975,-0.1977,-0.1977,-0.1977,-0.1977,-0.1977,-0.1977,-0.1977,-0.1977,-0.1977,-0.1977,-0.1977,-0.1977,-0.1977,-0.1977,-0.1853,-0.1482,-0.1173,-0.0988,-0.0988,-0.0988,-0.0988,-0.0988,-0.0988,-0.0988,-0.0988,-0.0988,-0.0988,-0.0988,-0.0618,-0.068,-0.099,-0.0941,-0.0758,-0.0507,-0.0456,-0.0264,0.0,0.0,0.0,0.0,0.0,0.0,0.0,0.0,0.0,0.0,0.0,0.0,0.0,0.0,0.0,0.0,0.0,0.0,0.0,0.0,0.0069,0.0068,0.007,0.0137,0.0135,0.0067,0.1211,0.2151,0.2151,0.3356,0.4294,0.4294,0.4294,0.4294,0.4297,0.4297,0.4297,0.4297,0.4297,0.4297,0.4297,0.4364,0.4364,0.4367,0.4434,0.4434,0.4434,0.5774,0.6447,0.6447,0.7851,0.859,0.859,0.859,0.859,0.859,0.859,0.859,0.1136,0.0,0.0,0.0,0.0,0.0,-0.1058,-0.1091,-0.1178,-0.1391,-0.1469,-0.1599,-0.1782,-0.187,-0.1898,-0.1937,-0.1944,-0.1951,-0.1974,-0.1977,-0.1977,-0.1977,-0.1977,-0.1977,-0.1977,-0.1977,-0.1977,-0.1977,-0.1977,-0.1977,-0.1977,-0.1791,-0.1482,-0.1173,-0.0803,-0.0741,-0.0988,-0.0494,-0.037,-0.0617,-0.0617,-0.0617,-0.0617,-0.0617,-0.0617,-0.0618,-0.0312,-0.0188,-0.0251,-0.0252,-0.0191,-0.0129,-0.0131,-0.0066,0.0,0.0,0.0,0.0,0.0,0.0,0.0,0.0,0.0,0.0,0.0,0.0,0.0,0.0,0.0,0.0,0.0,0.0,0.0,0.0,0.0836,0.1665,0.1677,0.2574,0.3036,0.1778,0.2706,0.3691,0.3691,0.4026,0.4294,0.4294,0.4294,0.4311,0.4422,0.4428,0.4513,0.4558,0.4524,0.4515,0.456,0.5413,0.602,0.6076,0.7048,0.7603,0.7603,0.7942,0.8105,0.8105,0.8432,0.859,0.859,0.859,0.859,0.859,0.859,0.859,0.0,0.0,0.0,0.0,0.0,0.0,-0.0816,-0.0829,-0.094,-0.1241,-0.1318,-0.1442,-0.1733,-0.1817,-0.1843,-0.1885,-0.1904,-0.1928,-0.1971,-0.1977,-0.1977,-0.1977,-0.1977,-0.1977,-0.1977,-0.1977,-0.1977,-0.1977,-0.1977,-0.1915,-0.1791,-0.1358,-0.0988,-0.0803,-0.0494,-0.037,-0.0556,-0.0185,-0.0123,-0.0309,-0.0309,-0.0309,-0.0309,-0.0309,0.0,0.0623,0.0817,0.1206,0.1797,0.1797,0.1097,0.0,0.0,0.0,0.0,0.0,0.0,0.0,0.0,0.0,0.0,0.0,0.0,0.0,0.0,0.0404,0.074,0.0135,0.0404,0.0879,0.0965,0.1386,0.1883,0.1915,0.2681,0.3297,0.3335,0.451,0.5084,0.3437,0.4289,0.5272,0.5171,0.57,0.6116,0.6151,0.6155,0.6186,0.6344,0.6356,0.6375,0.6426,0.6387,0.6375,0.6426,0.7152,0.7626,0.7683,0.8457,0.8884,0.8884,0.8883,0.8845,0.8845,0.8774,0.8715,0.8666,0.8611,0.859,0.859,0.859,0.859,0.0,0.0,0.0,0.0,0.0,0.0,-0.0383,-0.0516,-0.0595,-0.1005,-0.1124,-0.129,-0.166,-0.1676,-0.1698,-0.1693,-0.1734,-0.1838,-0.1963,-0.1974,-0.1977,-0.1977,-0.1977,-0.1977,-0.1977,-0.1977,-0.1977,-0.1977,-0.1977,-0.1791,-0.1482,-0.0864,-0.0494,-0.0432,-0.0185,0.0062,0.0247,0.0247,0.0308,0.0432,0.0432,0.0432,0.0432,0.0433,0.112,0.233,0.2337,0.3081,0.427,0.4276,0.2768,0.0463,0.0469,0.0471,0.0471,0.0471,0.0471,0.0471,0.0471,0.0471,0.0471,0.0471,0.0471,0.0471,0.0471,0.1346,0.2089,0.0878,0.142,0.2449,0.2509,0.3547,0.4525,0.4691,0.486,0.495,0.4921,0.6069,0.6639,0.5312,0.5982,0.6842,0.669,0.7751,0.8666,0.8774,0.8791,0.8834,0.8884,0.89,0.8906,0.8922,0.8911,0.8906,0.8922,0.8911,0.8906,0.8922,0.8922,0.8922,0.8922,0.8906,0.89,0.89,0.889,0.8899,0.8791,0.8682,0.8622,0.8606,0.8606,0.8606,0.0,0.0,0.0,0.0,0.0,0.0,0.2132,0.1615,0.1124,0.0503,-0.0137,-0.069,-0.102,-0.1056,-0.108,-0.1088,-0.1091,-0.1266,-0.1867,-0.1962,-0.1977,-0.1977,-0.1977,-0.1977,-0.1977,-0.1977,-0.1977,-0.1977,-0.173,-0.142,-0.1111,-0.0741,-0.037,-0.0123,-0.0062,0.0494,0.1603,0.1603,0.2096,0.3139,0.3139,0.3139,0.3141,0.3242,0.3452,0.3718,0.3806,0.4052,0.4273,0.4323,0.3942,0.3477,0.3486,0.349,0.349,0.349,0.349,0.349,0.349,0.349,0.349,0.349,0.349,0.349,0.349,0.3722,0.3969,0.3806,0.3988,0.4168,0.4259,0.4432,0.4685,0.4721,0.565,0.6573,0.6536,0.7747,0.8693,0.8303,0.8348,0.8421,0.84,0.8671,0.882,0.8841,0.8847,0.889,0.9014,0.903,0.9133,0.9226,0.9155,0.9133,0.9226,0.915,0.9139,0.9231,0.9237,0.9237,0.9237,0.915,0.903,0.903,0.8933,0.8874,0.8847,0.8825,0.8829,0.8736,0.8736,0.8736,0.0,0.0,0.0,0.3901,0.0,0.0,0.0,0.2644,0.2261,0.1852,0.1362,0.0902,0.0677,0.0593,0.0548,0.0554,0.0696,0.0617,0.017,-0.0823,-0.1508,-0.1508,-0.1508,-0.1508,-0.1508,-0.0911,-0.0489,-0.0493,-0.0185,-0.0247,-0.0741,0.0185,0.0802,0.0987,0.1603,0.2279,0.2956,0.2956,0.3262,0.3876,0.3967,0.3984,0.3984,0.411,0.46,0.5276,0.5288,0.5737,0.644,0.6419,0.6439,0.6305,0.483,0.4294,0.4294,0.4294,0.4294,0.4294,0.4294,0.4313,0.4406,0.4406,0.4428,0.4521,0.4521,0.4544,0.4782,0.551,0.5758,0.5799,0.5838,0.638,0.6925,0.697,0.7562,0.814,0.814,0.8724,0.9285,0.9231,0.9171,0.909,0.89,0.8884,0.89,0.8965,0.8971,0.9014,0.9204,0.922,0.9242,0.9296,0.9253,0.9242,0.9302,0.9253,0.9242,0.9302,0.9302,0.9302,0.9302,0.9247,0.922,0.922,0.916,0.9101,0.8971,0.9101,0.9035,0.8861,0.8861,0.8829,0.0,0.0,0.0,0.0,0.0,0.3711,0.0,0.0,0.0,0.3061,0.2701,0.2393,0.236,0.2218,0.2112,0.2138,0.2392,0.2477,0.2225,0.0767,-0.0287,-0.0406,-0.0351,-0.0294,-0.0352,0.0588,0.1132,0.0974,0.1456,0.1214,-0.0061,0.1478,0.2342,0.2342,0.3396,0.4077,0.4324,0.4336,0.4468,0.4716,0.4837,0.4867,0.4867,0.5006,0.5721,0.6771,0.6784,0.7502,0.859,0.859,0.859,0.8384,0.6034,0.5098,0.5098,0.5098,0.5098,0.5101,0.5181,0.5224,0.5345,0.5361,0.5404,0.5527,0.5541,0.5544,0.5758,0.6964,0.7253,0.7341,0.742,0.8302,0.9188,0.928,0.9302,0.9302,0.9302,0.9302,0.9302,0.9302,0.9302,0.9242,0.8981,0.8949,0.8981,0.9155,0.9166,0.9198,0.9291,0.9302,0.9302,0.9302,0.9302,0.9302,0.9302,0.9302,0.9302,0.9302,0.9302,0.9302,0.9302,0.9302,0.9302,0.9302,0.9302,0.9258,0.9166,0.9258,0.9193,0.8917,0.8917,0.8932,0.0,0.0,0.0,0.0,0.6173,0.0,0.0,0.0,0.4385,0.4011,0.0,0.2841,0.2827,0.0,0.0,0.2623,0.2758,0.2782,0.2488,0.2447,0.2298,0.1804,0.1999,0.2158,0.2014,0.2018,0.1631,0.0884,0.1898,0.2192,0.1325,0.2812,0.3692,0.3692,0.3927,0.4643,0.5831,0.5974,0.6591,0.7679,0.7758,0.7763,0.7768,0.7886,0.8008,0.816,0.8326,0.844,0.859,0.859,0.859,0.8584,0.8251,0.8117,0.8117,0.8117,0.8117,0.8128,0.8236,0.8277,0.8308,0.8411,0.8382,0.8413,0.858,0.8616,0.8632,0.8944,0.9048,0.9048,0.9064,0.9141,0.9291,0.9302,0.9302,0.9302,0.9302,0.9302,0.9302,0.9302,0.9302,0.9296,0.9269,0.9264,0.9269,0.928,0.9285,0.9291,0.9302,0.9302,0.9302,0.9302,0.9302,0.9302,0.9302,0.9302,0.9302,0.9302,0.9302,0.9302,0.9302,0.9302,0.9302,0.9302,0.9302,0.9296,0.9285,0.9296,0.9237,0.9041,0.9041,0.9106,0.0,0.0,0.0,0.0,0.0,0.0,0.5958,0.0,0.5255,0.0,0.0,0.0,0.0,0.0,0.0,0.0,0.4484,0.4539,0.422,0.4497,0.4192,0.2653,0.2638,0.3107,0.4055,0.3944,0.3688,0.3564,0.393,0.3771,0.2878,0.427,0.5046,0.5046,0.5928,0.6665,0.7233,0.7341,0.7655,0.8172,0.8307,0.8339,0.8345,0.8465,0.8519,0.8519,0.8568,0.859,0.859,0.859,0.859,0.8595,0.8666,0.8649,0.859,0.859,0.8633,0.8704,0.8753,0.8861,0.9003,0.9117,0.9155,0.9166,0.922,0.9231,0.9242,0.9291,0.9302,0.9302,0.9302,0.9302,0.9302,0.9302,0.9302,0.9302,0.9302,0.9302,0.9302,0.9302,0.9302,0.9302,0.9302,0.9302,0.9302,0.9302,0.9302,0.9302,0.9302,0.9302,0.9302,0.9302,0.9302,0.9302,0.9302,0.9302,0.9302,0.9302,0.9302,0.9302,0.9302,0.9302,0.9302,0.9302,0.9302,0.9302,0.9302,0.9302,0.928,0.9231,0.9231,0.9198,0.6921,0.0,0.0,0.0,0.0,0.0,0.0,0.0,0.0,0.0,0.0,0.0,0.0,0.0,0.0,0.0,0.0,0.5719,0.5328,0.5627,0.5296,0.3715,0.3746,0.4318,0.5575,0.5378,0.5256,0.5342,0.5465,0.5178,0.4344,0.5637,0.6446,0.65,0.7536,0.8122,0.8155,0.8274,0.8334,0.8334,0.8421,0.8465,0.847,0.8552,0.859,0.859,0.859,0.859,0.859,0.859,0.859,0.8595,0.8687,0.8687,0.8644,0.8677,0.872,0.878,0.8845,0.9008,0.9193,0.9275,0.9302,0.9302,0.9302,0.9302,0.9302,0.9302,0.9302,0.9302,0.9302,0.9302,0.9302,0.9302,0.9302,0.9302,0.9302,0.9302,0.9302,0.9302,0.9302,0.9302,0.9302,0.9302,0.9302,0.9302,0.9302,0.9302,0.9302,0.9302,0.9302,0.9302,0.9302,0.9302,0.9302,0.9302,0.9302,0.9302,0.9302,0.9302,0.9302,0.9302,0.9302,0.9302,0.9302,0.9302,0.9302,0.9302,0.9302,0.9302,0.9302,0.9258,0.0,0.0,0.0,0.6562,0.0,0.0,0.0,0.0,0.6013,0.0,0.0,0.0,0.0,0.0,0.0,0.0,0.0,0.0,0.0,0.5241,0.548,0.5586,0.6011,0.6292,0.6358,0.5946,0.5492,0.5075,0.5785,0.6081,0.5664,0.6921,0.7752,0.804,0.8166,0.8285,0.8405,0.8519,0.8579,0.8579,0.8579,0.8584,0.8584,0.8584,0.859,0.859,0.859,0.859,0.859,0.859,0.859,0.859,0.859,0.8666,0.878,0.8899,0.8867,0.8802,0.9041,0.9198,0.9302,0.9302,0.9302,0.9302,0.9302,0.9302,0.9302,0.9302,0.9302,0.9302,0.9302,0.9302,0.9302,0.9302,0.9302,0.9302,0.9302,0.9302,0.9302,0.9302,0.9302,0.9302,0.9302,0.9302,0.9302,0.9302,0.9302,0.9302,0.9302,0.9302,0.9302,0.9302,0.9302,0.9302,0.9302,0.9302,0.9302,0.9302,0.9302,0.9302,0.9302,0.9302,0.9302,0.9302,0.9302,0.9302,0.9302,0.9302,0.9302,0.9302,0.9302,0.9302,0.721,0.721,0.7133,0.6757,0.6505,0.0,0.0,0.0,0.0,0.0,0.0,0.0,0.0,0.0,0.0,0.0,0.0,0.0,0.0,0.5148,0.5306,0.0,0.0,0.0,0.6083,0.5937,0.5889,0.6066,0.6239,0.6469,0.6727,0.7422,0.785,0.7993,0.8209,0.8378,0.8416,0.853,0.859,0.859,0.859,0.859,0.859,0.859,0.859,0.859,0.859,0.859,0.859,0.859,0.859,0.8595,0.8677,0.8736,0.8774,0.8818,0.8905,0.9035,0.9193,0.9269,0.9302,0.9302,0.9302,0.9302,0.9302,0.9302,0.9302,0.9302,0.9302,0.9302,0.9302,0.9302,0.9302,0.9302,0.9302,0.9302,0.9302,0.9302,0.9302,0.9302,0.9302,0.9302,0.9302,0.9302,0.9302,0.9302,0.9302,0.9302,0.9302,0.9302,0.9302,0.9302,0.9302,0.9302,0.9302,0.9302,0.9302,0.9302,0.9302,0.9302,0.9302,0.9302,0.9302,0.9302,0.9302,0.9302,0.9302,0.9302,0.9302,0.9302,0.9302,0.9302,0.721,0.721,0.7155,0.6861,0.6681,0.6491,0.6214,0.0,0.623,0.0,0.0,0.0,0.0,0.0,0.0,0.0,0.0,0.0,0.0,0.5116,0.0,0.0,0.0,0.0,0.0,0.5714,0.5877,0.6567,0.6388,0.6516,0.7239,0.7638,0.785,0.7993,0.8247,0.8437,0.8475,0.8552,0.859,0.859,0.859,0.859,0.859,0.859,0.859,0.859,0.859,0.859,0.859,0.8633,0.8628,0.8606,0.8769,0.8834,0.884,0.8883,0.9024,0.9204,0.928,0.9302,0.9302,0.9302,0.9302,0.9302,0.9302,0.9302,0.9302,0.9302,0.9302,0.9302,0.9302,0.9302,0.9302,0.9302,0.9302,0.9302,0.9302,0.9302,0.9302,0.9302,0.9302,0.9302,0.9302,0.9302,0.9302,0.9302,0.9302,0.9302,0.9302,0.9302,0.9302,0.9302,0.9302,0.9302,0.9302,0.9302,0.9302,0.9302,0.9302,0.9302,0.9302,0.9302,0.9302,0.9302,0.9302,0.9302,0.9302,0.9302,0.9302,0.9302,0.9302,0.9302]},{"header":{"parameterUnit":"m.s-1","parameterCategory":1,"la1":30.6,"la2":29.2853,"lo1":-89.7004,"lo2":-87.6739,"dy":0.0162,"dx":0.0183,"nx":112,"ny":82,"refTime":"2024-09-17T12:00:00:Z","depth":0,"parameterNumber":3,"parameterNumberName":"V-component_of_WINDS"},"data":[0.0,0.0,0.0,0.0,0.0,0.0,0.0,0.0,0.0,0.0,0.0,0.0,0.0,0.0,0.0,0.0,0.0,0.0,0.0,0.0,0.0,0.0,0.0,0.0,0.0,0.0,0.0,0.0,0.0,0.0,0.0,0.0,0.0,0.0,0.0,0.0,0.0,0.0,0.0,0.0,0.0,0.0,0.0,0.0,0.0,0.0,0.0,0.0,0.0,0.0,0.0,0.0,0.0,0.0,0.0,0.0,0.0,0.0,0.0,0.0,0.0,0.0,0.0,0.0,0.0,0.0,0.0,0.0,0.0,0.0,0.0,0.0,0.0,0.0,0.0,0.0,0.0,0.0,0.0,0.0,0.0,0.0,0.0,0.0,0.0,0.0,0.0,0.0,0.0,0.0,1.8085,2.0675,2.3648,2.5089,2.4249,2.4226,2.2264,1.7608,0.0,0.0,0.0,0.0,0.0,0.0,0.0,0.0,0.0,0.0,0.0,0.0,0.0,0.0,0.0,0.0,0.0,0.0,0.0,0.0,0.0,0.0,0.0,0.0,0.0,0.0,0.0,0.0,0.0,0.0,0.0,0.0,0.0,0.0,0.0,0.0,0.0,0.0,0.0,0.0,0.0,0.0,0.0,0.0,0.0,0.0,0.0,0.0,0.0,0.0,0.0,0.0,0.0,0.0,0.0,0.0,0.0,0.0,0.0,0.0,0.0,0.0,0.0,0.0,0.0,0.0,0.0,0.0,0.0,0.0,0.0,0.0,0.0,0.0,0.0,0.0,0.0,0.0,0.0,0.0,0.0,0.0,0.0,0.0,0.0,0.0,0.0,0.0,0.0,0.0,0.0,0.0,0.0,0.0,0.0,0.0,0.0,0.0,0.0,0.0,0.0,0.0,0.0,0.0,1.8726,2.2993,2.448,2.5107,2.4927,2.3835,2.1756,1.85,0.0,0.0,0.0,0.0,0.0,0.0,0.0,0.0,0.0,0.0,0.0,0.0,0.0,0.0,0.0,0.0,0.0,0.0,0.0,0.0,0.0,0.0,0.0,0.0,0.0,0.0,0.0,0.0,0.0,0.0,0.0,0.0,0.0,0.0,0.0,0.0,0.0,0.0,0.0,0.0,0.0,0.0,0.0,0.0,0.0,0.0,0.0,0.0,0.0,0.0,0.0,0.0,0.0,0.0,0.0,0.0,0.0,0.0,0.0,0.0,0.0,0.0,0.0,0.0,0.0,0.0,0.0,0.0,0.0,0.0,0.0,0.0,0.0,0.0,0.0,0.0,0.0,0.0,0.0,0.0,0.0,0.0,0.0,0.0,0.0,0.0,0.0,0.0,0.0,0.0,0.0,0.0,0.0,0.0,0.0,0.0,0.0,0.0,0.0,0.0,0.0,0.0,0.0,1.8174,1.9937,2.3209,2.4323,2.4641,2.4111,2.3167,2.1331,1.8315,1.7502,0.0,0.0,0.0,0.0,0.0,0.0,0.0,0.0,0.0,0.0,0.0,0.0,0.0,0.0,0.0,0.0,0.0,0.0,0.0,0.0,0.0,0.0,0.0,0.0,0.0,0.0,0.0,0.0,0.0,0.0,0.0,0.0,0.0,0.0,0.0,0.0,0.0,0.0,0.0,0.0,0.0,0.0,0.0,0.0,0.0,0.0,0.0,0.0,0.0,0.0,0.0,0.0,0.0,0.0,0.0,0.0,0.0,0.0,0.0,0.0,0.0,0.0,0.0,0.0,0.0,0.0,0.0,0.0,0.0,0.0,0.0,0.0,0.0,0.0,0.0,0.0,0.0,0.0,0.0,0.0,0.0,0.0,0.0,0.0,0.0,0.0,0.0,0.0,0.0,0.0,0.0,0.0,0.0,0.0,0.0,0.0,0.0,0.0,0.0,0.0,0.0,0.0,1.9968,2.1062,2.3095,2.3939,2.4071,2.3346,2.2431,2.0705,1.7963,1.6821,0.0,0.0,0.0,0.0,0.0,0.0,0.0,0.0,0.0,0.0,0.0,0.0,0.0,0.0,0.0,0.0,0.0,0.0,0.0,0.0,0.0,0.0,0.0,0.0,0.0,0.0,0.0,0.0,0.0,0.0,0.0,0.0,0.0,0.0,0.0,0.0,0.0,0.0,0.0,0.0,0.0,0.0,0.0,0.0,0.0,0.0,0.0,0.0,0.0,0.0,0.0,0.0,0.0,0.0,0.0,0.0,0.0,0.0,0.0,0.0,0.0,0.0,0.0,0.0,0.0,0.0,0.0,0.0,0.0,0.0,0.0,0.0,0.0,0.0,0.0,0.0,0.0,0.0,0.0,0.0,0.0,0.0,0.0,0.0,0.0,0.0,0.0,0.0,0.0,0.0,0.0,0.0,0.0,0.0,0.0,0.0,0.0,0.0,0.0,0.0,0.0,0.0,1.9877,2.1812,2.3409,2.3613,2.3662,2.3579,2.1587,1.9629,1.7929,1.5818,0.0,0.0,0.0,0.0,0.0,0.0,0.0,0.0,0.0,0.0,0.0,0.0,0.0,0.0,0.0,0.0,0.0,0.0,0.0,0.0,0.0,0.0,0.0,0.0,0.0,0.0,0.0,0.0,0.0,0.0,0.0,0.0,0.0,0.0,0.0,0.0,0.0,0.0,0.0,0.0,0.0,0.0,0.0,0.0,0.0,0.0,0.0,0.0,0.0,0.0,0.0,0.0,0.0,0.0,0.0,0.0,0.0,0.0,0.0,0.0,0.0,0.0,0.0,0.0,0.0,0.0,0.0,0.0,0.0,0.0,0.0,0.0,0.0,0.0,0.0,0.0,0.0,0.0,0.0,0.0,0.0,0.0,0.0,0.0,0.0,0.0,0.0,0.0,0.0,0.0,0.0,0.0,0.0,0.0,0.0,0.0,0.0,0.0,0.0,0.0,0.0,0.0,1.9314,2.0913,0.0,2.3201,2.3041,2.2427,2.1262,1.9657,1.7515,0.0,0.0,0.0,0.0,0.0,0.0,0.0,0.0,0.0,0.0,0.0,0.0,0.0,0.0,0.0,0.0,0.0,0.0,0.0,0.0,0.0,0.0,0.0,0.0,0.0,0.0,0.0,0.0,0.0,0.0,0.0,0.0,0.0,0.0,0.0,0.0,0.0,0.0,0.0,0.0,0.0,0.0,0.0,0.0,0.0,0.0,0.0,0.0,0.0,0.0,0.0,0.0,0.0,0.0,0.0,0.0,0.0,0.0,0.0,0.0,0.0,0.0,0.0,0.0,0.0,0.0,0.0,0.0,0.0,0.0,0.0,0.0,0.0,0.0,0.0,0.0,0.0,0.0,0.0,0.0,0.0,0.0,0.0,0.0,0.0,0.0,0.0,0.0,0.0,0.0,0.0,0.0,0.0,0.0,0.0,0.0,0.0,0.0,0.0,0.0,0.0,0.0,1.7676,1.9105,2.0487,0.0,2.2525,2.2375,2.144,2.0578,1.9139,1.6915,0.0,0.0,0.0,0.0,0.0,0.0,0.0,0.0,0.0,0.0,0.0,0.0,0.0,0.0,0.0,0.0,0.0,0.0,0.0,0.0,0.0,0.0,0.0,0.0,0.0,0.0,0.0,0.0,0.0,0.0,0.0,0.0,0.0,0.0,0.0,0.0,0.0,0.0,0.0,0.0,0.0,0.0,0.0,0.0,0.0,0.0,0.0,0.0,0.0,0.0,0.0,0.0,0.0,0.0,0.0,0.0,0.0,0.0,0.0,0.0,0.0,0.0,0.0,0.0,0.0,0.0,0.0,0.0,0.0,0.0,0.0,0.0,0.0,0.0,0.0,0.0,0.0,0.0,0.0,0.0,0.0,0.0,0.0,0.0,0.0,0.0,0.0,0.0,0.0,0.0,0.0,0.0,0.0,0.0,0.0,0.0,0.0,0.0,0.0,0.0,0.0,0.0,1.7026,1.9283,2.0807,2.0842,2.1533,2.1685,2.0877,1.9401,1.7826,0.0,0.0,0.0,0.0,0.0,0.0,0.0,0.0,0.0,0.0,0.0,0.0,0.0,0.0,0.0,0.0,0.0,0.0,0.0,0.0,0.0,0.0,0.0,0.0,0.0,0.0,0.0,0.0,0.0,0.0,0.0,0.0,0.0,0.0,0.0,0.0,0.0,0.0,0.0,0.0,0.0,0.0,0.0,0.0,0.0,0.0,0.0,0.0,0.0,0.0,0.0,0.0,0.0,0.0,0.0,0.0,0.0,0.0,0.0,0.0,0.0,0.0,0.0,0.0,0.0,0.0,0.0,0.0,0.0,0.0,0.0,0.0,0.0,0.0,0.0,0.0,0.0,0.0,0.0,0.0,0.0,0.0,0.0,0.0,0.0,0.0,0.0,0.0,0.0,0.0,0.0,0.0,0.0,0.0,0.0,0.0,0.0,0.0,0.0,0.0,0.0,0.0,0.0,1.7928,1.9686,2.1217,2.2329,2.2258,2.1839,2.1089,2.0194,1.8788,1.6578,0.0,0.0,0.0,0.0,0.0,0.0,0.0,0.0,0.0,0.0,0.0,0.0,0.0,0.0,0.0,0.0,0.0,0.0,0.0,0.0,0.0,0.0,0.0,0.0,0.0,0.0,0.0,0.0,0.0,0.0,0.0,0.0,0.0,0.0,0.0,0.0,0.0,0.0,0.0,0.0,0.0,0.0,0.0,0.0,0.0,0.0,0.0,0.0,0.0,0.0,0.0,0.0,0.0,0.0,0.0,0.0,0.0,0.0,0.0,0.0,0.0,0.0,0.0,0.0,0.0,0.0,0.0,0.0,0.0,0.0,0.0,0.0,0.0,0.0,0.0,0.0,0.0,0.0,0.0,0.0,0.0,0.0,0.0,0.0,0.0,0.0,0.0,0.0,0.0,0.0,0.0,0.0,0.0,0.0,0.0,0.0,0.0,0.0,0.0,0.0,0.0,0.0,1.8074,2.0129,2.1761,2.238,2.2393,2.2057,2.1326,2.0635,1.9218,1.6885,0.0,0.0,0.0,0.0,0.0,0.0,0.0,0.0,0.0,0.0,0.0,0.0,0.0,0.0,0.0,0.0,0.0,0.0,0.0,0.0,0.0,0.0,0.0,0.0,0.0,0.0,0.0,0.0,0.0,0.0,0.0,0.0,0.0,0.0,0.0,0.0,0.0,0.0,0.0,0.0,0.0,0.0,0.0,0.0,0.0,0.0,0.0,0.0,0.0,0.0,0.0,0.0,0.0,0.0,0.0,0.0,0.0,0.0,0.0,0.0,0.0,0.0,0.0,0.0,0.0,0.0,0.0,0.0,0.0,0.0,0.0,0.0,0.0,0.0,0.0,0.0,0.0,0.0,0.0,0.0,0.0,0.0,0.0,0.0,0.0,0.0,0.0,0.0,0.0,0.0,0.0,0.0,0.0,0.0,0.0,0.0,0.0,0.0,0.0,0.0,0.0,0.0,1.789,2.0644,2.2395,2.186,2.2306,2.2361,2.1698,2.0914,1.953,1.7286,0.0,0.0,0.0,0.0,0.0,0.0,0.0,0.0,0.0,0.0,0.0,0.0,0.0,0.0,0.0,0.0,0.0,0.0,0.0,0.0,0.0,0.0,0.0,0.0,0.0,0.0,0.0,0.0,0.0,0.0,0.0,0.0,0.0,0.0,0.0,0.0,0.0,0.0,0.0,0.0,0.0,0.0,0.0,0.0,0.0,0.0,0.0,0.0,0.0,0.0,0.0,0.0,0.0,0.0,0.0,0.0,0.0,0.0,0.0,0.0,1.5269,1.3786,0.0,0.0,0.0,0.0,0.0,0.0,0.0,0.0,0.0,0.0,0.0,0.0,0.0,0.0,0.0,0.0,0.0,0.0,0.0,0.0,0.0,0.0,0.0,0.0,0.0,0.0,0.0,0.0,0.0,0.0,0.0,0.0,0.0,0.0,0.0,0.0,0.0,0.0,0.0,0.0,1.9407,2.1369,2.3002,2.4127,2.3412,2.2786,2.2694,2.2083,2.0953,1.9149,1.8304,0.0,0.0,0.0,0.0,0.0,0.0,0.0,0.0,0.0,0.0,0.0,0.0,0.0,0.0,0.0,0.0,0.0,0.0,0.0,0.0,0.0,0.0,0.0,0.0,0.0,0.0,0.0,0.0,0.0,0.0,0.0,0.0,0.0,0.0,0.0,0.0,0.0,0.0,0.0,0.0,0.0,0.0,0.0,0.0,0.0,0.0,0.0,0.0,0.0,0.0,0.0,0.0,0.0,0.0,0.0,0.0,0.0,0.0,0.0,1.905,1.7328,0.0,0.0,0.0,0.0,0.0,0.0,0.0,0.0,0.0,0.0,0.0,0.0,0.0,0.0,0.0,0.0,0.0,0.0,0.0,0.0,0.0,0.0,0.0,0.0,0.0,0.0,0.0,0.0,0.0,0.0,0.0,0.0,0.0,0.0,0.0,0.0,0.0,0.0,0.0,0.0,2.0572,2.2383,2.3998,2.5191,2.4358,2.3701,2.3762,2.3127,2.2182,2.0963,2.0144,0.0,0.0,0.0,0.0,0.0,0.0,0.0,0.0,0.0,0.0,0.0,0.0,0.0,0.0,0.0,0.0,0.0,0.0,0.0,0.0,0.0,0.0,0.0,0.0,0.0,0.0,0.0,0.0,0.0,0.0,0.0,0.0,0.0,0.0,0.0,0.0,0.0,0.0,0.0,0.0,0.0,0.0,0.0,0.0,0.0,0.0,0.0,0.0,0.0,0.0,0.0,0.0,0.0,2.4769,2.5834,2.7656,2.6505,2.6799,2.7936,2.345,2.1848,2.2208,1.9405,0.0,0.0,0.0,0.0,0.0,0.0,0.0,0.0,0.0,0.0,0.0,0.0,0.0,0.0,0.0,0.0,0.0,0.0,0.0,0.0,0.0,0.0,2.2412,2.2502,2.3499,2.3344,1.9485,0.0,0.0,0.0,0.0,0.0,0.0,0.0,0.0,0.0,0.0,0.0,2.1789,2.3721,2.5169,2.5838,2.5215,2.4691,2.4609,2.3982,2.3303,2.2546,2.1816,2.0664,0.0,0.0,0.0,0.0,0.0,0.0,0.0,0.0,0.0,0.0,0.0,0.0,0.0,0.0,0.0,0.0,0.0,0.0,0.0,0.0,0.0,0.0,0.0,0.0,0.0,0.0,0.0,0.0,0.0,0.0,0.0,0.0,1.5539,1.7597,0.0,0.0,0.0,0.0,0.0,0.0,0.0,0.0,0.0,0.0,0.0,0.0,0.0,2.4041,2.6739,2.7043,2.839,3.0748,3.0802,3.1028,3.1323,3.1133,3.1185,3.1324,3.0033,0.0,2.4796,2.3042,0.0,0.0,0.0,0.0,0.0,0.0,0.0,0.0,0.0,0.0,0.0,0.0,0.0,0.0,0.0,0.0,0.0,0.0,0.0,0.0,0.0,0.0,2.7015,2.6376,2.6376,2.633,2.5727,2.27,1.979,1.8739,1.814,1.7249,0.0,0.0,0.0,0.0,0.0,0.0,2.3712,2.5514,2.6609,2.6721,2.6051,2.5342,2.4568,2.4522,2.415,2.3326,2.3184,2.2417,2.0721,1.9182,0.0,0.0,0.0,0.0,0.0,0.0,0.0,0.0,0.0,0.0,0.0,0.0,0.0,0.0,0.0,0.0,0.0,0.0,0.0,0.0,0.0,0.0,0.0,0.0,0.0,0.0,0.0,0.0,0.0,1.6352,1.8793,1.9938,1.969,1.9598,0.0,0.0,0.0,0.0,0.0,0.0,0.0,0.0,0.0,2.6189,2.7776,2.9332,3.0759,3.1242,3.2057,3.3175,3.3212,3.3269,3.3341,3.3341,3.3341,3.3325,3.3086,3.1931,2.9951,2.6929,2.5033,2.397,0.0,0.0,0.0,0.0,2.3325,2.3361,2.4338,2.4468,2.4057,2.3327,0.0,0.0,0.0,0.0,0.0,0.0,0.0,2.4308,2.5314,2.6757,2.7991,2.8262,2.8319,2.8319,2.8319,2.6412,2.4211,2.2416,2.2035,2.1061,1.8094,1.7956,0.0,0.0,0.0,2.2838,2.5318,2.6394,2.7055,2.7538,2.6888,2.6284,2.5929,2.5991,2.5697,2.4853,2.4872,2.4152,2.2461,2.1253,2.0051,0.0,0.0,0.0,0.0,0.0,0.0,0.0,0.0,0.0,0.0,0.0,0.0,0.0,0.0,0.0,0.0,0.0,0.0,0.0,0.0,0.0,0.0,0.0,0.0,0.0,0.0,0.0,0.0,1.9133,2.1366,2.182,2.2502,2.2906,0.0,0.0,0.0,0.0,0.0,0.0,2.5925,2.8785,3.0551,3.0972,3.28,3.3869,3.4076,3.4683,3.5082,3.5336,3.5336,3.5376,3.5471,3.5298,3.5253,3.5335,3.4996,3.4746,3.426,3.0568,2.8541,2.7698,2.712,2.6417,2.5853,2.6824,2.682,2.6518,2.7948,2.8276,2.7924,2.6845,2.604,2.5158,2.3417,0.0,0.0,0.0,0.0,2.603,2.7048,2.7743,2.8392,2.9217,2.9396,2.9396,2.9396,2.8835,2.7709,2.568,2.5414,2.4571,2.1391,2.1372,0.0,2.1687,0.0,2.4718,2.673,2.7321,2.7687,2.8059,2.7585,2.7158,2.701,2.7056,2.683,2.6238,2.6064,2.5421,2.4189,2.3138,2.2192,2.1335,0.0,0.0,0.0,0.0,0.0,0.0,0.0,0.0,0.0,0.0,0.0,0.0,0.0,0.0,0.0,0.0,0.0,0.0,0.0,0.0,0.0,0.0,0.0,0.0,0.0,0.0,0.0,0.0,0.0,2.3584,2.4769,0.0,0.0,0.0,0.0,2.7819,2.8077,2.9403,3.2264,3.3352,3.418,3.4869,3.5697,3.649,3.7271,3.7305,3.7685,3.8375,3.8375,3.8375,3.8375,3.765,3.754,3.7827,3.6434,3.6042,3.6181,3.3681,3.1951,3.0793,3.001,2.921,2.8579,2.9354,2.9608,2.9706,3.0821,3.0699,3.0073,3.0265,2.8603,2.6501,2.6401,2.5717,0.0,0.0,2.7033,2.79,2.8963,2.9275,2.9312,2.9396,2.9396,2.9396,2.9396,2.9163,2.8769,2.8046,2.7296,2.6431,2.5279,0.0,2.514,2.514,2.5886,2.6804,2.788,2.8765,2.8951,2.817,2.8135,2.7829,2.7047,2.7009,2.7017,2.7062,2.6322,2.5906,2.5888,2.4309,2.3062,2.2267,2.0576,0.0,0.0,0.0,0.0,0.0,0.0,0.0,0.0,0.0,0.0,0.0,0.0,0.0,0.0,0.0,0.0,0.0,0.0,0.0,0.0,0.0,0.0,0.0,0.0,0.0,0.0,0.0,0.0,2.73,2.875,0.0,3.0058,3.0005,3.0538,3.1972,3.2938,3.3938,3.5042,3.6284,3.7318,3.8077,3.8353,3.887,3.9687,3.9146,3.9043,3.9284,3.8836,3.8772,3.9041,3.8796,3.8872,3.9222,3.8251,3.8061,3.835,3.7039,3.552,3.3987,3.3972,3.314,3.2017,3.2477,3.1986,3.1137,3.1515,3.1464,3.1265,3.1333,3.0368,2.9275,2.9794,2.9343,2.8709,2.9069,2.9376,2.9572,2.946,2.9396,2.9396,2.9396,2.9396,2.9396,2.9396,2.9334,2.9191,2.8977,2.8577,2.7838,2.6588,2.6783,2.6968,2.6449,2.7042,2.7887,2.8839,2.9211,2.9258,2.8991,2.8964,2.8882,2.8623,2.8185,2.7651,2.7136,2.6393,2.5713,2.5196,2.4595,2.4144,2.3844,2.2294,2.0509,0.0,0.0,0.0,0.0,0.0,0.0,0.0,0.0,0.0,0.0,0.0,0.0,0.0,0.0,0.0,0.0,0.0,0.0,0.0,0.0,0.0,0.0,0.0,0.0,0.0,2.693,2.9246,3.0386,3.2187,3.3521,3.4049,3.4216,3.4608,3.5407,3.671,3.7506,3.7443,3.8785,3.9846,4.048,4.0457,4.0836,4.1654,4.0871,4.055,4.0712,3.9948,3.9743,4.0046,3.9967,4.005,4.0221,3.9714,3.9711,4.0008,3.9318,3.8303,3.7119,3.6889,3.5956,3.4753,3.4674,3.3968,3.3001,3.2704,3.2444,3.2184,3.2184,3.1663,3.1106,3.1626,3.144,3.0995,3.0995,3.0995,3.0809,2.9991,2.9805,2.9731,2.9471,2.9396,2.9396,2.9396,2.9396,2.9396,2.9396,2.9243,2.8856,2.789,2.817,2.8356,2.7836,2.8207,2.8765,2.9322,2.9396,2.9417,2.9421,2.9384,2.9451,2.9474,2.8792,2.8147,2.7557,2.6543,2.5713,2.5158,2.4595,2.4407,2.47,2.3511,2.2205,2.0847,0.0,0.0,0.0,0.0,0.0,0.0,0.0,0.0,0.0,0.0,0.0,0.0,0.0,0.0,0.0,0.0,0.0,0.0,0.0,0.0,0.0,0.0,0.0,2.5879,2.9324,3.2141,3.2648,3.4913,3.6472,3.6648,3.6964,3.749,3.8259,3.94,4.0005,3.9882,4.0961,4.1752,4.2082,4.2082,4.2462,4.3222,4.2462,4.2298,4.274,4.1955,4.1569,4.1556,4.1268,4.1114,4.1062,4.0782,4.0873,4.1167,4.0449,4.0193,4.0081,3.8521,3.7448,3.6643,3.5863,3.5566,3.5417,3.455,3.3733,3.3076,3.3027,3.2481,3.1849,3.1886,3.1849,3.1849,3.1849,3.1849,3.1663,3.0846,3.0623,3.0437,2.9619,2.9444,2.9434,2.9407,2.9396,2.9396,2.9396,2.9396,2.9396,2.9396,2.9396,2.9396,2.9396,2.9396,0.0,2.9396,2.9396,2.9417,2.9421,2.9384,2.9414,2.9511,2.8764,2.8334,2.8353,2.6817,2.5943,2.6,2.4422,2.3979,2.4768,2.4151,2.3549,2.2977,0.0,0.0,0.0,0.0,0.0,0.0,0.0,0.0,0.0,0.0,0.0,0.0,0.0,0.0,0.0,0.0,0.0,0.0,0.0,0.0,0.0,3.0879,3.3534,3.2704,3.4034,3.5599,3.6898,3.8157,3.9365,4.0581,4.0788,4.1385,4.2718,4.3144,4.328,4.3235,4.3571,4.3806,4.3886,4.3886,4.3992,4.4205,4.3992,4.3787,4.3558,4.3107,4.2868,4.2789,4.2514,4.2575,4.2759,4.2133,4.1939,4.1997,4.1261,4.1043,4.097,3.9355,3.8248,3.7522,3.7299,3.6853,3.6272,3.5417,3.5008,3.4711,3.4079,3.3324,3.2778,3.3361,3.315,3.2667,3.2667,3.2667,3.2481,3.1663,3.1478,3.1255,3.0474,3.0251,3.0103,2.9508,2.9396,2.9396,2.9396,2.9396,2.9396,2.9396,2.9396,2.9396,2.9396,2.9396,2.9396,2.9396,2.9396,2.9417,2.9421,2.9424,2.9511,2.956,2.8839,2.8117,2.7581,2.6531,2.5984,2.6,2.5635,2.5918,2.6916,2.5532,2.4763,0.0,0.0,0.0,0.0,0.0,0.0,0.0,0.0,0.0,0.0,0.0,0.0,0.0,0.0,0.0,0.0,0.0,0.0,0.0,0.0,0.0,0.0,3.4501,3.7558,3.8135,3.8312,3.8796,3.9895,4.0821,4.188,4.3168,4.3448,4.3924,4.4839,4.5039,4.4978,4.4621,4.4806,4.4913,4.5043,4.5078,4.5221,4.5557,4.5221,4.5035,4.4947,4.4441,4.4171,4.4114,4.3792,4.3689,4.3725,4.3096,4.2868,4.2844,4.2062,4.1862,4.1897,0.0,0.0,0.0,0.0,3.7373,3.663,3.616,3.6012,3.5863,3.5008,3.4451,3.4079,3.4179,3.3881,3.351,3.351,3.351,3.3324,3.2518,3.2555,3.2593,3.1812,3.1626,3.1478,3.0995,3.0623,3.04,3.04,3.014,0.0,2.988,2.9619,2.9396,2.9396,2.9396,2.9396,2.9396,2.9396,2.9417,2.9421,2.9414,2.9501,2.955,2.8849,0.0,0.0,0.0,2.633,2.6,2.6435,0.0,0.0,0.0,0.0,0.0,0.0,0.0,0.0,2.6377,2.63,0.0,0.0,0.0,0.0,0.0,0.0,0.0,0.0,0.0,0.0,0.0,0.0,0.0,0.0,0.0,0.0,3.7964,4.0047,4.2396,4.2085,4.1766,4.2014,4.2996,4.4029,4.4894,4.5274,4.5553,4.5626,4.5954,4.584,4.5078,4.5389,0.0,0.0,0.0,4.6354,4.7049,4.6354,4.6169,4.652,4.584,4.5497,4.5421,4.5004,4.462,4.4283,4.3978,4.3821,4.3691,4.2988,4.2754,4.2764,4.1913,4.1089,4.0211,3.8711,3.7671,3.6965,3.6853,0.0,0.0,3.59,3.564,3.5491,3.4711,3.4401,3.4364,3.4364,3.429,3.403,3.3324,3.3658,3.3993,3.3187,3.3076,3.3101,3.3027,3.2518,3.2072,3.2072,3.1403,3.0883,3.0883,3.0065,2.9396,2.9396,2.9396,2.9396,2.9396,2.9396,2.9417,2.9411,2.9384,0.0,2.9464,2.8914,2.8502,2.839,2.7723,2.7023,2.6365,2.7191,2.7806,2.8083,2.8956,3.0248,3.1947,3.1947,3.2372,3.3146,2.9239,2.8659,0.0,0.0,0.0,0.0,0.0,0.0,0.0,0.0,0.0,0.0,0.0,0.0,0.0,0.0,0.0,3.8425,4.0906,4.3167,4.4966,4.5077,4.4748,4.4198,4.4876,4.5717,4.6544,4.6726,4.7018,4.7677,4.7791,4.7752,4.758,4.7675,4.7748,4.7816,4.7816,4.7889,4.8015,4.7889,4.764,4.7337,4.6954,0.0,4.6178,4.5845,4.5627,4.5553,4.5461,4.511,4.4554,4.4512,4.4219,4.3621,4.2166,4.1089,4.0346,4.0062,3.938,3.8525,3.7894,3.7671,3.7522,3.6718,3.6458,3.6458,3.6272,3.5751,0.0,3.5268,3.4736,3.4141,3.3993,3.4067,3.3993,3.3187,3.351,3.377,3.3138,3.3398,3.3733,3.3733,3.3113,3.2555,3.2555,3.0772,2.9396,2.9396,2.9396,2.9396,2.9396,2.9396,2.9407,2.9417,2.9401,2.9431,2.9404,2.9352,2.9026,2.8427,2.8239,2.8223,2.8329,2.915,3.0011,3.0963,3.1177,3.1816,3.2836,3.2836,3.33,3.4118,3.2565,3.214,0.0,0.0,0.0,0.0,0.0,0.0,0.0,0.0,0.0,0.0,0.0,3.2986,3.5225,0.0,3.9723,4.1767,4.3538,4.4966,4.5773,4.625,4.6214,4.5406,4.603,4.6636,4.7076,4.7443,4.7846,4.8269,4.8306,4.8306,4.8306,4.8306,4.8306,4.8306,4.8306,4.8306,4.8306,4.8306,4.819,4.7955,4.7787,4.7567,4.7335,4.6781,4.6507,4.6471,4.6067,4.5717,4.5438,4.5151,4.4621,4.3886,4.3116,4.2314,4.1497,4.068,4.0123,3.964,3.8785,3.8488,3.8377,3.7559,3.7299,3.7225,3.6829,3.642,3.6086,3.6086,3.5491,3.486,3.486,3.486,3.4748,3.4339,3.4562,3.4748,3.4339,3.4562,3.486,3.486,3.4525,3.4265,3.4265,3.289,3.1515,3.0734,3.0251,2.9991,2.9991,2.9657,2.9396,2.9396,2.938,2.939,2.939,2.9522,2.9457,2.9135,2.9612,3.0,3.0122,3.1039,3.1789,3.2331,3.2424,3.2875,3.377,3.377,3.4195,3.5051,3.4582,3.4389,0.0,0.0,0.0,0.0,0.0,0.0,0.0,0.0,3.1459,3.4021,3.5563,3.7183,3.9733,4.1072,4.2526,4.4801,4.57,4.6177,4.6324,4.6929,4.7076,4.6434,4.6948,4.7333,4.7333,4.7939,4.8306,4.8306,4.8306,4.8306,4.8306,4.8306,4.8306,4.8306,4.8306,4.8306,4.8306,4.8306,4.8306,4.8306,4.8306,4.8306,4.8269,4.7626,4.7333,4.7296,4.6526,4.6231,4.6302,4.5608,4.486,4.4188,4.4215,4.3763,4.2872,4.1386,4.0769,4.0494,3.964,3.9342,3.9231,3.8377,3.8116,3.8005,3.7336,3.7039,3.6928,3.6928,3.6346,3.5751,3.5751,3.5751,3.5677,3.5529,3.564,3.5677,3.5529,3.564,3.5751,3.5751,3.5603,3.5491,3.5491,3.4934,3.3968,3.2481,3.1701,3.1292,3.1292,3.0734,3.0251,3.0103,2.9954,2.9826,2.9692,3.0011,3.022,3.0305,3.1173,3.1666,3.1694,3.2468,3.2999,3.3178,3.3302,3.377,3.4665,3.4665,3.509,3.5936,3.5936,3.5936,2.4711,2.6507,2.834,2.917,3.0675,3.285,0.0,0.0,3.8108,3.982,4.0879,4.1792,4.2839,4.3737,4.4838,4.6562,4.6892,4.7223,4.7939,4.8122,4.8122,4.8049,4.8122,4.8196,4.8196,4.8269,4.8306,4.8306,4.8306,4.8306,4.8306,4.8306,4.8306,4.8306,4.8306,4.8306,4.8306,4.8306,4.8306,4.8306,4.8306,4.8306,4.8306,4.8233,4.8196,4.8122,4.7426,4.7205,4.7202,4.6476,4.5762,4.5122,4.5138,4.4618,4.3763,4.2872,4.2092,4.1349,4.0531,4.0234,4.0085,3.9231,3.8971,3.8934,3.8859,3.8339,3.7782,3.7782,3.7201,3.6569,3.6569,3.6569,3.6383,3.5677,3.6049,3.6383,3.564,3.6049,3.6569,3.6569,3.5974,3.5491,3.5491,3.5417,3.5045,3.4067,3.3844,3.3807,3.3807,3.3733,3.3398,3.2667,3.1961,3.1305,3.0781,3.1469,3.1992,3.2208,3.2417,3.2603,3.2724,3.282,3.3305,3.4218,3.4234,3.4665,3.5549,3.5549,3.5974,3.6787,3.6787,3.6787,2.7714,2.9953,3.1849,3.2228,3.4247,3.6597,3.8322,3.9423,4.0398,4.1552,4.28,4.3938,4.4745,4.5553,4.6452,0.0,4.7773,4.7939,4.8269,4.8306,4.8122,4.7663,4.8012,4.8306,4.8306,4.8306,4.8306,4.8306,4.8306,4.8306,4.8306,4.8306,4.8306,4.8306,4.8306,4.8306,4.8306,4.8306,4.8306,4.8306,4.8306,4.8306,4.8306,4.8306,4.8306,4.8306,4.807,4.7776,4.7367,4.7159,4.6652,4.5955,4.5472,4.5064,4.4581,4.328,4.2575,4.2166,4.1386,4.0791,4.036,3.9974,3.9491,3.9082,3.9082,3.8859,3.8599,3.8599,3.8005,3.7411,3.7411,3.7039,3.6606,3.6272,3.6458,3.6606,3.6272,3.6829,3.7262,3.6792,3.6907,3.6883,3.6297,3.6395,3.6374,3.5909,3.5317,3.4971,3.4971,3.4513,3.3881,3.3113,3.2381,3.1883,3.1608,3.2176,3.26,3.2675,3.3327,3.3697,3.3782,3.4251,3.4731,3.5162,3.5168,3.5549,3.64,3.64,3.6826,3.7671,3.7671,3.7947,2.9427,3.1959,3.4211,3.4431,3.6964,3.9423,3.9643,4.0781,4.1919,4.2506,4.3718,4.4892,4.5443,4.6434,4.7296,4.7846,4.8159,4.8306,4.8306,4.8122,4.7846,4.748,4.7736,4.8086,4.8269,4.8306,4.8306,4.8306,4.8306,4.8306,4.8306,4.8306,4.8306,4.8306,4.8306,4.8306,4.8306,4.8306,4.8306,4.8306,4.8306,4.8306,4.8306,4.8306,4.8306,4.8344,4.8457,4.8237,4.7773,4.788,4.7522,4.6773,4.6178,4.5844,4.5472,4.4023,4.3355,4.302,4.2203,4.1534,4.1014,4.0806,4.016,3.9454,3.9454,3.9305,3.9082,3.9082,3.8674,3.8228,3.8228,3.7782,3.7312,3.7076,3.7039,3.6965,3.6742,3.7179,3.7504,3.6907,3.744,3.7735,3.7018,3.7337,3.7602,3.7438,3.7026,3.6533,3.6072,3.5261,3.4413,3.366,3.318,3.2808,3.2646,3.315,3.3524,3.3564,3.4322,3.4742,3.4742,3.5361,3.5704,3.5704,3.5936,3.6323,3.6903,3.7135,3.7715,3.8566,3.8566,3.903,2.9244,3.1959,3.5188,3.6009,3.8652,4.1242,4.2029,4.2837,4.3441,4.3478,4.4121,4.4709,4.4728,4.6012,4.7113,4.7113,4.7773,4.8306,4.8306,4.7626,4.7406,4.8196,4.759,4.7443,4.8233,4.8306,4.8306,4.8306,4.8306,4.8306,4.8306,4.8306,4.8306,4.8306,4.8306,4.8306,4.8306,4.8306,4.8306,4.8306,4.8306,4.8306,4.8306,4.8306,4.8344,4.8476,4.8494,4.8606,4.875,4.875,4.8321,4.7664,4.7627,4.7144,4.6364,4.5509,4.4692,4.3838,4.302,4.276,4.2612,4.1832,4.1014,4.0346,4.0346,3.9751,3.9082,3.9082,3.9082,3.9045,3.9045,3.9045,3.8822,3.8042,3.7856,3.7634,3.6853,3.6857,3.6998,3.7009,3.7246,3.7412,3.7364,3.8047,3.8567,3.8567,3.9191,3.9094,3.7461,3.6528,3.5752,3.5019,3.4923,3.4658,3.3997,3.4745,3.5328,3.5492,3.561,3.5665,3.5665,3.5704,3.5704,3.5704,3.6477,3.6864,3.6903,3.7748,3.8605,3.9462,3.9462,3.9926,3.2619,3.4798,3.711,3.9019,4.0708,4.2103,4.291,4.3314,4.3368,4.28,4.3351,4.3754,4.3204,4.4397,4.5682,4.6214,4.6966,4.77,4.8233,4.8086,4.7773,4.7553,4.7736,4.7773,4.7516,4.7993,4.8306,4.8306,4.8306,4.8306,4.8306,4.8306,4.8306,4.8306,4.8306,4.8306,4.8306,4.8306,4.8306,4.8306,4.8306,4.8306,4.8306,4.8306,4.8363,4.8494,4.8494,4.8606,4.8822,4.8973,4.8973,4.8771,4.8453,4.8126,4.7787,4.6934,4.6444,4.5937,4.4192,4.3243,4.276,4.2463,4.1832,4.12,4.12,4.0977,4.0643,4.0123,3.9974,3.9825,3.9231,3.9232,3.9301,3.9039,3.9063,3.9081,3.8818,3.881,3.8715,3.8159,3.8259,3.8166,3.7517,3.785,3.8197,3.8276,3.8699,3.8805,3.8226,3.6976,3.6074,3.5826,3.5454,3.5101,3.4894,3.5258,3.554,3.5581,3.5648,3.5936,3.6477,3.6516,3.6787,3.7367,3.7632,3.8063,3.8649,3.892,3.9501,4.0352,4.0352,4.0507,3.5165,3.689,3.8505,4.0928,4.2139,4.2873,4.3404,4.3277,4.2837,4.2029,4.2066,4.2083,4.1552,4.2506,4.3864,4.5259,4.614,4.7039,4.8159,4.803,4.7773,4.7553,4.7736,4.7773,4.7553,4.8012,4.8306,4.8306,4.8306,4.8453,4.8746,4.8746,4.8893,4.9187,4.8991,4.8863,4.8783,4.8698,4.8658,4.8658,4.8658,4.8658,4.8658,4.8658,4.8729,4.887,4.887,4.899,4.9171,4.934,4.9461,4.9498,4.9181,4.9021,4.892,4.8099,4.7757,4.7478,4.5463,4.442,4.3933,4.362,4.296,4.2323,4.2323,4.2098,4.1761,4.125,4.11,4.0913,4.0038,3.994,3.9986,3.9684,3.9687,3.9808,3.9808,3.9872,3.9772,3.9259,3.9337,3.9273,3.8602,3.8728,3.8907,3.8989,3.8928,3.8782,3.8494,3.7258,3.6441,3.6457,3.5835,3.5437,3.5437,3.581,3.6062,3.6062,3.6389,3.6826,3.7328,3.7367,3.7632,3.8174,3.8528,3.8953,3.9501,3.981,4.0236,4.0816,4.0816,4.0971,3.6721,3.8212,3.946,4.1772,4.2947,4.3515,4.3441,4.28,4.1992,4.1095,4.0304,3.9717,3.957,4.0377,4.1829,4.4067,4.5296,4.6507,4.8086,4.7663,4.7516,0.0,0.0,0.0,0.0,0.0,4.8473,4.8473,4.8418,4.8785,4.9649,4.9706,5.0073,5.0826,5.0343,4.9972,4.9725,4.9467,4.9355,4.9317,4.9317,4.9317,4.9317,4.9317,4.9394,4.9617,4.9579,4.9665,4.9803,4.9817,4.983,4.983,4.9844,4.9857,4.9743,4.8997,4.8694,4.8466,4.6834,4.6215,4.6038,4.5141,4.4345,4.3713,4.3675,4.3118,4.2523,4.2447,4.2447,4.2257,4.14,4.1184,4.0967,4.016,3.9905,3.9916,3.9916,4.008,4.0223,4.0223,4.0364,4.0516,4.0516,4.0516,4.0531,4.0607,3.9942,3.9167,3.8357,3.7513,3.699,3.6975,3.6284,3.582,3.582,3.6516,3.698,3.698,3.7748,3.8212,3.8251,3.8251,3.829,3.8328,3.9152,3.9578,3.9578,4.039,4.0816,4.0816,4.0855,4.1274,3.7991,3.9863,4.1662,4.2873,4.3368,4.3314,4.2727,4.1992,4.0855,3.8836,3.8264,3.7382,3.4908,3.8086,4.1095,4.1111,4.4305,0.0,4.8159,4.8673,0.0,4.9243,0.0,5.0324,5.0509,5.0741,0.0,5.0912,5.0132,5.0008,5.0806,5.1093,5.1323,5.153,5.1407,5.1295,5.1249,5.059,4.9918,4.9317,4.9317,4.9317,4.9317,4.9326,4.9453,4.9617,4.9599,4.9683,4.983,5.0025,5.0111,5.0123,5.0358,5.0462,5.0462,5.0242,5.0166,5.0012,4.8938,4.788,4.6847,4.6038,4.5609,4.5343,4.4687,4.4345,4.4054,4.3459,4.3308,4.308,4.2295,4.2189,4.2227,4.1998,4.1619,4.1297,4.1297,4.0833,4.0414,4.0414,4.0446,4.0516,4.0516,4.0539,4.0569,4.0612,4.0486,4.005,3.9213,3.8381,3.7858,3.7864,3.7671,3.756,3.756,3.7748,3.7864,3.7864,3.8096,3.8489,3.9152,3.9191,3.9462,4.0113,4.0352,4.0468,4.0468,4.07,4.0816,4.0816,4.139,4.1816,3.9753,4.1258,4.2506,4.3294,4.3204,4.258,4.1075,3.9827,3.8212,3.5399,3.5105,3.4578,3.2008,3.5936,3.9606,0.0,0.0,0.0,4.86,4.9397,4.9972,0.0,5.1062,0.0,5.1513,5.1699,5.1963,5.2339,5.1424,5.1232,5.2036,5.2278,5.2526,5.2886,5.2655,5.247,5.2238,5.1299,5.0671,5.0348,4.9955,4.9817,4.9819,4.9846,4.9949,5.0051,5.005,5.0099,5.0221,5.0347,5.0402,5.0451,5.0624,5.0712,5.0712,5.0712,5.0712,5.0635,5.0125,4.9447,4.859,4.7357,4.6735,4.6353,4.5884,4.5464,4.5044,4.4597,4.4493,4.4302,4.3461,4.3321,4.332,4.2975,4.2625,4.2354,4.2354,4.2008,4.1623,4.1623,4.1647,4.1655,4.1655,4.1693,4.1731,4.1735,4.1479,4.1113,4.0585,3.9482,3.876,3.876,3.845,3.8212,3.8212,3.8566,3.876,3.876,3.9146,3.9572,4.0042,4.0081,4.0313,4.0777,4.0816,4.0816,4.0816,4.1164,4.1313,4.1351,4.2164,4.2783,4.1515,4.2396,4.2616,4.3331,4.291,4.1662,3.9239,3.7367,3.5202,3.1898,3.1715,3.1665,3.0173,3.388,3.7764,3.9537,0.0,4.5937,4.925,5.0046,5.0631,5.145,5.1928,5.2177,5.2177,5.2262,5.2595,5.3333,5.2708,5.2564,5.3268,5.3392,5.3747,5.443,5.3997,5.3511,5.297,5.2017,5.1637,5.184,5.1113,5.0714,5.0653,5.0664,5.0657,5.0622,5.0622,5.0663,5.0712,5.0712,5.0712,5.0712,5.0712,5.0712,5.0712,5.0712,5.0712,5.0712,5.0712,5.0712,5.0442,4.8817,4.7817,4.7201,4.7077,4.6471,4.5787,4.5787,4.571,4.5441,4.4662,4.447,4.4316,4.3585,4.3355,4.3278,4.3278,4.3162,4.3085,4.3085,4.3079,4.3111,4.3111,4.3158,4.3202,4.3192,4.2619,4.2163,4.2157,4.07,3.9655,3.9655,3.8992,3.856,3.856,3.9224,3.9655,3.9655,4.039,4.0816,4.0816,4.0893,4.0971,4.0971,4.1087,4.1126,4.1126,4.1816,4.2164,4.2202,4.3053,4.3866,4.1956,4.28,4.3331,4.3478,4.291,4.1662,3.9239,3.6912,0.0,0.0,2.9977,2.9354,2.8374,3.2179,3.6292,3.8892,4.2581,4.6359,4.9936,5.1066,5.1811,0.0,5.366,5.4277,5.4277,5.4586,0.0,5.4991,5.4838,5.4704,5.4504,5.4814,5.5067,5.5206,5.5107,5.469,5.396,5.3771,5.3374,5.2789,5.2636,5.2214,5.1585,5.1589,5.1226,5.0584,5.0673,5.0702,5.0712,5.0712,5.0712,5.0712,5.0712,5.0712,5.0712,5.0712,5.0712,5.0712,5.0712,5.0712,5.0519,4.951,4.9086,4.8817,4.8125,4.7317,4.6663,4.6663,4.6163,4.5556,4.5402,4.5364,4.5325,4.521,4.4624,4.4085,4.4085,4.3585,4.3085,4.3085,4.3079,4.3111,4.3111,4.318,4.3192,4.3199,4.3143,4.3085,4.3053,4.1622,4.0584,4.0584,4.0429,4.0352,4.0352,4.0507,4.0584,4.0584,4.0739,4.0816,4.0816,4.1429,4.1777,4.1777,4.2512,4.286,4.286,4.3015,4.3053,4.3092,4.3982,4.4439,4.263,4.3339,4.3734,4.3549,4.258,4.0708,3.7,0.0,0.0,0.0,2.7457,2.7372,2.6135,3.0198,3.4392,3.6285,4.0016,4.4348,4.9256,5.0417,5.1541,5.3707,5.4638,5.5113,5.5113,5.5286,5.5403,5.5403,5.5403,5.5338,5.5127,5.5288,5.5415,5.5415,5.5453,5.5248,5.4863,5.4453,5.4093,5.3728,5.3267,5.2867,5.2515,5.2536,5.2085,5.1278,5.1308,5.1087,5.0712,5.0712,5.0712,5.0712,5.0712,5.0712,5.0712,5.0712,5.0712,5.0712,5.0712,5.0712,5.0635,5.0212,4.9779,4.9317,4.8894,4.8202,4.7509,4.7509,4.724,4.6817,4.6394,4.6278,4.6163,4.571,4.5287,4.4979,4.4979,4.4662,4.4402,4.4465,4.4468,4.4469,4.4492,4.4544,4.4541,4.4541,4.4207,4.3982,4.3982,4.2899,4.2086,4.2086,4.2086,4.2086,4.2086,4.2086,4.2086,4.2086,4.2086,4.2086,4.2086,4.2473,4.2667,4.2667,4.3092,4.3285,4.3285,4.375,4.3982,4.402,4.4833,4.526,4.3459,4.4103,4.4293,4.4038,4.2738,4.025,3.5302,3.2809,0.0,2.5481,2.5351,2.5939,2.5397,2.8874,3.2612,0.0,3.8188,4.2464,4.8422,4.9773,5.1302,0.0,5.5067,0.0,5.5632,5.5492,5.5492,5.5658,5.5517,5.5441,5.5377,5.539,5.5427,5.5401,5.5449,5.5523,5.5508,5.4894,5.4622,5.4677,5.3985,5.3584,5.3472,5.3472,5.301,5.2192,5.2192,5.1818,5.1202,5.101,5.0971,5.0933,5.0789,5.0712,5.0712,5.0712,5.0712,5.0712,5.0712,5.0712,5.0712,5.0712,5.025,4.9663,4.9663,4.9086,4.8394,4.8394,4.824,4.7971,4.7317,4.7154,4.6932,4.6086,4.5902,4.5825,4.5633,4.5603,4.5659,4.5693,4.5703,4.575,4.5781,4.5817,4.5807,4.5807,4.5258,4.4871,4.4871,4.4253,4.3827,4.3827,4.3518,4.3285,4.3285,4.3285,4.3285,4.3285,4.3285,4.3285,4.3285,4.3479,4.3595,4.3595,4.375,4.3827,4.3827,4.4523,4.4871,4.4871,4.5525,4.5989,4.4457,4.5282,4.5519,4.5504,4.4252,4.1649,3.6522,0.0,3.0794,2.6377,2.5004,2.5458,2.8312,2.9112,3.1492,3.8025,4.0026,4.2724,4.8334,5.0465,5.2118,5.3951,0.0,0.0,5.6434,5.5836,5.5721,5.6537,5.5897,5.5476,5.5415,5.5415,5.5413,5.5473,5.5511,5.5508,5.5604,5.5527,5.5522,5.5588,5.5511,5.5088,5.4395,5.4395,5.3895,5.3087,5.3087,5.3049,5.2895,5.2115,5.1769,5.1731,5.0971,5.0712,5.0712,5.0712,5.0712,5.0712,5.0712,5.0712,5.0712,5.0712,5.0635,5.0596,5.0596,4.9971,4.9279,4.9279,4.8702,4.8086,4.8009,4.8009,4.7778,4.6971,4.6778,4.6547,4.5787,4.5667,4.5693,4.5701,4.5766,4.5781,4.5788,4.5817,4.5807,4.5807,4.5729,4.5691,4.5691,4.5613,4.5575,4.5575,4.4214,4.3285,4.3285,4.3285,4.3285,4.3285,4.3285,4.3285,4.3285,4.4052,4.4478,4.4478,4.5181,4.5575,4.5575,4.5652,4.5691,4.5691,4.5896,4.6385,4.3484,4.4913,4.5795,4.5091,4.4059,4.2031,3.7452,3.455,3.1757,2.8062,2.6667,2.663,2.8437,2.8707,3.042,3.5955,3.7083,3.9309,4.5208,4.7455,4.971,5.2919,5.46,5.5963,0.0,5.7175,5.7186,5.7531,5.7249,5.6839,5.6314,5.5815,5.5508,5.5581,5.5615,5.5649,5.5671,5.5671,5.5682,5.5703,5.5703,5.5511,5.5203,5.5203,5.478,5.3972,5.3972,5.3664,5.3164,5.2818,5.2385,5.1885,5.1548,5.1125,5.0712,5.0712,5.0712,5.0712,5.0712,5.0712,5.0712,5.0712,5.0712,5.0712,5.0712,5.0481,5.0164,5.0164,4.9933,4.9548,4.9009,4.8509,4.8009,4.7702,4.7625,4.7557,4.7246,4.7195,4.7221,4.727,4.731,4.7341,4.7364,4.6914,4.6581,4.6581,4.6155,4.5807,4.5807,4.5807,4.5807,4.5807,4.5181,4.4794,4.4794,4.4794,4.4794,4.4794,4.4794,4.4794,4.4794,4.5142,4.5568,4.6109,4.6419,4.6844,4.7386,4.7404,4.7448,4.7416,4.7534,4.7763,4.275,4.4714,4.6023,4.5231,4.4235,4.2258,3.7769,3.5073,3.2477,2.8865,2.7649,2.7649,2.8961,2.9172,3.0573,3.4993,3.5875,3.7985,4.3604,4.5851,4.8258,5.2002,0.0,5.5453,5.7417,5.8157,5.8371,5.8203,5.8165,5.7793,5.6955,5.634,5.5918,5.5649,5.5682,5.5703,5.5703,5.5703,5.5703,5.5703,5.5703,5.5703,5.5703,5.5703,5.5395,5.4857,5.4857,5.4511,5.3933,5.3664,5.3241,5.2654,5.2385,5.1779,5.1048,5.1048,5.0894,5.0712,5.0712,5.0712,5.0712,5.0712,5.0712,5.0712,5.0712,5.0712,5.0712,5.0712,5.0712,5.0558,4.9933,4.9317,4.8817,4.8548,4.8471,4.8451,4.8235,4.8214,4.8249,4.8284,4.8307,4.8323,4.8384,4.7889,4.7463,4.7463,4.696,4.6581,4.6581,4.6581,4.6581,4.6581,4.6581,4.6348,4.5845,4.5807,4.5923,4.6155,4.6194,4.6331,4.661,4.6563,4.6872,4.7494,4.7492,4.7801,4.8424,4.8487,4.851,4.8545,4.8876,4.9367,4.2762,4.5015,4.6489,4.6489,4.5229,4.2629,3.7386,3.506,3.2752,2.8297,2.7395,2.8139,3.0638,3.095,3.2316,3.6689,3.8085,4.0217,4.4645,4.6729,4.8743,0.0,5.2346,5.3835,5.646,5.8347,5.9096,5.8346,5.8319,5.7934,5.706,5.6983,5.6599,5.5742,5.5703,5.5703,5.5703,5.5703,5.5703,5.5703,5.5703,5.5703,5.5703,5.5703,5.5703,5.5703,5.5703,5.5665,5.5588,5.4818,5.4472,5.4395,5.351,5.2654,5.1885,5.1885,5.1395,5.0712,5.0712,5.0712,5.0712,5.0712,5.0712,5.0712,5.0712,5.0712,5.0712,5.0712,5.0712,5.0712,5.0712,5.0673,5.0481,4.9586,4.9394,4.9182,4.839,4.824,4.8282,4.8284,4.8361,4.8392,4.8392,4.8392,4.8392,4.8392,4.8392,4.8353,4.8353,4.8353,4.8353,4.8353,4.8353,4.7657,4.5962,4.5807,4.6155,4.7038,4.7076,4.7494,4.845,4.8399,4.8431,4.8488,4.8431,4.8431,4.8488,4.8494,4.8511,4.8607,4.9564,5.0965,3.7584,4.0024,4.1829,4.011,3.9699,3.8964,3.6171,3.4279,3.2577,3.0593,3.0204,3.0616,3.1965,3.2162,3.3714,3.8575,3.9119,4.0396,4.4704,4.7308,4.9712,5.2188,5.5871,5.8563,5.943,6.0003,6.0258,6.0012,6.0012,5.9627,5.8742,5.8704,5.778,5.5742,5.5703,5.5703,5.5703,5.5703,5.5703,5.5703,5.5703,5.5703,5.5703,5.5703,5.5703,5.5703,5.5703,5.5703,5.5665,5.5434,5.5011,5.4472,5.4203,5.3549,5.2779,5.2779,5.2626,5.2395,5.2395,5.201,5.151,5.151,5.1164,5.0712,5.0712,5.0712,5.0712,5.0712,5.0712,5.0712,5.0712,5.0712,5.0635,5.0366,5.0308,5.023,5.0014,5.0019,5.0061,5.0062,5.0078,5.0124,5.0124,4.9668,4.9281,4.9281,4.8778,4.8392,4.8392,4.8392,4.8392,4.8392,4.8451,4.8238,4.7632,4.7579,4.7706,4.8036,4.8042,4.8222,4.8561,4.8535,4.8841,4.9456,4.9425,5.0009,5.1248,5.1268,5.1633,5.2294,5.2613,5.3046,3.4388,3.6757,3.8544,3.7283,3.7101,3.6795,3.5114,3.3692,3.2394,3.1255,3.1026,3.1369,3.2508,3.2714,3.4182,3.8647,3.9182,4.05,4.4727,4.759,5.0369,5.3522,5.7373,5.9749,5.9823,6.0423,6.0781,6.0781,6.0781,6.0435,5.955,5.9511,5.8627,5.6742,5.6665,5.6511,5.6214,5.6214,5.6011,5.5703,5.5703,5.5703,5.5703,5.5703,5.5703,5.5703,5.5703,5.5703,0.0,5.5703,5.5395,5.4934,5.4934,5.4434,5.3703,5.3703,5.3472,5.3203,5.3203,5.2856,5.2385,5.2385,5.1818,5.1164,5.1164,5.0933,5.0712,5.0712,5.0712,5.0712,5.0712,5.0712,5.0712,5.0712,5.0702,5.071,5.0812,5.0855,5.0897,5.089,5.0898,5.0898,5.0898,5.0473,5.0171,5.0171,4.972,4.9406,4.9406,4.9459,4.9452,4.9452,4.9482,4.9498,4.9458,4.8831,4.8633,4.9017,4.9022,4.9223,4.9613,4.9591,5.0017,5.0901,5.0874,5.1576,5.3046,5.3098,5.3588,5.4492,5.4492,5.4687,0.0,3.4732,3.6222,3.6833,3.6528,3.5649,3.409,3.3089,0.0,3.0536,3.0307,3.0918,3.2592,3.2974,3.4198,3.7712,3.8929,4.0937,4.5093,4.7977,5.1196,5.5393,5.737,5.8366,5.8366,5.9835,6.0781,6.0781,6.0781,6.0435,5.9627,5.9588,5.9242,5.8511,5.8473,5.8011,5.7099,5.7099,5.6676,5.5895,5.5895,5.5857,5.578,5.578,5.5742,5.5703,5.5703,5.5703,5.5703,5.5703,5.5703,5.5703,5.5703,5.5241,5.4587,5.4587,5.4087,5.3395,5.3395,5.3356,5.328,5.3241,5.2654,5.2,5.2,5.1395,5.0712,5.0712,5.0712,5.0712,5.0712,5.0712,5.0712,5.0712,5.0712,5.072,5.0773,5.0855,5.0897,5.089,5.0906,5.0914,5.0914,5.0929,5.0937,5.0937,5.1018,5.1097,5.1097,5.1147,5.1203,5.1203,5.1207,5.1211,5.1211,4.9733,4.9113,4.9932,5.001,5.043,5.1377,5.1294,5.1642,5.2589,5.2545,5.2935,5.3803,5.3943,5.4414,5.5195,5.5195,5.5625,2.8038,0.0,3.1436,3.0307,3.0887,3.1589,0.0,3.0946,3.0679,3.0296,3.1252,3.2713,3.4366,3.5262,3.7231,4.1931,4.2851,4.4231,4.7806,5.1645,5.522,5.8235,5.9527,6.0192,6.0192,6.055,6.0781,6.0781,6.0781,6.0704,6.0512,6.0473,6.0396,6.0204,6.0204,5.9511,5.8011,5.7973,5.7896,5.7703,5.7703,5.7357,5.6692,5.6703,5.6329,5.5703,5.5703,5.5703,5.5703,5.5703,5.5703,5.5703,5.5703,5.5588,5.5434,5.5434,5.528,5.5126,5.5126,5.4703,5.4087,5.3433,5.3049,5.2895,5.2895,5.1856,5.0712,5.0712,5.0712,5.0712,5.0712,5.0712,5.0721,5.0712,5.072,5.0773,5.0855,5.0897,5.089,5.0898,5.1002,5.1037,5.1037,5.112,5.1133,5.1133,5.1156,5.117,5.117,5.1191,5.1203,5.1203,5.1252,5.1279,5.1279,5.0849,5.0686,5.0967,5.0969,5.138,5.2342,5.1714,5.1752,5.2655,5.2652,5.2769,5.2967,5.3672,5.4101,5.4297,5.4297,5.4414,2.6168,2.8331,3.0719,3.017,3.1019,3.1983,3.1983,3.1102,3.0375,3.0758,3.1607,3.2872,3.4948,3.6343,3.8468,4.2398,4.4018,4.6398,5.0964,5.4282,5.7208,5.9781,6.0512,6.0781,6.0781,6.0781,6.0781,6.0781,6.0781,6.0781,6.0781,6.0781,6.0781,6.0781,6.0781,6.0165,5.8858,5.8858,5.8665,5.8319,5.8319,5.7857,5.7011,5.7396,5.6896,5.5703,5.6126,5.6049,5.5703,5.5703,5.5703,5.5703,5.5703,5.5703,5.5703,5.5703,5.5703,5.5703,5.5703,5.5468,5.5056,5.4645,5.4293,5.3984,5.3984,5.3064,5.1987,5.1876,5.1856,5.1847,5.1903,5.1652,5.1378,5.1424,5.1175,5.0939,5.0972,5.1004,5.1029,5.1029,5.1081,5.1278,5.1673,5.1758,5.1947,5.2337,5.2405,5.2308,5.1879,5.1865,5.1722,5.133,5.131,5.1358,5.1358,5.1304,5.1301,5.1357,5.1358,5.1558,5.207,5.1641,5.1797,5.2695,5.3086,5.3281,5.3281,5.3789,5.3984,5.3984,5.3984,5.3984,2.6392,2.9178,3.2345,3.2262,3.3259,3.4256,3.4141,3.253,3.1302,3.2031,3.2307,3.3189,3.5875,3.751,3.9453,4.242,4.4994,4.8568,5.4024,5.6181,5.8099,6.0512,6.0781,6.0781,6.0781,6.0781,6.0781,6.0781,6.0781,6.0781,6.0781,6.0781,6.0781,6.0781,6.0781,6.0458,5.976,5.9727,5.9358,5.8665,5.8665,5.8165,5.7253,5.8088,5.755,5.5934,5.6676,5.6571,5.591,5.5763,5.5707,5.5768,5.5728,5.5738,5.5768,5.5768,5.5768,5.5768,5.5768,5.5845,5.5954,5.6057,5.5631,5.5093,5.5093,5.4549,5.3922,5.3703,5.3456,5.3301,5.3398,5.288,5.2344,5.2469,5.1974,5.1493,5.1525,5.1542,5.1593,5.1593,5.1604,5.1845,5.259,5.2717,5.2919,5.3546,5.3667,5.3416,5.2516,5.2457,5.2226,5.1484,5.1406,5.1406,5.1406,5.1406,5.1406,5.1406,5.1406,5.1406,5.1406,5.1523,5.1875,5.25,5.3242,5.3594,5.3594,5.3594,5.3594,5.3594,5.3594,5.3594,2.9302,3.2686,3.4903,3.0625,3.2397,3.5028,3.4253,3.4375,3.4644,3.4798,3.5412,3.691,4.0145,4.0952,4.2689,4.7462,5.0346,5.3077,5.6165,5.7473,5.8781,6.0589,6.0781,6.0781,6.0781,6.0781,6.0781,6.0781,6.0781,6.0781,6.0781,6.0781,6.0781,6.0781,6.0781,6.0806,6.0761,6.0652,6.055,6.0435,6.0435,5.9588,5.8127,5.8934,5.8396,5.683,5.6945,5.7012,5.6916,5.6056,5.5845,5.6015,5.5913,5.5946,5.6029,5.6029,5.6029,5.6029,5.6029,5.6044,5.6064,5.6091,5.6019,5.5903,5.5903,5.5825,5.5702,5.5655,5.464,5.3527,5.3547,5.3476,5.3378,5.3457,5.34,5.3337,5.3381,5.3393,5.3393,5.3393,5.3442,5.3513,5.3672,5.3736,5.3552,5.2965,5.2889,5.2577,5.1718,5.1601,5.1562,5.1406,5.1406,5.1406,5.1406,5.1406,5.1406,5.1406,5.1406,5.1406,5.1406,5.2109,5.2226,5.1601,5.1719,5.1797,5.1797,5.1797,5.1797,5.1797,5.1797,5.1797,2.8275,3.1423,3.4218,3.2364,3.6093,3.9984,3.9139,3.8523,3.83,3.8754,3.9177,4.0246,4.2748,4.3904,4.6021,5.0702,5.3203,5.528,5.7396,5.8434,5.9396,6.0666,6.0781,6.0781,6.0781,6.0781,6.0781,6.0781,6.0781,6.0781,6.0781,6.0867,6.0892,6.0892,6.0974,6.1036,6.1112,6.1036,6.103,6.103,6.0953,6.0307,5.9258,6.0062,5.9491,5.7912,5.7934,5.7675,5.7234,5.6303,5.5971,5.6091,5.6022,5.6037,5.6097,5.6097,5.6097,5.611,5.6175,5.6202,5.6246,5.6342,5.6355,5.6355,5.6355,5.6355,5.6359,5.6371,5.5672,5.4995,5.5083,5.4748,5.442,5.4543,5.4209,5.3862,5.3916,5.392,5.392,5.392,5.3931,5.3939,5.3939,5.3983,5.3867,5.3476,5.3398,5.3086,5.2226,5.2109,5.1914,5.1445,5.1406,5.1406,5.1406,5.1406,5.1406,5.1406,5.1406,5.1406,5.1406,5.1797,5.1797,5.1406,5.1406,5.1406,5.1406,5.1406,5.1406,5.1406,5.1406,5.1406,2.7778,3.0645,3.3892,3.5222,3.9521,4.3379,4.3196,4.2271,4.1677,4.2594,4.2956,4.3564,4.5117,4.7063,4.9468,5.2705,5.5017,5.6859,5.8209,5.9237,6.0113,6.0832,6.085,6.0827,6.0899,6.0867,6.0856,6.091,6.0871,6.0871,6.0871,6.0993,6.1066,6.1066,6.1167,6.1207,6.1279,6.1207,6.1186,6.1186,6.1095,6.0677,6.0034,6.0844,6.0416,5.8985,5.8778,5.8331,5.7663,5.6576,5.6135,5.622,5.6158,5.6164,5.6225,5.6225,5.6225,5.6236,5.6316,5.6379,5.639,5.6553,5.6606,5.6606,5.6608,5.661,5.6612,5.6582,5.6404,5.6271,5.6397,5.5945,5.5494,5.5579,5.5076,5.4608,5.4609,5.4453,5.4297,5.4297,5.4141,5.4062,5.4258,5.4297,5.4297,5.4297,5.4297,5.3984,5.3125,5.2812,5.2539,5.207,5.1836,5.1797,5.1992,5.1992,5.1914,5.1719,5.1523,5.1406,5.1406,5.1406,5.1406,5.1406,5.1406,5.1406,5.1406,5.1601,5.1719,5.1719,5.1914,5.1992,3.0583,3.3427,3.6076,3.8456,3.9925,4.1222,4.2969,4.3829,4.4473,4.5481,4.6323,4.7146,4.7893,5.072,5.3033,5.3335,5.6257,5.851,5.8665,5.9968,6.097,6.1135,6.0973,6.0882,6.1167,6.1044,6.1057,6.1143,6.1158,6.1158,6.1158,6.1165,6.1172,6.1172,6.1186,6.1292,6.1481,6.1292,6.1186,6.1186,6.1179,6.0752,6.0034,6.0844,6.0727,5.9879,5.905,5.8731,5.8661,5.6846,5.6266,5.655,5.6371,5.6386,5.6555,5.6555,5.6555,5.6555,5.6599,5.656,5.6563,5.6604,5.6606,5.6608,5.6618,5.658,5.6582,5.6591,5.6589,5.6587,5.6588,5.655,5.6475,5.6481,5.6443,5.6404,5.6406,5.5781,5.5195,5.5195,5.4531,5.4258,5.5078,5.5195,5.5195,5.5195,5.5195,5.4883,5.4023,5.3203,5.3008,5.3711,5.3086,5.293,5.375,5.3828,5.3476,5.2656,5.1836,5.1406,5.1406,5.1406,5.1406,5.1406,5.1406,5.1406,5.1406,5.2226,5.2617,5.2617,5.3437,5.3828,2.9009,3.2179,3.5554,3.8148,4.0961,4.343,4.4665,4.6764,4.8734,4.972,5.0603,5.1136,5.0843,5.2368,5.3784,5.4245,5.6795,5.8693,5.8693,6.008,6.0965,6.0512,6.0809,6.1095,6.1179,6.1135,6.1159,6.1186,6.1186,6.1186,6.1186,6.131,6.139,6.139,6.1456,6.1537,6.1605,6.1541,6.1526,6.1521,6.1422,6.1271,6.1058,6.137,6.1331,6.098,5.9576,5.8967,5.8874,5.7131,5.6488,5.6604,5.6506,5.6511,5.6606,5.6606,5.6606,5.6606,5.6606,5.6606,5.6606,5.6606,5.6606,5.6608,5.6618,5.6582,5.6585,5.6595,5.6597,5.6597,5.6597,5.6597,5.6598,5.6601,5.6601,5.6601,5.6601,5.6328,5.6094,5.6094,5.5859,5.5547,5.5351,5.5312,5.5117,5.457,5.4492,5.4375,5.4023,5.3711,5.3633,5.3945,5.3711,5.3633,5.3984,5.3984,5.3867,5.3516,5.3203,5.2773,5.2226,5.2734,5.3008,5.3008,5.3008,5.3008,5.3008,5.3359,5.3516,5.3516,5.3867,5.3984,2.9096,3.2499,3.6264,3.8316,4.1788,4.5019,4.6195,4.8816,5.1307,5.2232,5.2884,5.3135,5.2824,5.3346,5.4065,5.4847,5.6925,5.8426,5.8426,5.9599,6.0371,6.0139,6.054,6.0948,6.1306,6.1316,6.131,6.1351,6.1351,6.1351,6.1351,6.15,6.1573,6.1573,6.166,6.1718,6.1718,6.1718,6.1718,6.1718,6.1598,6.1598,6.1718,6.1718,6.1718,6.1601,5.9844,5.9102,5.8985,5.7309,5.6606,5.6606,5.6606,5.6606,5.6606,5.6606,5.6606,5.6606,5.6606,5.6606,5.6606,5.6606,5.6608,5.6612,5.6584,5.6587,5.6592,5.6599,5.66,5.66,5.66,5.66,5.6601,5.6601,5.6601,5.6601,5.6601,5.6367,5.6172,5.6172,5.5976,5.5664,5.5351,5.5312,5.5195,5.4883,5.4805,5.4805,5.4805,5.457,5.4414,5.4414,5.4648,5.4805,5.4805,5.4805,5.4687,5.4414,5.4687,5.4297,5.3164,5.3672,5.3984,5.3984,5.3984,5.3984,5.3984,5.4297,5.4414,5.4414,5.4687,5.4805,3.1774,3.5229,3.88,3.9543,4.2328,4.5336,4.7227,4.9547,5.1596,5.254,5.2623,5.2809,5.3662,5.3818,5.4095,5.4956,5.6614,5.7816,5.7777,5.8425,5.926,6.0271,6.0137,6.0433,6.1551,6.1545,6.153,6.1676,6.1679,6.1679,6.1679,6.1718,6.1718,6.1718,6.1718,6.1718,6.1718,6.1718,6.1718,6.1718,6.1718,6.1718,6.1718,6.1718,6.1718,6.1601,5.9883,5.9102,5.8985,5.7309,5.6606,5.6606,5.6606,5.6606,5.6606,5.6606,5.6606,5.6606,5.6606,5.6606,5.6606,5.6606,5.6612,5.6584,5.6591,5.6597,5.66,5.6601,5.6601,5.6601,5.6601,5.6601,5.6601,5.6601,5.6601,5.6601,5.6601,5.5937,5.5312,5.5312,5.4609,5.4297,5.5156,5.5312,5.5625,5.6484,5.6601,5.6601,5.6601,5.5859,5.5312,5.5312,5.6094,5.6601,5.6601,5.6601,5.6211,5.5351,5.6133,5.582,5.4062,5.4023,5.4023,5.4023,5.4023,5.4023,5.4023,5.4883,5.5312,5.5312,5.6211,5.6601,3.1259,3.4817,3.9078,4.1097,4.5072,4.8821,5.0005,5.1224,5.2763,5.4997,5.4916,5.4557,5.4828,5.4867,5.4945,5.5182,5.6677,5.7582,5.7035,5.8153,5.8928,5.8595,5.9033,5.9492,5.9841,5.9831,5.9828,5.9883,6.0432,6.0783,6.0783,6.1369,6.1718,6.1718,6.1718,6.1718,6.1718,6.1718,6.1718,6.1718,6.1718,6.1718,6.1718,6.1718,6.1718,6.164,6.051,5.9651,5.8985,5.7309,5.6606,5.6645,5.7231,5.7426,5.7426,5.7426,5.7426,5.7348,5.6801,5.6606,5.6606,5.6614,5.6618,5.6584,5.6596,5.6599,5.66,5.6601,5.6601,5.6601,5.6601,5.6601,5.6601,5.6601,5.6601,5.6601,5.6601,5.6406,5.6211,5.6211,5.6015,5.5898,5.6172,5.6211,5.6289,5.6562,5.6601,5.6601,5.6601,5.6367,5.6211,5.6211,5.6445,5.6601,5.6601,5.6601,5.6484,5.6211,5.6445,5.6094,5.4961,5.5508,5.582,5.582,5.582,5.582,5.582,5.6094,5.6211,5.6211,5.6484,5.6601,3.5096,3.8453,4.2202,4.4387,4.7547,5.0592,5.2507,5.3308,5.4192,5.6172,5.5903,5.5396,5.5747,5.5513,5.5396,5.5747,5.6645,5.7153,5.6684,5.7465,5.8011,5.7816,5.8246,5.8714,5.9063,5.9102,5.9102,5.9102,5.9573,6.0041,6.0393,6.09,6.133,6.1679,6.1718,6.1718,6.1718,6.1718,6.1718,6.1718,6.1718,6.1718,6.1718,6.1718,6.1718,6.164,6.0393,5.9378,5.848,5.7153,5.6606,5.6684,5.7504,5.7816,5.7855,5.8207,5.8324,5.8246,5.7777,5.7582,5.7543,5.7203,5.7091,5.7058,5.6715,5.66,5.6601,5.6601,5.6601,5.6601,5.6601,5.6601,5.6601,5.6601,5.6601,5.6601,5.6601,5.6601,5.6601,5.6601,5.6601,5.6601,5.6601,5.6601,5.6601,5.6601,5.6601,5.6601,5.6601,5.6601,5.6601,5.6601,5.6601,5.6601,5.6601,5.6601,5.6601,5.6601,5.6601,5.6367,5.5859,5.6328,5.6601,5.6601,5.6601,5.6601,5.6601,5.6601,5.6601,5.6601,5.6601,5.6601,4.0873,4.3997,4.6612,4.8369,4.9618,5.1295,5.4576,5.5357,5.563,5.645,5.5981,5.5669,5.645,5.5942,5.5669,5.6489,5.6606,5.6606,5.6606,5.6606,5.6879,5.7582,5.7699,5.8011,5.8792,5.8868,5.8868,5.8868,5.8946,5.9339,6.0119,6.0237,6.0627,6.1444,6.1444,6.1483,6.1562,6.1562,6.1601,6.1718,6.1718,6.1718,6.1718,6.1718,6.1718,6.1601,5.9844,5.8636,5.7855,5.6957,5.6606,5.6684,5.7582,5.7933,5.8011,5.8909,5.9222,5.9222,5.9143,5.9107,5.8953,5.8183,5.7956,5.7884,5.7067,5.6796,5.6719,5.6719,5.664,5.6601,5.6601,5.6601,5.6601,5.6601,5.6601,5.6601,5.6601,5.6601,5.6601,5.6601,5.6601,5.6601,5.6601,5.6601,5.664,5.6719,5.6797,5.6797,5.6719,5.6719,5.668,5.6601,5.6601,5.6601,5.6601,5.6601,5.6601,5.6601,5.6601,5.6601,5.6601,5.6601,5.6601,5.6601,5.6601,5.6601,5.6601,5.6601,5.6601,5.6601,5.6601,5.6601,3.8141,4.1771,4.5831,4.8213,5.0984,5.3522,5.4966,5.5825,5.6372,5.6567,5.645,5.6372,5.6567,5.645,5.6372,5.6567,5.6606,5.6606,5.6606,5.6606,5.6645,5.684,5.6879,5.6918,5.7113,5.7153,5.7153,5.7153,5.7738,5.8168,5.8363,5.9026,5.9456,5.9649,5.9649,6.0002,6.0666,6.0666,6.1017,6.1718,6.1718,6.1718,6.1718,6.1718,6.1718,6.1601,5.9844,5.8987,5.8714,5.7192,5.6606,5.6762,5.8246,5.8831,5.8948,5.9807,6.0126,6.0015,5.9353,5.9083,5.909,5.8939,5.8903,5.8904,5.871,5.8164,5.7617,5.7617,5.7148,5.6601,5.6601,5.6601,5.6601,5.6601,5.6601,5.6601,5.6601,5.6601,5.6601,5.6601,5.6601,5.6601,5.6601,5.6601,5.6836,5.7539,5.8203,5.8398,5.7695,5.7617,5.7344,5.668,5.6601,5.6601,5.6601,5.6601,5.6601,5.6601,5.6601,5.6601,5.6601,5.6601,5.6601,5.6601,5.6601,5.6601,5.6601,5.6601,5.6601,5.6601,5.6601,5.6601,3.9195,4.263,4.6339,4.9306,5.1726,5.36,5.4498,5.5357,5.5981,5.5981,5.6294,5.6606,5.6606,5.6606,5.6606,5.6606,5.6606,5.6606,5.6606,5.6606,5.6606,5.6606,5.6606,5.6606,5.6606,5.6606,5.6606,5.6606,5.6996,5.7387,5.7777,5.8246,5.8675,5.9102,5.9102,5.9339,5.9768,6.0198,6.0627,6.1095,6.1483,6.1718,6.1718,6.1718,6.1483,6.1017,5.969,5.887,5.8363,5.7113,5.6606,5.6762,5.8439,5.9102,5.9258,6.0549,6.1024,6.0956,6.0487,6.0337,6.0265,5.9919,5.9763,5.9686,5.9336,5.8867,5.8515,5.8515,5.8203,5.7851,5.7851,5.7851,5.7851,5.7851,5.7226,5.6601,5.6601,5.6601,5.6601,5.6601,5.6953,5.7226,5.7226,5.7578,5.8008,5.8437,5.8906,5.9023,5.8594,5.8515,5.8359,5.789,5.7851,5.7851,5.7851,5.7851,5.7851,5.7851,5.7851,5.7851,5.7851,5.7851,5.7461,5.6601,5.6992,5.7031,5.6601,5.7031,5.6992,5.6601,5.6558,5.6554,4.0015,4.3528,4.6885,5.0321,5.1921,5.2899,5.36,5.4459,5.5123,5.5279,5.5981,5.6606,5.6606,5.6606,5.6606,5.6606,5.6606,5.6606,5.6606,5.6606,5.6606,5.6606,5.6606,5.6606,5.6606,5.6606,5.6606,5.6606,5.6606,5.6879,5.7543,5.7582,5.7933,5.8634,5.8673,5.8753,5.887,5.9573,6.0041,6.0198,6.09,6.1327,6.1483,6.1483,6.1095,6.0354,5.9495,5.8597,5.7738,5.6918,5.6606,5.6762,5.8439,5.9102,5.93,6.1059,6.1692,6.1701,6.1702,6.1707,6.1595,6.0857,6.0624,6.0507,5.9844,5.9531,5.9414,5.9414,5.9297,5.9219,5.9219,5.9219,5.9219,5.9219,5.8086,5.7031,5.7031,5.7031,5.7031,5.7031,5.7617,5.8125,5.8125,5.8828,5.9414,5.9414,5.9531,5.957,5.9414,5.9414,5.9336,5.9219,5.9219,5.9219,5.9219,5.9219,5.9219,5.9219,5.9219,5.9179,5.9179,5.9178,5.8474,5.7026,5.7732,5.7733,5.703,5.7731,5.769,5.6987,5.6805,5.6709,3.5174,4.0366,4.5986,4.9421,5.1492,5.2743,5.286,5.3561,5.4381,5.5123,5.5981,5.6606,5.6606,5.6606,5.6606,5.6606,5.6606,5.6606,5.6606,5.6606,5.6606,5.6606,5.6606,5.6606,5.6606,5.6606,5.6606,5.6606,5.6606,5.6645,5.6762,5.6762,5.6801,5.6918,5.6918,5.727,5.7972,5.8089,5.8519,5.9261,5.9375,5.9846,6.0588,6.0588,6.051,6.0354,5.9495,5.8597,5.7738,5.6918,5.6606,5.6762,5.8439,5.9102,5.93,6.1067,6.1701,6.1708,6.1714,6.1717,6.1679,6.1562,6.1523,6.1523,6.1406,6.0859,6.0234,6.0234,5.9726,5.9219,5.9219,5.9219,5.9219,5.9219,5.9023,5.8867,5.8867,5.8867,5.8867,5.8867,5.8945,5.9023,5.9023,5.9687,6.0234,6.0234,6.0898,6.1094,6.0351,6.0234,5.9961,5.9258,5.9219,5.9219,5.9219,5.9219,5.9219,5.9219,5.9219,5.9138,5.9037,5.9035,5.8895,5.8593,5.8775,5.8801,5.8683,5.8747,5.871,5.8554,5.7806,5.7451,3.7906,4.1927,4.583,4.9265,5.1023,5.196,5.196,5.2663,5.3522,5.4381,5.5279,5.602,5.6528,5.6606,5.6606,5.6606,5.6606,5.6606,5.6606,5.6606,5.6606,5.6606,5.6606,5.6606,5.6606,5.6606,5.6606,5.6606,5.6606,5.6606,5.6606,5.6606,5.6606,5.6606,5.6606,5.6762,5.7113,5.7582,5.8246,5.9102,5.9102,5.93,5.9651,5.9651,5.9417,5.8948,5.9065,5.8363,5.7113,5.6762,5.6606,5.6762,5.8447,5.9115,5.931,6.1078,6.1709,6.1714,6.1716,6.1718,6.1719,6.1719,6.1719,6.1719,6.1719,6.1445,6.1133,6.1133,6.0859,6.0586,6.0586,6.0586,6.0586,6.0586,6.0586,6.0586,6.0586,5.9844,5.9336,5.9765,5.9883,6.0039,6.0508,6.0898,6.1133,6.1133,6.1445,6.1562,6.1172,6.1133,6.0976,6.0625,6.0586,6.0586,6.0586,6.0586,6.0586,6.0586,6.0586,6.0585,6.0501,6.0501,6.0495,6.0479,5.9895,5.94,5.8928,5.936,5.9338,5.8905,5.8421,5.8231,3.8648,4.1537,4.3956,4.782,4.9774,5.0867,5.1297,5.1882,5.2663,5.3756,5.4537,5.5318,5.6411,5.6606,5.6606,5.6606,5.6606,5.6606,5.6606,5.6606,5.6606,5.6606,5.6606,5.6606,5.6606,5.6606,5.6606,5.6606,5.6606,5.6606,5.6606,5.6606,5.6606,5.6606,5.6606,5.6606,5.6606,5.7192,5.7933,5.8753,5.8558,5.8558,5.8753,5.8753,5.8285,5.7543,5.8402,5.7933,5.6606,5.6606,5.6606,5.6766,5.8455,5.9084,5.932,6.1045,6.1714,6.1717,6.1717,6.1718,6.1719,6.1719,6.1719,6.1719,6.1719,6.1719,6.1719,6.1719,6.1719,6.1719,6.1719,6.1719,6.1719,6.1719,6.1719,6.1719,6.1719,6.0703,6.0,6.0625,6.0742,6.0937,6.1601,6.1719,6.1719,6.1719,6.1719,6.1719,6.1719,6.1719,6.1719,6.1719,6.1719,6.1719,6.1719,6.1719,6.1719,6.1719,6.1719,6.1679,6.1677,6.1634,6.1627,6.1619,6.0798,6.0061,5.9533,6.01,6.0032,5.9443,5.9145,5.8978,3.291,3.5759,3.8921,4.3995,4.712,4.9384,5.1023,5.1453,5.196,5.3639,5.4029,5.4576,5.6294,5.6606,5.6606,5.6606,5.6606,5.6606,5.6606,5.6606,5.6606,5.6606,5.6606,5.6606,5.6606,5.6606,5.6606,5.6606,5.6606,5.6606,5.6606,5.6606,5.6606,5.6606,5.6606,5.6606,5.6606,5.6645,5.7074,5.7855,5.7074,5.7113,5.7855,5.7855,5.7426,5.6723,5.7504,5.7387,5.6606,5.6606,5.6612,5.6776,5.8456,5.9087,5.9328,6.1051,6.1716,6.1717,6.1718,6.1719,6.1719,6.1719,6.1719,6.1719,6.1719,6.1719,6.1719,6.1719,6.1719,6.1719,6.1719,6.1719,6.1719,6.1719,6.1719,6.1719,6.1719,6.164,6.1562,6.1601,6.164,6.164,6.168,6.1719,6.1719,6.1719,6.1719,6.1719,6.1719,6.1719,6.1719,6.1719,6.1719,6.1719,6.1719,6.1719,6.1719,6.1719,6.1719,6.1677,6.161,6.1471,6.1383,6.1305,6.1134,6.112,6.1257,6.112,6.103,6.0952,6.0208,5.986,3.4007,3.5762,3.7554,4.216,4.5285,4.751,4.8681,5.0243,5.1726,5.2936,5.36,5.4342,5.5552,5.6216,5.6606,5.6606,5.6606,5.6606,5.6606,5.6606,5.6606,5.6606,5.6606,5.6606,5.6606,5.6606,5.6606,5.6606,5.6606,5.6606,5.6606,5.6606,5.6606,5.6606,5.6606,5.6606,5.6606,5.6619,5.6738,5.7045,5.6733,5.6733,5.7045,5.7045,5.6889,5.6616,5.6896,5.6855,5.6616,5.6584,5.6587,5.6785,5.8508,5.9174,5.9371,6.1054,6.1718,6.1718,6.1719,6.1719,6.1719,6.1719,6.1719,6.1719,6.1719,6.1719,6.1719,6.1719,6.1719,6.1719,6.1719,6.1719,6.1719,6.1719,6.1719,6.1719,6.1719,6.1719,6.1719,6.1719,6.1719,6.1719,6.1719,6.1719,6.1719,6.1719,6.1719,6.1719,6.1719,6.1719,6.1719,6.1719,6.1719,6.1719,6.1719,6.1674,6.1626,6.1626,6.1562,6.1491,6.1463,6.1431,6.1393,6.1356,6.1264,6.1221,6.1198,6.1143,6.1118,6.1079,6.0809,6.0654,3.3428,3.4714,3.6233,4.0837,4.3063,4.4976,4.8135,4.954,5.0594,5.2353,5.3171,5.3834,5.4693,5.5357,5.5903,5.6489,5.6606,5.6606,5.6606,5.6606,5.6606,5.6606,5.6606,5.6606,5.6606,5.6606,5.6606,5.6606,5.6606,5.6606,5.6606,5.6606,5.6606,5.661,5.6614,5.6616,5.6616,5.6588,5.6591,5.6585,5.6585,5.6585,5.6585,5.6585,5.6585,5.6587,5.6593,5.6592,5.6626,5.6903,5.7023,5.7221,5.8942,5.9607,5.9765,6.1172,6.1719,6.1719,6.1719,6.1719,6.1719,6.1719,6.1719,6.1719,6.1719,6.1719,6.1719,6.1719,6.1719,6.1719,6.1719,6.1719,6.1836,6.2422,6.2148,6.1875,6.2461,6.2109,6.1719,6.1719,6.1678,6.1676,6.1676,6.163,6.1585,6.1585,6.1585,6.1585,6.1585,6.1585,6.1585,6.1585,6.1585,6.1585,6.1585,6.1559,6.1537,6.1537,6.1448,6.1412,6.1412,6.1378,6.1356,6.1356,6.1264,6.1203,6.1118,6.1118,6.1118,6.1118,6.1118,6.1118,0.0,0.0,0.0,3.9596,4.0297,4.1779,4.9347,4.9189,4.8408,5.1884,5.2587,5.286,5.3795,5.399,5.4576,5.6294,5.6567,5.6567,5.6606,5.6606,5.6606,5.6606,5.6606,5.6606,5.6606,5.6606,5.6606,5.6606,5.6606,5.6606,5.6606,5.6606,5.661,5.6582,5.6589,5.6593,5.6593,5.6593,5.6593,5.6593,5.6593,5.6593,5.6593,5.6593,5.6593,5.6593,5.6637,5.6636,5.671,5.7531,5.7925,5.8084,5.9764,6.039,6.0508,6.1367,6.1719,6.1719,6.1719,6.1719,6.1719,6.1719,6.1719,6.1719,6.1719,6.1719,6.1719,6.1719,6.1719,6.1719,6.1719,6.1758,6.2187,6.3906,6.3008,6.2226,6.3945,6.2968,6.1758,6.1758,6.1668,6.1603,6.1603,6.1471,6.1412,6.1412,6.1412,6.1412,6.1451,6.1451,6.1451,6.1451,6.1451,6.1451,6.1451,6.1447,6.1447,6.1486,6.1481,6.1481,6.1481,6.1369,6.1342,6.1342,6.1178,6.1118,6.1118,6.1118,6.1118,6.1118,6.1118,6.1118,2.9744,0.0,0.0,0.0,0.0,0.0,4.2174,4.3463,4.4984,4.9043,4.9861,5.0521,5.2665,5.3561,5.4342,5.5474,5.5669,5.5864,5.6528,5.6606,5.6606,5.6606,5.6606,5.6606,5.6606,5.6606,5.6606,5.6606,5.6606,5.6606,5.6606,5.6612,5.6582,5.6589,5.6596,5.6597,5.6593,5.6599,5.66,5.6598,5.6598,5.6598,5.6598,5.6598,5.6598,5.6637,5.7265,5.7539,5.7577,5.7812,5.8281,5.8945,6.0,6.039,6.0508,6.1367,6.1719,6.1719,6.1719,6.1719,6.1719,6.1719,6.1719,6.1719,6.1719,6.1719,6.1719,6.1719,6.1719,6.1836,6.2461,6.3125,6.3711,6.418,6.3862,6.3572,6.404,6.3737,6.3208,6.267,6.1972,6.1452,6.1452,6.1431,6.1412,6.1412,6.1412,6.1646,6.2265,6.2343,6.2572,6.3195,6.2728,6.2611,6.3234,6.2657,6.2523,6.3106,6.3084,6.3059,6.3059,6.2426,6.209,6.209,6.1455,6.1118,6.1118,6.1118,6.1118,6.1118,6.1118,6.1118,0.0,0.0,0.0,0.0,0.0,0.0,4.1554,4.2218,4.3076,4.7406,4.8302,4.8963,5.1221,5.2038,5.278,5.399,5.4537,5.5201,5.645,5.6606,5.6606,5.6606,5.6606,5.6606,5.6606,5.6606,5.6606,5.6606,5.6606,5.6608,5.6612,5.6585,5.6593,5.6596,5.6599,5.66,5.6599,5.6601,5.6601,5.6601,5.6601,5.6601,5.6601,5.6601,5.6758,5.7106,5.7611,5.819,5.8801,5.8801,5.9169,5.9765,6.0625,6.0937,6.1015,6.1523,6.1719,6.1719,6.1719,6.1719,6.1719,6.1719,6.1719,6.1719,6.1719,6.1678,6.1675,6.1679,6.1678,6.1947,6.3157,6.3539,6.3917,6.5011,6.4632,6.4251,6.4992,6.4491,6.3704,6.2953,6.2313,6.1807,6.1423,6.1298,6.1415,6.1765,6.1803,6.2114,6.3002,6.3118,6.3313,6.3818,6.3429,6.3313,6.3818,6.3387,6.3253,6.3718,6.3699,6.3719,6.3719,6.3207,6.2936,6.2936,6.2433,6.2008,6.166,6.1273,6.1118,6.1118,6.1118,6.1118,0.0,0.0,0.0,0.0,0.0,0.0,4.3944,4.2966,4.1988,4.6044,4.6822,4.7287,4.9073,4.9542,5.0206,5.173,5.2979,5.4344,5.6216,5.6528,5.6606,5.6606,5.6606,5.6606,5.6606,5.6606,5.6606,5.6606,5.6606,5.6612,5.6582,5.6595,5.6599,5.66,5.6601,5.6601,5.6601,5.6601,5.6562,5.6561,5.6561,5.6561,5.6561,5.6678,5.7059,5.7687,5.7882,5.8786,6.0122,6.02,6.0366,6.0584,6.1365,6.1678,6.1678,6.1678,6.1678,6.1678,6.1678,6.1678,6.1678,6.1678,6.1678,6.1678,6.1678,6.1704,6.1761,6.1908,6.1976,6.2335,6.3857,6.369,6.3707,6.6044,6.5405,6.4694,6.6223,6.5265,6.3835,6.3097,6.2841,6.2478,6.1709,6.1466,6.166,6.2433,6.2549,6.2859,6.3719,6.3835,6.3874,6.399,6.3913,6.3874,6.399,6.3913,6.3874,6.399,6.399,6.399,6.399,6.3874,6.3835,6.3835,6.3758,6.3323,6.2549,6.1776,6.135,6.1234,6.1234,6.1234,0.0,0.0,0.0,0.0,0.0,0.0,3.9043,3.8951,3.9632,4.1911,4.1836,4.2143,4.4519,4.6082,4.7136,4.7487,4.9988,5.2758,5.5203,5.6177,5.6606,5.6606,5.6606,5.6606,5.6606,5.6606,5.6606,5.6606,5.6614,5.6584,5.6591,5.6597,5.66,5.6601,5.6601,5.656,5.6501,5.6501,5.6484,5.6358,5.6358,5.6358,5.6397,5.7095,5.7474,5.7693,5.9057,5.9824,6.0161,6.0862,6.1162,6.1229,6.1385,6.1463,6.1463,6.1463,6.1463,6.1463,6.1463,6.1463,6.1463,6.1463,6.1463,6.1463,6.1463,6.1958,6.2648,6.3362,6.4056,6.467,6.4978,6.5436,6.5966,6.6473,6.6244,6.6001,6.6358,6.6071,6.548,6.4704,6.3949,6.3428,6.3273,6.3197,6.3255,6.341,6.3449,6.3758,6.4648,6.4764,6.4986,6.5644,6.5141,6.4986,6.5644,6.5102,6.5025,6.5682,6.5721,6.5721,6.5721,6.5102,6.4764,6.4764,6.4068,6.3642,6.3449,6.3294,6.282,6.2162,6.2162,6.2162,0.0,0.0,0.0,4.0987,0.0,0.0,0.0,3.9678,3.9819,4.242,4.1618,4.1357,4.4331,4.5269,4.57,4.6129,4.9057,5.1441,5.1914,5.39,5.5292,5.5292,5.5292,5.5292,5.5292,5.5656,5.6013,5.6482,5.6484,5.6523,5.6597,5.6562,5.6557,5.6554,5.6501,5.6438,5.6407,5.6407,5.6351,5.6312,5.6736,5.697,5.697,5.7862,5.8452,5.8826,5.9688,6.0274,6.0635,6.107,6.1264,6.1278,6.1373,6.1412,6.1412,6.1412,6.1412,6.1412,6.1412,6.1685,6.2031,6.2031,6.2343,6.2689,6.2689,6.3,6.3414,6.3786,6.4195,6.4662,6.509,6.551,6.5887,6.6314,6.6367,6.6299,6.6299,6.6264,6.6069,6.5682,6.5257,6.4677,6.3835,6.3719,6.3835,6.43,6.4338,6.4648,6.5489,6.5605,6.576,6.6147,6.5837,6.576,6.6185,6.5837,6.576,6.6185,6.6185,6.6185,6.6185,6.5799,6.5605,6.5605,6.518,6.4754,6.4338,6.4754,6.429,6.3052,6.3052,6.282,0.0,0.0,0.0,0.0,0.0,4.2416,0.0,0.0,0.0,4.3094,4.1905,4.1337,4.4116,4.4163,4.3973,4.4519,4.7635,4.9313,4.7409,5.0228,5.2655,5.3162,5.3632,5.3866,5.3749,5.3942,5.4598,5.5812,5.5606,5.5651,5.6289,5.6426,5.6475,5.6475,5.6539,5.6533,5.6514,5.667,5.6777,5.6757,5.7453,5.7803,5.7803,5.8693,5.9413,6.001,6.0126,6.0553,6.1118,6.1118,6.1118,6.1107,6.1266,6.1351,6.1351,6.1351,6.1351,6.139,6.154,6.2046,6.2663,6.2858,6.3364,6.398,6.4136,6.4175,6.4195,6.4233,6.4279,6.4427,6.5125,6.5255,6.5373,6.6031,6.6185,6.6185,6.6185,6.6185,6.6185,6.6185,6.6185,6.576,6.4416,6.4184,6.4416,6.5141,6.5218,6.545,6.6108,6.6185,6.6185,6.6185,6.6185,6.6185,6.6185,6.6185,6.6185,6.6185,6.6185,6.6185,6.6185,6.6185,6.6185,6.6185,6.6185,6.5876,6.5218,6.5876,6.5412,6.3952,6.3952,6.3555,0.0,0.0,0.0,0.0,4.6112,0.0,0.0,0.0,4.1291,3.9406,0.0,3.8802,3.9195,0.0,0.0,3.9366,4.2802,4.4679,4.2192,4.4816,4.7835,5.0085,5.2345,5.3433,5.2735,5.1367,5.1537,5.4016,5.27,5.2845,5.5218,5.5984,5.6324,5.6324,5.7052,5.7391,5.7282,5.8053,5.8418,5.8325,5.8432,5.8471,5.851,5.9401,5.9818,5.9955,6.0681,6.102,6.1118,6.1118,6.1118,6.1079,6.1125,6.1143,6.1143,6.1143,6.1143,6.122,6.2034,6.2343,6.2576,6.335,6.3669,6.3902,6.4628,6.4899,6.5015,6.5722,6.5945,6.5945,6.6061,6.6089,6.6108,6.6185,6.6185,6.6185,6.6185,6.6185,6.6185,6.6185,6.6185,6.6147,6.5953,6.5915,6.5953,6.6031,6.6069,6.6108,6.6185,6.6185,6.6185,6.6185,6.6185,6.6185,6.6185,6.6185,6.6185,6.6185,6.6185,6.6185,6.6185,6.6185,6.6185,6.6185,6.6185,6.6147,6.6069,6.6147,6.5721,6.4841,6.4841,6.4793,0.0,0.0,0.0,0.0,0.0,0.0,4.2396,0.0,4.1308,0.0,0.0,0.0,0.0,0.0,0.0,0.0,4.1359,4.2296,3.9737,4.234,4.5079,4.6721,4.8326,4.9903,5.152,5.0118,5.0373,5.3475,5.2118,5.2286,5.4924,5.5813,5.6258,5.6258,5.6997,5.7388,5.7358,5.8211,5.8643,5.8613,5.9106,5.9339,5.9377,6.0228,6.0615,6.0615,6.0963,6.1118,6.1118,6.1118,6.1118,6.1157,6.166,6.1543,6.1118,6.1118,6.1427,6.193,6.2278,6.3052,6.4058,6.487,6.5141,6.5218,6.5605,6.5682,6.576,6.6108,6.6185,6.6185,6.6185,6.6185,6.6185,6.6185,6.6185,6.6185,6.6185,6.6185,6.6185,6.6185,6.6185,6.6185,6.6185,6.6185,6.6185,6.6185,6.6185,6.6185,6.6185,6.6185,6.6185,6.6185,6.6185,6.6185,6.6185,6.6185,6.6185,6.6185,6.6185,6.6185,6.6185,6.6185,6.6185,6.6185,6.6185,6.6185,6.6185,6.6185,6.6031,6.5682,6.5682,6.545,4.9243,0.0,0.0,0.0,0.0,0.0,0.0,0.0,0.0,0.0,0.0,0.0,0.0,0.0,0.0,0.0,0.0,4.0694,3.7909,4.0036,4.2366,4.3553,4.5079,4.6989,4.9413,4.7666,4.7994,5.1913,5.0408,5.087,5.4436,5.5378,5.6037,5.6502,5.724,5.7791,5.8023,5.8874,5.93,5.93,5.9919,6.0228,6.0267,6.0847,6.1118,6.1118,6.1118,6.1118,6.1118,6.1118,6.1118,6.1157,6.1814,6.1814,6.1505,6.1737,6.2046,6.2472,6.2936,6.4097,6.5412,6.5992,6.6185,6.6185,6.6185,6.6185,6.6185,6.6185,6.6185,6.6185,6.6185,6.6185,6.6185,6.6185,6.6185,6.6185,6.6185,6.6185,6.6185,6.6185,6.6185,6.6185,6.6185,6.6185,6.6185,6.6185,6.6185,6.6185,6.6185,6.6185,6.6185,6.6185,6.6185,6.6185,6.6185,6.6185,6.6185,6.6185,6.6185,6.6185,6.6185,6.6185,6.6185,6.6185,6.6185,6.6185,6.6185,6.6185,6.6185,6.6185,6.6185,6.5876,0.0,0.0,0.0,4.6689,0.0,0.0,0.0,0.0,4.2783,0.0,0.0,0.0,0.0,0.0,0.0,0.0,0.0,0.0,0.0,3.729,3.8992,4.0712,4.3808,4.5859,4.5969,4.2989,4.3168,4.8289,4.628,4.7385,5.3333,5.4405,5.5595,5.7211,5.8101,5.8952,5.9803,6.0615,6.1041,6.1041,6.1041,6.1079,6.1079,6.1079,6.1118,6.1118,6.1118,6.1118,6.1118,6.1118,6.1118,6.1118,6.1118,6.166,6.2472,6.3323,6.3091,6.2627,6.4329,6.545,6.6185,6.6185,6.6185,6.6185,6.6185,6.6185,6.6185,6.6185,6.6185,6.6185,6.6185,6.6185,6.6185,6.6185,6.6185,6.6185,6.6185,6.6185,6.6185,6.6185,6.6185,6.6185,6.6185,6.6185,6.6185,6.6185,6.6185,6.6185,6.6185,6.6185,6.6185,6.6185,6.6185,6.6185,6.6185,6.6185,6.6185,6.6185,6.6185,6.6185,6.6185,6.6185,6.6185,6.6185,6.6185,6.6185,6.6185,6.6185,6.6185,6.6185,6.6185,6.6185,5.0898,5.0898,5.0357,4.8082,4.6658,0.0,0.0,0.0,0.0,0.0,0.0,0.0,0.0,0.0,0.0,0.0,0.0,0.0,0.0,3.6632,3.7754,0.0,0.0,0.0,4.3285,4.2241,4.3273,4.7269,4.6221,4.753,5.2422,5.4536,5.5857,5.6429,5.841,5.9609,5.988,6.0692,6.1118,6.1118,6.1118,6.1118,6.1118,6.1118,6.1118,6.1118,6.1118,6.1118,6.1118,6.1118,6.1118,6.1157,6.1737,6.2162,6.2433,6.2743,6.3362,6.429,6.5412,6.5953,6.6185,6.6185,6.6185,6.6185,6.6185,6.6185,6.6185,6.6185,6.6185,6.6185,6.6185,6.6185,6.6185,6.6185,6.6185,6.6185,6.6185,6.6185,6.6185,6.6185,6.6185,6.6185,6.6185,6.6185,6.6185,6.6185,6.6185,6.6185,6.6185,6.6185,6.6185,6.6185,6.6185,6.6185,6.6185,6.6185,6.6185,6.6185,6.6185,6.6185,6.6185,6.6185,6.6185,6.6185,6.6185,6.6185,6.6185,6.6185,6.6185,6.6185,6.6185,6.6185,5.0898,5.0898,5.0511,4.8817,4.754,4.6187,4.4214,0.0,4.433,0.0,0.0,0.0,0.0,0.0,0.0,0.0,0.0,0.0,0.0,3.64,0.0,0.0,0.0,0.0,0.0,4.0655,4.1816,4.6728,4.5452,4.6735,5.192,5.4349,5.5857,5.6429,5.8681,6.0035,6.0306,6.0847,6.1118,6.1118,6.1118,6.1118,6.1118,6.1118,6.1118,6.1118,6.1118,6.1118,6.1118,6.1427,6.1389,6.1234,6.2394,6.2859,6.2897,6.3207,6.4213,6.5489,6.6031,6.6185,6.6185,6.6185,6.6185,6.6185,6.6185,6.6185,6.6185,6.6185,6.6185,6.6185,6.6185,6.6185,6.6185,6.6185,6.6185,6.6185,6.6185,6.6185,6.6185,6.6185,6.6185,6.6185,6.6185,6.6185,6.6185,6.6185,6.6185,6.6185,6.6185,6.6185,6.6185,6.6185,6.6185,6.6185,6.6185,6.6185,6.6185,6.6185,6.6185,6.6185,6.6185,6.6185,6.6185,6.6185,6.6185,6.6185,6.6185,6.6185,6.6185,6.6185,6.6185,6.6185]}]]